[[{"header":{"parameterUnit":"m.s-1","parameterCategory":1,"la1":30.6,"la2":28.766,"lo1":-90.7593,"lo2":-88.6598,"dx":0.0162,"dy":0.0183,"nx":116,"ny":114,"refTime":"2022-12-25T06:00:00:Z","depth":0,"parameterNumber":2,"parameterNumberName":"U-component_of_WINDS"},"data":[0.0,0.0,0.0,0.0,0.0,0.0,0.0,0.0,0.0,0.0,0.0,0.0,0.0,0.0,0.0,0.0,0.0,0.0,0.0,0.0,0.0,0.0,0.0,0.0,0.0,0.0,0.0,0.0,0.0,0.0,0.0,0.0,0.0,0.0,0.0,0.0,0.0,0.0,0.0,0.0,0.0,0.0,0.0,0.0,0.0,0.0,0.0,0.0,0.0,0.0,0.0,0.0,0.0,0.0,0.0,0.0,0.0,0.0,0.0,0.0,0.0,0.0,0.0,0.0,0.0,0.0,0.0,0.0,0.0,0.0,0.0,0.0,0.0,0.0,0.0,0.0,0.0,0.0,0.0,0.0,0.0,0.0,0.0,0.0,0.0,0.0,0.0,0.0,0.0,0.0,0.0,0.0,0.0,0.0,0.0,0.0,0.0,0.0,0.0,0.0,0.0,0.0,0.0,0.0,0.0,0.0,0.0,0.0,0.0,0.0,0.0,0.0,0.0,0.0,0.0,0.0,0.0,0.0,0.0,0.0,0.0,0.0,0.0,0.0,0.0,0.0,0.0,0.0,0.0,0.0,0.0,0.0,0.0,0.0,0.0,0.0,0.0,0.0,0.0,0.0,0.0,0.0,0.0,0.0,0.0,0.0,0.0,0.0,0.0,0.0,0.0,0.0,0.0,0.0,0.0,0.0,0.0,0.0,0.0,0.0,0.0,0.0,0.0,0.0,0.0,0.0,0.0,0.0,0.0,0.0,0.0,0.0,0.0,0.0,0.0,0.0,0.0,0.0,0.0,0.0,0.0,0.0,0.0,0.0,0.0,0.0,0.0,0.0,0.0,0.0,0.0,0.0,0.0,0.0,0.0,0.0,0.0,0.0,0.0,0.0,0.0,0.0,0.0,0.0,0.0,0.0,0.0,0.0,0.0,0.0,0.0,0.0,0.0,0.0,0.0,0.0,0.0,0.0,0.0,0.0,0.0,0.0,0.0,0.0,0.0,0.0,0.0,0.0,0.0,0.0,0.0,0.0,0.0,0.0,0.0,0.0,0.0,0.0,0.0,0.0,0.0,0.0,0.0,0.0,0.0,0.0,0.0,0.0,0.0,0.0,0.0,0.0,0.0,0.0,0.0,0.0,0.0,0.0,0.0,0.0,0.0,0.0,0.0,0.0,0.0,0.0,0.0,0.0,0.0,0.0,0.0,0.0,0.0,0.0,0.0,0.0,0.0,0.0,0.0,0.0,0.0,0.0,0.0,0.0,0.0,0.0,0.0,0.0,0.0,0.0,0.0,0.0,0.0,0.0,0.0,0.0,0.0,0.0,0.0,0.0,0.0,0.0,0.0,0.0,0.0,0.0,0.0,0.0,0.0,0.0,0.0,0.0,0.0,0.0,0.0,0.0,0.0,0.0,0.0,0.0,0.0,0.0,0.0,0.0,0.0,0.0,0.0,0.0,0.0,0.0,0.0,0.0,0.0,0.0,0.0,0.0,0.0,0.0,0.0,0.0,0.0,0.0,0.0,0.0,0.0,0.0,0.0,0.0,0.0,0.0,0.0,0.0,0.0,0.0,0.0,0.0,0.0,0.0,0.0,0.0,0.0,0.0,0.0,0.0,0.0,0.0,0.0,0.0,0.0,0.0,0.0,0.0,0.0,0.0,0.0,0.0,0.0,0.0,0.0,0.0,0.0,0.0,0.0,0.0,0.0,0.0,0.0,0.0,0.0,0.0,0.0,0.0,0.0,0.0,0.0,0.0,0.0,0.0,0.0,0.0,0.0,0.0,0.0,0.0,0.0,0.0,0.0,0.0,0.0,0.0,0.0,0.0,0.0,0.0,0.0,0.0,0.0,0.0,0.0,0.0,0.0,0.0,0.0,0.0,0.0,0.0,0.0,0.0,0.0,0.0,0.0,0.0,0.0,0.0,0.0,0.0,0.0,0.0,0.0,0.0,0.0,0.0,0.0,0.0,0.0,0.0,0.0,0.0,0.0,0.0,0.0,0.0,0.0,0.0,0.0,0.0,0.0,0.0,0.0,0.0,0.0,0.0,0.0,0.0,0.0,0.0,0.0,0.0,0.0,0.0,0.0,0.0,0.0,0.0,0.0,0.0,0.0,0.0,0.0,0.0,0.0,0.0,0.0,0.0,0.0,0.0,0.0,0.0,0.0,0.0,0.0,0.0,0.0,0.0,0.0,0.0,0.0,0.0,0.0,0.0,0.0,0.0,0.0,0.0,0.0,0.0,0.0,0.0,0.0,0.0,0.0,0.0,0.0,0.0,0.0,0.0,0.0,0.0,0.0,0.0,0.0,0.0,0.0,0.0,0.0,0.0,0.0,0.0,0.0,0.0,0.0,0.0,0.0,0.0,0.0,0.0,0.0,0.0,0.0,0.0,0.0,0.0,0.0,0.0,0.0,0.0,0.0,0.0,0.0,0.0,0.0,0.0,0.0,0.0,0.0,0.0,0.0,0.0,0.0,0.0,0.0,0.0,0.0,0.0,0.0,0.0,0.0,0.0,0.0,0.0,0.0,0.0,0.0,0.0,0.0,0.0,0.0,0.0,0.0,0.0,0.0,0.0,0.0,0.0,0.0,0.0,0.0,0.0,0.0,0.0,0.0,0.0,0.0,0.0,0.0,0.0,0.0,0.0,0.0,0.0,0.0,0.0,0.0,0.0,0.0,0.0,0.0,0.0,0.0,0.0,0.0,0.0,0.0,0.0,0.0,0.0,0.0,0.0,0.0,0.0,0.0,0.0,0.0,0.0,0.0,0.0,0.0,0.0,0.0,0.0,0.0,0.0,0.0,0.0,0.0,0.0,0.0,0.0,0.0,0.0,0.0,0.0,0.0,0.0,0.0,0.0,0.0,0.0,0.0,0.0,0.0,0.0,0.0,0.0,0.0,0.0,0.0,0.0,0.0,0.0,0.0,0.0,0.0,0.0,0.0,0.0,0.0,0.0,0.0,0.0,0.0,0.0,0.0,0.0,0.0,0.0,0.0,0.0,0.0,0.0,0.0,0.0,0.0,0.0,0.0,0.0,0.0,0.0,0.0,0.0,0.0,0.0,0.0,0.0,0.0,0.0,0.0,0.0,0.0,0.0,0.0,0.0,0.0,0.0,0.0,0.0,0.0,0.0,0.0,0.0,0.0,0.0,0.0,0.0,0.0,0.0,0.0,0.0,0.0,0.0,0.0,0.0,0.0,0.0,0.0,0.0,0.0,0.0,0.0,0.0,0.0,0.0,0.0,0.0,0.0,0.0,0.0,0.0,0.0,0.0,0.0,0.0,0.0,0.0,0.0,0.0,0.0,0.0,0.0,0.0,0.0,0.0,0.0,0.0,0.0,0.0,0.0,0.0,0.0,0.0,0.0,0.0,0.0,0.0,0.0,0.0,0.0,0.0,0.0,0.0,0.0,0.0,0.0,0.0,0.0,0.0,0.0,0.0,0.0,0.0,0.0,0.0,0.0,0.0,0.0,0.0,0.0,0.0,0.0,0.0,0.0,0.0,0.0,0.0,0.0,0.0,0.0,0.0,0.0,0.0,0.0,0.0,0.0,0.0,0.0,0.0,0.0,0.0,0.0,0.0,0.0,0.0,0.0,0.0,0.0,0.0,0.0,0.0,0.0,0.0,0.0,0.0,0.0,0.0,0.0,0.0,0.0,0.0,0.0,0.0,0.0,0.0,0.0,0.0,0.0,0.0,0.0,0.0,0.0,0.0,0.0,0.0,0.0,0.0,0.0,0.0,0.0,0.0,0.0,0.0,0.0,0.0,0.0,0.0,0.0,0.0,0.0,0.0,0.0,0.0,0.0,0.0,0.0,0.0,0.0,0.0,0.0,0.0,0.0,0.0,0.0,0.0,0.0,0.0,0.0,0.0,0.0,0.0,0.0,0.0,0.0,0.0,0.0,0.0,0.0,0.0,0.0,0.0,0.0,0.0,0.0,0.0,0.0,0.0,0.0,0.0,0.0,0.0,0.0,0.0,0.0,0.0,0.0,0.0,0.0,0.0,0.0,0.0,0.0,0.0,0.0,0.0,0.0,0.0,0.0,0.0,0.0,0.0,0.0,0.0,0.0,0.0,0.0,0.0,0.0,0.0,0.0,0.0,0.0,0.0,0.0,0.0,0.0,0.0,0.0,0.0,0.0,0.0,0.0,0.0,0.0,0.0,0.0,0.0,0.0,0.0,0.0,0.0,0.0,0.0,0.0,0.0,0.0,0.0,0.0,0.0,0.0,0.0,0.0,0.0,0.0,0.0,0.0,0.0,0.0,0.0,0.0,0.0,0.0,0.0,0.0,0.0,0.0,0.0,0.0,0.0,0.0,0.0,0.0,0.0,0.0,0.0,0.0,0.0,0.0,0.0,0.0,0.0,0.0,0.0,0.0,0.0,0.0,0.0,0.0,0.0,0.0,0.0,0.0,0.0,0.0,0.0,0.0,0.0,0.0,0.0,0.0,0.0,0.0,0.0,0.0,0.0,0.0,0.0,0.0,0.0,0.0,0.0,0.0,0.0,0.0,0.0,0.0,0.0,0.0,0.0,0.0,0.0,0.0,0.0,0.0,0.0,0.0,0.0,0.0,0.0,0.0,0.0,0.0,0.0,0.0,0.0,0.0,0.0,0.0,0.0,0.0,0.0,0.0,0.0,0.0,0.0,0.0,0.0,0.0,0.0,0.0,0.0,0.0,0.0,0.0,0.0,0.0,0.0,0.0,0.0,0.0,0.0,0.0,0.0,0.0,0.0,0.0,0.0,0.0,0.0,0.0,0.0,0.0,0.0,0.0,0.0,0.0,0.0,0.0,0.0,0.0,0.0,0.0,0.0,0.0,0.0,0.0,0.0,0.0,0.0,0.0,0.0,0.0,0.0,0.0,0.0,0.0,0.0,0.0,0.0,0.0,0.0,0.0,0.0,0.0,0.0,0.0,0.0,0.0,0.0,0.0,0.0,0.0,0.0,0.0,0.0,0.0,0.0,0.0,0.0,0.0,0.0,0.0,0.0,0.0,0.0,0.0,0.0,0.0,0.0,0.0,0.0,0.0,0.0,0.0,0.0,0.0,0.0,0.0,0.0,0.0,0.0,0.0,0.0,0.0,0.0,0.0,0.0,0.0,0.0,0.0,0.0,0.0,0.0,0.0,0.0,0.0,0.0,0.0,0.0,0.0,0.0,0.0,0.0,0.0,0.0,0.0,0.0,0.0,0.0,0.0,0.0,0.0,0.0,0.0,0.0,0.0,0.0,0.0,0.0,0.0,0.0,0.0,0.0,0.0,0.0,0.0,0.0,0.0,0.0,0.0,0.0,0.0,0.0,0.0,0.0,0.0,0.0,0.0,0.0,0.0,0.0,0.0,0.0,0.0,0.0,0.0,0.0,0.0,0.0,0.0,0.0,0.0,0.0,0.0,0.0,0.0,0.0,0.0,0.0,0.0,0.0,0.0,0.0,0.0,0.0,0.0,0.0,0.0,0.0,0.0,0.0,0.0,0.0,0.0,0.0,0.0,0.0,0.0,0.0,0.0,0.0,0.0,0.0,0.0,0.0,0.0,0.0,0.0,0.0,0.0,0.0,0.0,0.0,0.0,0.0,0.0,0.0,0.0,0.0,0.0,0.0,0.0,0.0,0.0,0.0,0.0,0.0,0.0,0.0,0.0,0.0,0.0,0.0,0.0,0.0,0.0,0.0,0.0,0.0,0.0,0.0,0.0,0.0,0.0,0.0,0.0,0.0,0.0,0.0,0.0,0.0,0.0,0.0,0.0,0.0,0.0,0.0,0.0,0.0,0.0,0.0,0.0,0.0,0.0,0.0,0.0,0.0,0.0,0.0,0.0,0.0,0.0,0.0,0.0,0.0,0.0,0.0,0.0,0.0,0.0,0.0,0.0,0.0,0.0,0.0,0.0,0.0,0.0,0.0,0.0,0.0,0.0,0.0,0.0,0.0,0.0,0.0,0.0,0.0,0.0,0.0,0.0,0.0,0.0,0.0,0.0,0.0,0.0,0.0,0.0,0.0,0.0,0.0,0.0,0.0,0.0,0.0,0.0,0.0,0.0,0.0,0.0,0.0,0.0,0.0,0.0,0.0,0.0,0.0,0.0,0.0,0.0,0.0,1.0559,0.0,0.0,0.0,0.0,0.0,0.0,0.0,0.0,0.0,0.0,0.0,0.0,0.0,0.0,0.0,0.0,0.0,0.0,0.0,0.0,0.0,0.0,0.0,0.0,0.3266,0.4087,0.3825,0.3825,0.0,0.0,0.0,0.0,0.0,0.0,0.0,0.0,0.0,0.0,0.0,0.0,0.441,0.5254,0.4455,0.3377,0.2095,0.0,0.0,0.0,0.0,0.0,0.0,0.0,0.0,0.0,0.0,0.0,0.0,0.0,0.0,0.0,0.0,0.0,0.0,0.0,0.0,0.0,0.0,0.0,0.0,0.0,0.0,0.0,0.0,0.0,0.0,0.0,0.0,0.0,0.0,0.0,0.0,0.0,0.0,0.0,0.0,0.0,0.0,0.0,0.0,0.0,0.0,0.0,0.0,0.0,0.0,0.0,0.0,0.0,0.0,0.0,0.0,0.0,0.0,0.0,0.0,0.0,0.0,0.0,0.0,0.0,0.0,0.0,0.0,0.0,0.0,0.0,1.0365,0.0,0.0,0.0,0.0,0.0,0.0,0.0,0.0,0.0,0.0,0.0,0.0,0.0,0.0,0.0,0.0,0.0,0.0,0.0,0.0,0.0,0.1603,0.3767,0.4277,0.4349,0.4092,0.4104,0.4072,0.3979,0.3936,0.0,0.0,0.0,0.0,0.0,0.343,0.416,0.0,0.0,0.0,0.7365,0.6552,0.0,0.0,0.0,0.0,0.0,0.0,0.0,0.0,0.0,0.0,0.0,0.0,0.0,0.0,0.0,0.0,0.0,0.0,0.0,0.0,0.0,0.0,0.0,0.0,0.0,0.0,0.0,0.0,0.0,0.0,0.0,0.0,0.0,0.0,0.0,0.0,0.0,0.0,0.0,0.0,0.0,0.0,0.0,0.0,0.0,0.0,0.0,0.0,0.0,0.0,0.0,0.0,0.0,0.0,0.0,0.0,0.0,0.0,0.0,0.0,0.0,0.0,0.0,0.0,0.0,0.0,0.0,0.0,1.3745,1.4237,1.4573,1.459,1.2844,1.274,1.3719,0.0,0.0,0.0,0.0,0.0,0.0,0.0,0.0,0.0,0.0,0.0,0.0,0.0,0.0,0.0,0.0,0.0,0.0,0.0,0.0,0.4044,0.4391,0.4367,0.4652,0.5448,0.4707,0.4448,0.5048,0.439,0.0,0.0,0.0,0.0,0.3565,0.3959,0.4718,0.0,0.0,0.0,0.8142,0.7997,0.7716,0.7204,0.0,0.0,0.0,0.0,0.0,0.0,0.0,0.0,0.0,0.0,0.0,0.0,0.0,0.0,0.0,0.0,0.0,0.0,0.0,0.0,0.0,0.0,0.0,0.0,0.0,0.0,0.0,0.0,0.0,0.0,0.0,0.0,0.0,0.0,0.0,0.0,0.0,0.0,0.0,0.0,0.0,0.0,0.0,0.0,1.0041,1.1194,0.0,0.0,0.0,0.0,0.0,0.0,0.0,0.0,0.0,0.0,0.0,0.0,0.0,0.0,1.3226,1.433,1.4858,1.4936,1.5822,1.6255,1.6255,1.6314,1.6579,1.6933,1.5871,0.0,1.3152,1.4086,0.0,0.0,0.0,0.0,0.0,0.0,0.0,0.0,0.0,0.0,0.0,0.0,0.0,0.0,0.0,0.0,0.0,0.0,0.0,0.0,0.0,0.724,0.7664,0.8787,0.8075,0.7277,0.6573,0.6176,0.0,0.0,0.0,0.389,0.3825,0.5393,0.6953,0.8475,0.9225,0.9407,0.9016,0.838,0.8447,0.907,0.7873,0.678,0.5823,0.5701,0.0,0.0,0.0,0.0,0.0,0.0,0.0,0.0,0.0,0.0,0.0,0.0,0.0,0.0,0.0,0.0,0.0,0.0,0.0,0.0,0.0,0.0,0.0,0.0,0.0,0.0,0.0,0.0,0.0,0.0,0.0,0.0,0.0,0.0,0.0,0.0,0.0,0.0,0.0,1.0442,1.1422,1.2804,1.2197,1.145,0.0,0.0,0.0,0.0,0.0,0.0,0.0,0.0,0.0,1.4609,1.4778,1.5018,1.5369,1.5828,1.6256,1.6523,1.6914,1.7227,1.7451,1.7451,1.7549,1.7715,1.7324,1.6494,1.539,1.5164,1.4359,1.3313,0.0,0.0,0.0,0.0,0.0,0.0,0.0,0.0,0.0,0.0,0.0,0.0,0.0,0.0,0.0,0.0,0.0,0.0,0.9521,0.9553,1.0071,1.137,1.0714,0.9818,0.8874,0.8043,0.6864,0.5183,0.4479,0.4204,0.4354,0.7042,0.9388,0.0,1.1064,1.0645,1.0121,0.9006,0.8952,0.9852,0.9463,0.8606,0.7609,0.7999,0.6781,0.0,0.0,0.0,0.0,0.0,0.0,0.0,0.0,0.0,0.0,0.0,0.0,0.0,0.0,0.0,0.0,0.0,0.0,0.0,0.0,0.0,0.0,0.0,0.0,0.0,0.0,0.0,0.0,0.0,0.0,0.0,0.0,0.0,0.0,0.0,0.0,0.0,0.0,1.2421,1.2842,1.4261,1.3729,1.3031,0.0,0.0,0.0,0.0,0.0,0.0,1.5894,1.5877,1.6269,1.7214,1.6964,1.7016,1.7478,1.743,1.7412,1.7539,1.7539,1.7705,1.8008,1.8008,1.8008,1.8008,1.8269,1.8148,1.7785,1.6417,1.5683,1.5342,1.4784,0.0,0.0,0.0,1.4077,1.4374,0.0,0.0,0.0,0.0,0.0,0.0,0.0,0.0,0.0,0.0,0.0,0.8688,0.9751,0.9769,1.0302,1.1825,1.0934,1.0871,1.2261,0.953,0.7814,0.7619,0.5593,0.4749,0.5311,0.8699,1.1467,1.3526,1.2566,1.1964,1.1575,1.0505,0.9742,0.9384,1.0148,1.0173,0.9585,0.8882,0.9139,0.9555,0.0,0.0,0.0,0.0,0.0,0.0,0.0,0.0,0.0,0.0,0.0,0.0,0.0,0.0,0.0,0.0,0.0,0.0,0.0,0.0,0.0,0.0,0.0,0.0,0.0,0.0,0.0,0.0,0.0,0.0,0.0,0.0,0.0,0.0,0.0,0.0,0.0,0.0,0.0,1.5477,1.558,0.0,0.0,0.0,0.0,1.548,1.607,1.7112,1.8731,1.8549,1.9281,2.1169,2.0122,1.951,1.9548,1.9329,1.8793,1.7978,1.7978,1.7988,1.8008,1.8008,1.8008,1.8076,1.8844,1.9222,1.9159,1.8541,1.7952,1.7357,1.7456,1.6886,1.6115,1.7097,1.7436,1.7615,0.0,0.0,0.0,0.0,0.0,0.0,0.0,0.2846,0.5428,0.6655,0.8293,0.9901,1.1347,1.2424,1.4225,1.7154,1.6356,1.5526,1.5071,1.2342,1.088,1.1205,0.8466,0.8682,1.2405,1.3271,1.4353,1.5698,1.3538,1.2139,1.1361,0.9755,0.9313,0.978,0.9186,0.9418,1.0294,1.0222,0.9817,0.9104,0.7386,0.4973,0.0,0.0,0.0,0.0,0.0,0.0,0.0,0.0,0.0,0.0,0.0,0.0,0.0,0.0,0.0,0.0,0.0,0.0,0.0,0.0,0.0,0.0,0.0,0.0,0.0,0.0,0.0,0.0,0.0,0.0,0.0,0.0,0.0,0.0,0.0,0.0,0.0,1.6596,1.6752,0.0,0.0,1.681,1.725,1.779,1.8681,1.9597,2.0564,2.0841,2.106,2.1148,2.1124,2.0825,2.0258,2.018,1.9683,1.8854,1.8854,1.8519,1.8008,1.8008,1.8008,1.8076,1.8911,1.9299,1.9354,1.9695,1.9519,1.9011,1.8817,1.8797,1.8856,1.8767,1.9018,1.9523,0.0,0.0,0.0,0.0,0.0,0.0,0.0,0.2407,0.4799,0.6414,0.882,1.1132,1.3063,1.4777,1.6876,1.9621,1.9013,1.812,1.7263,1.4264,1.263,1.2889,0.0,1.199,0.0,1.6114,1.616,1.7363,1.4238,1.233,1.152,0.9813,0.9072,0.912,0.8822,0.9058,0.9693,1.0588,1.0268,0.9261,0.8983,0.7145,0.4514,0.0,0.0,0.0,0.0,0.0,0.0,0.0,0.0,0.0,0.0,0.0,0.0,0.0,0.0,0.0,0.0,0.0,0.0,0.0,0.0,0.0,0.0,0.0,0.0,0.0,0.0,0.0,0.0,0.0,0.0,0.0,0.0,0.0,0.0,0.0,1.6422,1.746,1.7793,1.8003,1.8179,1.8706,1.9346,2.0087,2.0815,2.1455,2.202,2.2151,2.2028,2.1705,2.181,2.1616,2.1037,2.1049,2.059,1.9759,1.9431,1.8977,1.8462,1.8144,1.8008,1.8076,1.8911,1.9497,1.9759,2.0333,2.0768,2.093,2.0361,2.0474,2.0843,2.0354,2.0474,2.0937,0.0,0.0,0.0,0.0,0.0,0.0038,0.0135,0.1485,0.4254,0.911,1.0603,1.2161,1.4712,1.651,1.789,1.8789,1.8444,1.8367,1.8801,1.5142,1.2837,0.0,0.0,0.0,1.868,1.6963,1.6816,1.8424,1.463,1.2575,1.213,1.0877,0.924,0.7408,0.9246,0.9181,0.7819,0.9655,1.0491,1.0372,0.9011,0.8714,0.8791,0.0,0.0,0.0,0.0,0.0,0.0,0.0,0.0,0.0,0.0,0.0,0.0,0.0,0.0,0.0,0.0,0.0,0.0,0.0,0.0,0.0,0.0,0.0,0.0,0.0,0.0,0.0,0.0,0.0,0.0,0.0,0.0,0.0,1.6544,1.6572,1.7024,1.8179,1.8781,1.9321,1.9849,2.0413,2.1192,2.2259,2.2334,2.2573,2.304,2.2322,2.2261,2.3017,2.2322,2.1877,2.1939,2.1939,2.1491,2.0655,1.9748,1.9299,1.9299,1.8395,1.8008,1.8076,1.8911,1.9759,2.059,2.059,2.1604,2.3017,2.2187,2.1939,2.1939,2.1939,2.1939,2.1992,0.0285,0.0,0.0,0.0,0.0,0.0827,0.3328,0.3023,0.397,0.8093,1.0124,1.2131,1.4599,1.6875,1.8835,2.0332,2.0075,1.9703,1.9402,1.6002,1.4063,0.0,0.0,0.0,0.0,0.0,0.0,1.6676,1.41,1.2218,1.1124,1.074,0.9622,0.7949,0.8371,0.828,0.7695,0.7728,0.8151,0.8773,0.9621,0.9487,0.865,0.0,0.0,0.0,0.0,0.0,0.0,0.0,0.0,0.0,0.0,0.0,0.0,0.0,0.0,0.0,0.0,0.0,0.0,0.0,0.0,0.0,0.0,0.0,0.0,0.0,0.0,0.0,0.0,0.0,0.0,0.0,0.0,1.7354,1.7182,1.7827,1.8894,2.0413,2.0715,2.1179,2.2121,2.2359,2.2585,2.2887,2.2852,2.2662,2.2249,2.2002,2.2002,2.2199,2.2002,2.2199,2.2763,2.2763,2.2384,2.1553,2.0655,1.9879,1.9299,1.8395,1.8008,1.8076,1.8911,1.9431,1.9748,2.1037,2.1803,2.2199,2.2013,2.2261,2.2763,2.2763,2.2763,2.2798,0.1746,0.1317,0.1272,0.2,0.0942,0.0905,0.36,0.3773,0.5019,0.9015,1.0791,1.2707,1.5349,1.7596,1.9154,1.9715,1.9805,1.9119,1.7416,1.5112,0.0,0.0,0.0,0.0,0.0,0.0,0.0,1.6028,1.2387,1.0132,0.9329,0.9699,0.889,0.7123,0.7806,0.7522,0.65,0.6535,0.6907,0.7487,0.8537,0.877,0.8524,0.8397,0.7943,0.7453,0.8,0.8147,0.8268,0.9554,0.0,0.0,0.0,0.0,0.0,0.0,0.0,0.0,0.0,0.0,0.0,0.0,0.0,0.0,0.0,0.0,0.0,0.0,0.0,0.0,0.0,0.0,0.0,0.0,1.8235,1.8913,1.8447,1.8945,1.9874,2.1317,2.1493,2.192,2.3025,2.3078,2.3078,2.3078,2.3078,2.2763,2.1939,2.1877,2.1753,2.1365,2.1365,2.1753,2.2567,2.2249,2.199,2.1877,2.0655,1.9814,1.9299,1.8395,1.8008,0.0,1.8529,1.9177,1.9879,2.0526,2.1428,0.0,0.0,0.0,0.0,0.0,0.0,2.3078,0.3841,0.3225,0.3088,0.4807,0.2597,0.1074,0.2574,0.4103,0.6575,1.0703,1.1835,1.3369,1.6336,1.8141,1.8711,1.7625,1.8035,1.7063,1.4019,1.2986,0.0,1.4837,0.0,0.0,0.0,0.0,0.0,1.3914,0.9163,0.6846,0.6862,0.7986,0.7362,0.532,0.6987,0.6435,0.4301,0.5297,0.5728,0.5794,0.5973,0.699,0.8409,0.8055,0.8125,0.8444,0.8634,0.8618,0.8606,0.9647,0.0,0.0,0.0,0.0,0.0,0.0,0.0,0.0,0.0,0.0,0.0,0.0,0.0,0.0,0.0,0.0,0.0,0.0,0.0,0.0,0.0,0.0,0.0,0.0,1.9475,2.0503,1.9876,1.9798,2.02,2.1267,2.1443,2.1895,2.2937,2.304,2.3078,2.3078,2.3005,2.2628,0.0,0.0,0.0,0.0,0.0,2.091,2.1877,2.1101,2.1101,2.1877,2.0204,1.9431,1.9299,1.8395,1.8008,1.8008,1.8008,1.8911,2.0398,1.9694,2.0899,2.3078,2.3078,2.3027,2.299,2.3053,2.3027,0.0,0.4514,0.37,0.3366,0.4853,0.4559,0.4231,0.4542,0.4874,0.6348,0.9819,1.0852,1.2436,1.5502,1.6435,1.6396,1.5328,1.5073,1.413,1.2202,0.0,0.0,0.0,0.0,0.0,0.0,0.0,0.0,0.0451,0.193,0.2894,0.3368,0.6086,0.6046,0.3744,0.4497,0.3116,0.0288,0.1202,0.128,0.0912,0.2085,0.4778,0.8063,0.8001,0.8042,0.8292,0.9635,1.0096,1.0494,1.3203,1.3233,1.231,1.3697,0.0,0.0,0.0,0.0,0.0,0.0,0.0,0.0,0.0,0.0,0.0,0.0,0.0,0.0,0.0,0.0,0.0,0.0,0.0,0.0,1.8601,1.9397,1.9943,1.9825,1.9798,2.0062,2.074,2.1217,2.1744,2.241,2.2874,2.3078,2.3078,2.2506,2.1753,2.091,2.0204,0.0,1.9562,1.9562,2.0333,2.1877,2.1753,2.1753,2.1877,0.0,0.0,1.9299,1.8395,1.8008,1.8008,1.8008,1.8596,1.9562,2.0139,2.1416,2.3078,2.3078,2.2862,2.2523,2.2915,2.2862,2.2472,0.4489,0.4299,0.4188,0.4966,0.5096,0.5108,0.5096,0.5072,0.6058,0.8845,0.9817,1.1187,1.3681,1.4005,1.3578,1.2399,1.0229,0.8722,0.0,0.0,0.0,0.0,0.0,0.0,0.0,0.0,0.0,-0.3231,-0.1834,-0.0909,-0.0372,0.2621,0.28,0.0596,0.055,-0.0828,-0.3087,-0.2949,-0.2711,-0.2276,-0.1152,0.0999,0.3727,0.539,0.6237,0.6833,0.8099,0.914,1.0186,1.2234,1.2923,1.3146,1.443,1.3852,1.2395,0.0,0.0,0.0,0.0,0.0,0.0,0.0,0.0,0.0,0.0,0.0,0.0,0.0,0.0,1.7604,0.0,0.0,1.9293,1.9298,1.9847,2.0171,1.9863,1.9798,2.0012,2.0655,2.1154,2.1707,2.2259,2.2811,2.3078,2.3078,2.2763,2.1928,2.0655,2.0204,1.9759,1.9299,1.9299,2.0139,2.1877,2.1491,2.1491,2.1877,2.059,1.9694,1.9299,1.8395,1.8269,1.8654,1.8654,1.9365,2.0655,2.1479,2.2372,2.3078,2.3078,2.2799,2.2347,2.2623,2.2372,2.1895,0.4347,0.4787,0.4962,0.5085,0.5101,0.5097,0.5093,0.5037,0.5774,0.7904,0.8653,0.9662,1.1437,1.1558,1.082,0.9079,0.5394,0.0,0.0,0.0,0.0,0.0,0.0,0.0,0.0,0.0,0.0,-0.6296,-0.5799,-0.514,-0.4333,-0.1598,-0.1433,-0.3481,-0.409,-0.5216,-0.6719,-0.6911,-0.6279,-0.5081,-0.4068,-0.2827,-0.1304,0.1542,0.3418,0.4653,0.5894,0.7251,0.8665,1.0027,1.1388,1.2715,1.4041,1.4238,1.3746,1.2276,1.181,0.0,0.0,0.0,0.0,0.0,0.0,0.0,0.0,0.0,1.7452,1.7151,1.7942,1.8617,1.8262,1.9168,1.997,1.9839,2.0247,2.0396,1.9901,1.9798,1.9974,2.0492,2.0991,2.1543,2.2096,2.2648,2.2965,2.3065,2.2944,2.2187,2.0655,2.059,2.0204,1.9299,1.9299,2.0139,2.1877,2.1049,2.1049,2.1877,2.0462,1.9694,1.9562,1.8854,1.8921,1.9562,1.9748,2.059,2.1939,2.2763,2.3078,2.3078,2.3078,2.2799,2.2309,2.2309,2.1895,2.133,0.4682,0.4885,0.5003,0.5089,0.5101,0.5071,0.5012,0.5,0.5591,0.721,0.7281,0.7693,0.9039,0.9744,0.8776,0.5401,0.2241,0.0,0.0,0.0,0.0,0.0,0.0,0.0,0.0,0.0,0.0,-1.7402,-1.3569,-1.0665,-0.8644,-0.6318,-0.63,-0.8338,-0.8872,-1.0073,-1.1544,-1.0425,-0.958,-0.8799,-0.6884,-0.527,-0.3882,-0.2853,-0.0698,0.2062,0.4584,0.5492,0.6085,0.9373,1.0554,1.1039,1.3483,1.4063,1.3838,1.3818,0.0,1.2775,1.2962,1.3956,0.0,1.6548,1.6308,1.6814,0.0,0.0,1.8244,1.9945,2.0387,2.0319,1.9681,2.0175,2.0476,1.9902,1.9863,1.9901,1.9798,1.9798,1.9823,1.9886,2.0401,2.0978,2.1531,2.2083,2.2611,2.304,2.2445,2.1616,2.0655,2.059,2.0204,1.9299,1.9299,2.0139,2.1877,2.1049,2.1049,2.1877,2.169,2.1164,2.0462,2.0333,2.0333,2.0526,2.129,2.1753,2.1939,2.2763,2.3078,2.3078,2.3078,2.2799,2.2309,2.2309,2.1656,2.0806,0.4745,0.4913,0.4707,0.3752,0.4435,0.5071,0.5015,0.4965,0.5364,0.6568,0.6414,0.6468,0.7151,0.6726,0.5468,0.3134,0.0705,0.0,-0.513,0.0,0.0,0.0,0.0,0.0,0.0,0.0,0.0,-2.0407,-1.6623,-1.4026,-1.2503,-1.0504,-1.0466,-1.2122,-1.3105,-1.3817,-1.417,-1.3627,-1.2644,-1.1262,-0.919,-0.7586,-0.6233,-0.4588,-0.2684,-0.0635,0.152,0.3473,0.0,0.0,0.8676,1.0352,1.1624,1.2422,1.2948,1.3003,1.3011,0.0,1.5593,0.0,0.0,0.0,1.8057,1.803,1.9879,1.9893,1.9653,2.0107,2.0536,2.0461,1.9359,1.9724,1.9825,0.0,1.8874,1.898,1.8555,1.8501,1.8501,1.8501,1.8755,1.9557,2.1337,2.1626,2.2038,2.3027,2.2823,2.2249,2.1428,2.1365,2.1175,2.0846,2.0333,2.0655,2.1877,2.1553,2.1302,2.1164,2.1164,2.0719,1.9824,1.9299,1.9617,2.0655,2.2002,2.258,2.2628,2.2944,2.3078,2.3078,2.3078,2.2799,2.2272,2.1945,2.1343,2.0668,0.4395,0.4472,0.4267,0.3367,0.4238,0.505,0.501,0.4947,0.5119,0.5717,0.5497,0.5304,0.5316,0.4254,0.2962,0.1531,0.0015,-0.2319,0.0,-0.8651,0.0,0.0,0.0,0.0,0.0,0.0,0.0,-2.1482,-1.8624,-1.6847,-1.5996,-1.4518,-1.4491,-1.5753,-1.6849,-1.6926,-1.6188,-1.6059,-1.4846,-1.2898,-1.0989,-0.9278,-0.7593,-0.5478,-0.3749,-0.2164,-0.0416,0.1865,0.0,0.0,0.68,0.9081,0.9704,1.0647,1.163,1.2107,1.2725,1.3773,1.6032,0.0,0.0,1.8395,1.8771,1.8539,1.8708,1.935,1.9759,1.9307,1.9573,1.9594,1.8596,1.8821,1.8821,1.7786,1.8058,1.8232,1.7688,1.7578,1.7578,1.7578,1.7413,1.8249,2.0613,2.0945,2.1464,2.2701,2.2944,2.2763,2.1939,2.2125,2.2137,2.1877,2.1302,2.1365,2.2199,2.2002,2.1678,2.129,2.1037,2.0655,2.0009,1.9365,1.9748,2.1037,2.2494,2.3078,2.3078,2.3078,2.3078,2.3078,2.3078,2.2887,2.2472,2.192,2.1368,2.0869,0.348,0.3365,0.3786,0.4845,0.5014,0.4997,0.4995,0.4938,0.4809,0.4582,0.4375,0.4022,0.3442,0.2939,0.2048,0.0573,0.0156,-0.1543,-0.5091,-0.8136,0.0,0.0,0.0,0.0,0.0,0.0,0.0,-2.1868,-2.0365,-1.9448,-1.9146,-1.8429,-1.8586,-1.9468,-1.9958,-1.9375,-1.7973,-1.7396,-1.5806,-1.3554,-1.2192,-1.0015,-0.7452,-0.5995,-0.4095,-0.1993,-0.0382,0.0,0.0,0.0,0.5291,0.6546,0.7927,0.8942,0.0,1.174,1.2943,1.3528,0.0,0.0,1.5659,1.6953,1.7466,1.7804,1.8472,1.8116,1.7709,1.7665,1.7665,1.7677,1.7633,1.7633,1.7633,1.7633,1.7633,1.7633,1.7578,1.7578,1.7578,1.7578,1.6978,1.7241,0.0,1.996,2.0819,2.1868,2.2628,2.2763,2.1939,2.2641,2.2702,2.1939,2.1877,2.2261,2.3078,2.2322,2.2261,2.3005,2.2261,2.1815,2.1815,2.1815,2.1815,2.1877,2.2763,2.3078,2.3078,2.3078,2.3078,2.3078,2.3078,2.3065,2.2977,2.2485,2.1945,2.138,0.4457,0.4471,0.4633,0.4977,0.5019,0.497,0.4885,0.4805,0.4678,0.4466,0.2662,0.0,0.0,0.0,0.0,0.0,0.0121,-0.1465,-0.4317,-0.7739,0.0,0.0,0.0,0.0,0.0,0.0,0.0,-2.3296,-2.2665,-2.2012,-2.134,-2.0728,-2.0299,-2.0058,-2.023,-1.9462,-1.8052,-1.7477,-1.6102,-1.4204,-1.2435,-1.0268,-0.7961,-0.6178,-0.3936,-0.1673,0.0,0.0,0.0,0.0,0.0,0.0,0.688,0.7734,0.8807,1.0947,1.2375,1.3489,0.0,0.0,1.6045,1.6237,1.6545,1.6714,1.6385,1.6182,1.6033,1.6033,1.6033,1.5997,1.6048,1.6455,1.6634,1.6234,1.6528,1.6698,1.6187,1.614,1.614,1.614,1.5911,0.0,0.0,0.0,0.0,2.1732,2.2125,2.2445,2.2689,2.2944,2.3005,2.2702,2.2199,2.2002,2.2322,2.2075,2.1753,2.1416,2.059,1.9879,1.9299,1.9879,2.0462,2.1101,2.1939,2.2628,2.3078,2.3078,2.3078,2.3078,2.3078,2.3078,2.3053,2.2924,2.2736,2.2447,0.5025,0.5062,0.5085,0.5016,0.5006,0.0,0.0,0.0,0.0,0.0,0.0,0.0,0.0,0.0,0.0,0.0,0.0,-0.0563,-0.2801,0.0,0.0,0.0,0.0,0.0,0.0,0.0,0.0,-2.2538,-2.2235,-2.2372,-2.2888,-2.2099,-2.1318,-2.055,-2.0382,-1.9462,-1.8052,-1.7477,-1.617,-1.4305,-1.2044,-0.9859,-0.7623,-0.5238,-0.2981,0.0,0.0,0.0,0.0,0.0,0.0,0.5379,0.6067,0.7415,0.9053,1.0641,1.189,1.3037,1.426,1.4655,1.4707,1.484,1.4894,1.4656,1.3902,1.3723,1.36,1.3345,1.3534,1.3789,1.4081,1.4848,1.5501,1.5645,1.6187,1.6416,1.5939,1.5879,1.5771,1.5449,1.541,0.0,0.0,0.0,0.0,2.1028,2.1646,2.2261,2.3078,2.3078,2.3078,2.3078,2.258,2.2187,2.1877,2.2199,2.1865,2.1037,2.0204,1.9299,1.8462,1.9044,1.9628,2.0204,2.1365,2.2187,2.2689,2.3005,2.3078,2.3078,2.3078,2.3078,2.3078,2.3078,2.3078,2.294,0.5095,0.5094,0.5089,0.0,0.0,0.0,0.0,0.0,0.0,0.0,0.0,0.0,0.0,0.0,0.0,0.0,0.0,0.0,-0.069,0.0,0.0,0.0,0.0,0.0,0.0,0.0,0.0,0.0,-1.93,-2.0577,-2.3381,-2.2327,-2.1412,-2.0703,-2.0282,-1.9304,-1.7873,-1.7263,-1.5816,-1.3693,-1.114,-0.8844,-0.6569,-0.3366,0.0,0.0,0.0,0.0,0.0,0.0,0.0,0.5143,0.576,0.8026,1.0527,1.0919,1.1612,1.2348,1.2769,1.2361,1.2025,1.2784,1.2405,1.1671,1.0928,1.0729,1.0539,0.9812,1.027,1.0948,0.0,0.0,1.4163,1.5731,1.6348,1.6597,1.6597,1.6597,1.6357,0.0,0.0,0.0,0.0,0.0,0.0,1.9649,0.0,2.2187,2.3065,2.3078,2.3078,2.3078,2.3078,2.275,2.1939,2.2702,2.2702,2.1877,2.1037,2.0139,1.9299,1.9233,1.9243,1.9365,2.1037,2.1815,2.1951,2.2689,2.3078,2.3078,2.3078,2.3078,2.3078,2.3078,2.3078,2.3002,0.0,0.0,0.0,0.0,0.0,0.0,0.0,0.0,0.0,0.0,0.0,0.0,0.0,0.0,0.0,0.0,0.0,0.0,0.0,0.0,0.0,0.0,0.0,0.0,0.0,0.0,0.0,0.0,0.0,-1.7841,-1.8202,-1.8168,-1.7679,-1.6838,-1.7202,-1.6667,-1.5379,-1.495,-1.3531,-1.1407,0.0,-0.7666,-0.5262,0.0,0.0,0.0,0.0,0.0,0.0,0.0,0.5838,0.8303,0.9109,1.0307,1.1614,1.2491,1.2746,1.2759,1.2826,1.2404,1.1737,1.0508,0.9491,0.8543,0.7752,0.7145,0.6793,0.6918,0.7074,0.7729,0.0,0.0,0.0,1.3897,1.5059,0.0,1.5752,1.5752,0.0,1.5439,0.0,1.5459,1.5566,1.5977,0.0,0.0,1.9972,2.1553,2.3005,2.3078,2.3078,2.3078,2.3078,2.3005,2.2823,2.3017,2.2702,2.1877,2.1037,2.0139,1.9309,1.8664,1.8664,1.9299,1.9748,2.0719,2.1939,2.2125,2.2567,2.3078,2.3078,2.3078,2.3078,2.3078,2.3078,2.3053,0.0,0.0,0.0,0.0,0.0,0.0,0.0,0.0,0.0,0.0,0.0,0.0,0.0,0.0,0.0,0.0,0.0,0.0,0.0,0.0,0.0,0.0,0.0,0.0,0.0,0.0,0.0,0.0,0.0,0.0,0.0,-1.5142,-1.4714,-1.4053,-1.4294,-1.3805,-1.2814,0.0,0.0,0.0,0.0,0.0,0.0,0.0,0.0,0.0,0.0,0.0,0.0,0.0,0.0,0.9174,0.9909,1.0615,1.1216,1.1677,1.1666,1.1323,1.031,0.9844,0.9207,0.7526,0.6653,0.6014,0.5223,0.4732,0.4442,0.458,0.499,0.0,0.8334,0.0,0.0,0.0,0.0,0.0,1.5986,1.5996,1.585,0.0,1.541,0.0,1.541,1.5811,1.6658,0.0,1.9091,2.0419,2.1916,2.199,2.199,2.199,2.199,2.199,2.199,2.199,2.2002,2.1877,2.1037,2.0333,1.9814,1.8586,1.8269,1.8721,0.0,2.0074,2.1365,2.1753,2.2384,2.3078,2.3078,2.3078,2.3078,2.3078,2.3078,2.3078,0.0,0.0,0.0,0.0,0.0,0.0,0.0,0.0,0.0,0.0,0.4719,0.0,0.0,0.0,0.0,0.0,0.0,0.0,0.0,0.0,0.0,0.0,0.0,0.0,0.0,0.0,0.0,0.0,0.0,0.0,0.0,0.0,0.0,0.0,0.0,0.0,0.0,0.0,0.0,0.0,0.0,0.0,0.0,0.0,0.0,0.0,0.0,0.0,0.0,0.0,0.7208,0.8741,0.917,0.9659,0.9977,0.9565,0.9354,0.8778,0.6886,0.6212,0.5788,0.4555,0.4123,0.3785,0.3145,0.2983,0.2906,0.281,0.0,0.5097,0.7607,1.0079,1.2521,1.4746,0.0,1.7093,1.6631,1.6475,1.6211,1.5498,1.541,1.541,1.541,1.5752,1.6517,1.7686,1.8135,1.8998,2.0493,2.059,2.059,2.059,2.059,2.059,2.059,2.059,2.1049,2.1877,2.1037,2.059,2.0526,1.8911,1.8144,1.8076,0.0,0.0,2.0655,2.1553,2.2384,2.3078,2.3078,2.3078,2.3078,2.3078,2.3078,2.3078,0.0,0.0,0.0,0.0,0.0,0.0,0.0,0.0,0.0,0.0,0.6043,0.3272,0.0,0.0,0.0,0.0,0.0,0.0,0.0,0.0,0.0,0.0,0.0,0.0,0.0,0.0,0.0,0.0,0.0,0.0,0.0,0.0,0.0,0.0,0.0,0.0,0.0,0.0,0.0,0.0,0.0,0.0,0.0,0.0,0.0,0.0,0.0,0.0,0.0,0.0,0.604,0.843,0.7894,0.8227,0.8664,0.7948,0.6984,0.6068,0.569,0.4757,0.3805,0.3531,0.255,0.1641,0.1534,0.1325,0.0,0.0,0.2621,0.3798,0.6342,0.8045,0.9931,1.2593,0.0,0.0,0.0,0.0,1.5195,0.0,0.0,0.0,0.0,0.0,0.0,0.0,0.0,0.0,2.0482,2.059,2.059,2.059,2.059,2.059,2.059,2.059,2.1049,2.1877,2.1037,2.059,2.059,1.9562,1.8654,1.8076,0.0,0.0,2.0655,2.1553,2.2384,2.3078,2.3078,2.3078,2.3078,2.3078,2.3078,2.3078,0.0,0.0,0.0,0.0,0.0,0.0,0.0,0.7773,0.8648,1.2162,1.0273,0.8527,0.8364,0.6099,0.4596,0.0,0.0,0.0,0.0,0.0,0.0,0.0,0.0,0.0,0.0,0.0,0.0,0.0,0.0,0.0,0.0,0.0,0.0,0.0,0.0,0.0,0.0,0.0,0.0,0.0,0.0,0.0,0.0,0.0,0.0,0.0,0.0,0.0,0.0,0.0,0.2071,0.2093,0.2626,0.3363,0.391,0.2902,0.2609,0.2531,0.2342,0.1951,0.1607,0.1556,0.106,0.0599,0.0829,0.0,0.0,0.0,0.3212,0.4477,0.7004,0.0,0.0,0.0,0.0,0.0,0.0,0.0,0.0,0.0,0.0,0.0,0.0,0.0,0.0,0.0,0.0,0.0,0.0,1.9107,1.9243,1.9243,1.9243,1.9243,1.9243,1.9694,2.0139,2.0526,2.059,2.0333,1.9944,1.9944,1.9497,1.8721,0.0,0.0,0.0,2.1753,2.2384,2.3078,2.3078,2.3078,2.3078,2.3078,2.3078,2.3078,0.0,0.0,0.0,0.0,0.0,0.0,0.0,0.9757,1.0004,1.397,1.4162,1.3406,1.2009,0.8356,0.5658,0.0,0.0,0.0,0.0,0.0,0.0,0.0,0.0,0.0,0.0,0.0,0.0,0.0,0.0,0.0,0.0,0.0,0.0,0.0,0.0,0.0,0.0,0.0,0.0,0.0,0.0,0.0,0.0,0.0,0.0,0.0,0.0,0.0,0.0,0.0,-0.1648,-0.4347,-0.3991,-0.2644,-0.138,-0.2549,-0.1978,-0.0959,-0.0955,-0.0598,-0.0167,0.0168,0.0224,0.0378,0.0929,0.1467,0.2182,0.342,0.4394,0.5689,0.8065,0.0,1.0875,0.0,1.4339,0.0,0.0,0.0,0.0,0.0,0.0,0.0,0.0,0.0,0.0,0.0,0.0,0.0,0.0,1.7832,1.8008,1.8008,1.8008,1.8008,1.8008,1.8654,1.9233,1.9562,2.0268,2.0333,1.9879,2.059,2.0398,1.9628,0.0,0.0,0.0,2.2075,2.2506,2.3078,2.3078,2.3078,2.3078,2.3078,2.3078,2.3078,0.0,0.0,0.0,0.0,0.0,0.0,0.0,1.0498,1.1815,1.7309,1.5164,1.2833,1.2058,1.0986,0.8854,0.0,0.0,0.0,0.0,0.0,0.0,0.0,0.0,0.0,0.0,0.0,0.0,0.0,0.0,0.0,0.0,0.0,0.0,0.0,0.0,0.0,0.0,0.0,0.0,0.0,0.0,0.0,0.0,0.0,0.0,0.0,0.0,0.0,0.0,0.0,0.0,-0.6392,-1.0688,-0.8791,-0.5241,-0.6348,-0.5423,-0.3728,-0.2391,-0.1552,-0.067,0.0671,0.1006,0.1239,0.2035,0.0,0.3749,0.4716,0.5641,0.6777,0.8521,0.0,0.0,0.0,0.0,1.3576,0.0,0.0,0.0,0.0,0.0,0.0,0.0,0.0,0.0,0.0,0.0,0.0,0.0,1.7988,1.8008,1.8008,1.8008,1.8008,1.8008,1.8076,1.8911,2.0462,2.059,2.0974,2.1678,2.1753,2.1302,2.0526,0.0,0.0,0.0,2.2702,2.3005,2.3078,2.3078,2.3078,2.3078,2.3078,2.3078,2.3078,0.0,0.0,0.0,0.0,0.0,0.0,1.2173,1.0667,1.0893,1.6247,1.5386,1.3571,1.1788,1.1887,1.0163,0.5312,0.0,0.0,0.0,0.0,0.0,0.0,0.0,0.0,0.0,0.0,0.0,0.0,0.0,0.0,0.0,0.0,0.0,0.0,0.0,0.0,0.0,0.0,0.0,0.0,0.0,0.0,0.0,0.0,0.0,0.0,0.0,0.0,0.0,0.0,0.0,0.0,-1.1989,-1.1761,-0.9668,-0.941,-0.8166,-0.6335,-0.3682,-0.2364,-0.1283,0.0614,0.1118,0.1401,0.2539,0.3484,0.4477,0.5634,0.669,0.7799,0.8984,0.9343,0.9995,0.0,0.0,0.0,1.4622,0.0,0.0,0.0,0.0,0.0,0.0,0.0,0.0,0.0,0.0,0.0,0.0,0.0,1.8008,1.8008,1.8008,1.8008,1.8008,1.8008,1.8596,1.9814,2.0333,2.0782,2.1175,2.2187,2.2187,0.0,0.0,0.0,0.0,2.2944,2.3078,2.3078,2.3078,2.3078,2.3078,2.3078,2.3078,2.3078,0.0,0.0,0.0,0.0,0.0,0.7545,1.2654,1.0346,0.9731,1.4543,1.4218,1.2904,1.1293,1.1174,0.9872,0.6547,0.548,0.0,0.0,0.0,0.0,0.0,0.0,0.0,0.0,0.0,0.0,0.0,0.0,0.0,0.0,0.0,0.0,0.0,0.0,0.0,0.0,0.0,0.0,0.0,0.0,0.0,0.0,0.0,0.0,0.0,0.0,0.0,0.0,0.0,0.0,-0.5803,-1.0299,-1.1441,-1.1134,-1.1277,-0.991,-0.774,-0.4707,-0.3043,-0.1594,0.077,0.1484,0.2009,0.343,0.4515,0.5617,0.6844,0.7888,0.8851,0.9687,0.9906,1.0314,1.1334,0.0,1.3122,1.4197,1.4783,0.0,0.0,0.0,0.0,0.0,0.0,0.0,0.0,0.0,0.0,0.0,0.0,1.8008,1.8008,1.8008,1.8008,1.8008,1.8008,1.8596,1.9694,2.0333,2.0846,2.1353,2.2567,2.2823,0.0,0.0,0.0,0.0,2.3078,2.3078,2.3078,2.3078,2.3078,2.3078,2.3078,2.3078,2.3078,0.0,0.0,0.0,0.0,0.0,0.0,1.1563,0.9477,0.8808,1.2977,1.1315,1.0002,1.0648,0.8652,0.7857,0.9324,0.6722,0.0,0.0,0.0,0.0,0.0,0.0,0.0,0.0,0.0,0.1258,0.0782,0.1652,0.0,0.0,0.0,0.0,0.0,0.0,0.0,0.0,0.0,0.0,0.0,0.0,0.0,0.0,0.0,0.0,0.0,0.0,0.0,0.0,0.0,0.0,0.0,0.0,-0.7271,-0.849,-1.1792,-1.0479,-0.7451,-0.5374,-0.3437,-0.1381,0.1328,0.2432,0.3288,0.4894,0.6311,0.7541,0.8481,0.9277,1.0008,1.0763,1.0619,1.0569,1.1136,1.1443,0.0,1.5304,0.0,0.0,0.0,0.0,0.0,0.0,0.0,0.0,0.0,0.0,0.0,0.0,0.0,1.8008,1.8008,1.8008,1.8008,1.8008,1.8008,1.8854,2.059,2.059,2.1479,2.3078,2.3078,0.0,0.0,0.0,0.0,0.0,2.3078,2.3078,2.3078,2.3078,2.3078,2.3078,2.3078,2.3078,2.3078,0.0,0.0,0.0,0.0,0.0,0.0,0.0,0.7267,0.6686,0.8595,0.7787,0.753,0.8851,0.7464,0.7128,0.88,0.6481,0.0,0.0,0.0,0.0,0.0,0.0,0.0,0.0,0.0,0.2427,0.2095,0.3236,0.375,0.3631,0.3669,0.0,0.0,0.0,0.0,0.0,0.0,0.0,0.0,0.0,0.0,0.0,0.0,0.0,0.0,0.0,0.0,0.0,0.0,0.0,0.0,0.0,0.0,0.0,-0.6628,-0.724,-0.6883,-0.4134,-0.2842,-0.1612,0.1488,0.2625,0.3481,0.5464,0.6695,0.7757,0.8828,0.9768,1.0579,1.1084,1.1395,1.2057,1.3493,1.4223,0.0,0.0,0.0,0.0,0.0,0.0,0.0,0.0,0.0,0.0,0.0,0.0,0.0,0.0,0.0,0.0,1.7998,1.8008,1.8008,1.8008,1.8596,1.9431,2.059,2.1164,2.2063,2.3078,0.0,0.0,0.0,0.0,0.0,0.0,2.3078,2.3078,2.3078,2.3078,2.3078,2.3078,2.3078,2.3078,2.3078,0.0,0.0,0.0,0.0,0.0,0.0,0.0,0.5589,0.4957,0.5835,0.5225,0.5595,0.7947,0.646,0.624,0.8686,0.6311,0.0,0.0,0.0,0.0,0.0,0.0,0.0,0.0,0.2969,0.3069,0.3305,0.4626,0.5195,0.5039,0.5734,0.5372,0.4089,0.3479,0.0,0.0,0.0,0.0,0.0,0.0,0.0,0.4369,0.0,0.0,0.0,0.0,0.0,0.0,0.0,0.0,0.0,0.0,0.0,0.0,0.0,-0.2792,-0.3605,-0.2399,-0.1867,-0.0927,0.1941,0.3092,0.4037,0.5914,0.7265,0.8413,0.9544,1.0478,1.1256,1.1803,1.2071,1.2685,1.4139,1.4341,0.0,0.0,0.0,0.0,0.0,0.0,0.0,0.0,0.0,0.0,0.0,0.0,0.0,0.0,0.0,0.0,1.8008,1.8008,1.8008,1.8008,1.8529,1.9431,2.059,2.1175,2.199,2.3078,0.0,0.0,0.0,0.0,0.0,0.0,2.3078,2.3078,2.3078,2.3078,2.3078,2.3078,2.3078,2.3078,2.3078,0.0,0.0,0.0,0.0,0.0,0.0,0.0,0.4525,0.3806,0.4547,0.3691,0.426,0.7497,0.5483,0.523,0.8532,0.0,0.0,0.0,0.0,0.0,0.0,0.0,0.0,0.0,0.3051,0.3388,0.4366,0.5834,0.6269,0.571,0.8037,0.7386,0.4265,0.4835,0.4172,0.2607,0.0,0.0,0.0,0.0,0.3405,0.0,0.0,0.0,0.0,0.0,0.0,0.0,0.0,0.0,0.0,0.0,0.0,0.0,0.0,0.0,0.0,0.0,-0.0276,0.0528,0.2659,0.3892,0.493,0.642,0.7983,0.0,1.0548,1.1278,1.2036,1.294,1.2822,1.2883,1.3751,1.289,0.0,0.0,0.0,0.0,0.0,0.0,0.0,0.0,0.0,0.0,0.0,0.0,0.0,0.0,0.0,0.0,0.0,1.8008,1.8008,1.8008,1.8076,1.8911,2.0526,2.0655,2.1479,2.3005,0.0,0.0,0.0,0.0,0.0,0.0,2.3078,2.3078,2.3078,2.3078,2.3078,2.3078,2.3078,2.3078,2.3078,0.0,0.0,0.0,0.0,0.0,0.0,0.0,0.0,0.0,0.0,0.4195,0.4334,0.4507,0.4202,0.4317,0.0,0.0,0.0,0.0,0.0,0.0,0.0,0.0,0.0,0.0,0.4509,0.5043,0.4982,0.7179,0.8238,0.8248,0.9086,0.8428,0.6517,0.6204,0.4861,0.2854,0.3294,0.0,0.0,0.4642,0.4778,0.0,0.0,0.0,0.0,0.3888,0.4351,0.0,0.0,0.0,0.0,0.0,0.0,0.0,0.0,0.4814,0.4716,0.4716,0.0,0.2233,0.3841,0.5061,0.6277,0.0,0.896,0.9982,0.0,0.0,0.0,0.0,1.4727,1.5138,1.7224,0.0,0.0,0.0,0.0,0.0,0.0,0.0,0.0,0.0,0.0,0.0,0.0,0.0,0.0,0.0,0.0,0.0,0.0,1.8008,1.8008,1.8008,1.8654,1.9177,1.9628,2.0974,2.1815,0.0,0.0,0.0,0.0,0.0,0.0,0.0,2.2823,2.3078,2.3078,2.3078,2.3078,2.3078,2.3078,2.3078,2.3078,0.0,0.0,0.0,0.0,0.0,0.0,0.0,0.0,0.0,0.0,0.0,0.0,0.0,0.0,0.0,0.0,0.0,0.0,0.0,0.0,0.0,0.0,0.0,0.0,0.3492,0.4768,0.5574,0.5828,0.7677,0.878,0.9196,0.9671,0.9046,0.7477,0.623,0.4877,0.357,0.4003,0.4897,0.601,0.5338,0.0,0.0,0.0,0.0,0.0,0.3836,0.4252,0.0,0.4892,0.5405,0.5937,0.0,0.0,0.0,0.0,0.71,0.7097,0.7242,0.5854,0.4635,0.5853,0.6842,0.7734,0.8672,0.9691,0.0,0.0,0.0,0.0,0.0,0.0,0.0,0.0,1.8761,0.0,0.0,0.0,0.0,0.0,0.0,0.0,0.0,0.0,0.0,0.0,0.0,0.0,0.0,0.0,0.0,0.0,0.0,1.8008,1.8008,1.8462,1.8911,1.9299,2.0268,2.091,0.0,0.0,0.0,0.0,0.0,0.0,2.2506,2.2944,2.3078,2.3078,2.3078,2.3078,2.3078,2.3078,2.3078,2.3078,0.0,0.0,0.0,0.0,0.0,0.0,0.0,0.0,0.0,0.0,0.0,0.0,0.0,0.0,0.0,0.0,0.0,0.0,0.0,0.0,0.0,0.0,0.0,0.367,0.4047,0.4898,0.5895,0.7074,0.8238,0.9082,0.9609,1.0343,0.9707,0.79,0.5936,0.4796,0.4346,0.4601,0.5648,0.7023,0.5753,0.0,0.0,0.0,0.0,0.0,0.0,0.0,0.0,0.5147,0.5714,0.6332,0.6833,0.0,0.0,0.0,0.0,0.0,0.8853,0.8009,0.7307,0.8063,0.8704,0.9253,0.9521,0.0,0.0,0.0,0.0,0.0,0.0,1.559,0.0,0.0,0.0,0.0,0.0,0.0,0.0,0.0,0.0,0.0,0.0,0.0,0.0,0.0,0.0,0.0,0.0,0.0,0.0,0.0,0.0,0.0,1.8008,1.8008,1.8395,1.911,1.9233,1.9694,2.0398,0.0,0.0,0.0,0.0,0.0,2.275,2.3005,2.3078,2.3078,2.3078,2.3078,2.3078,2.3078,2.3078,2.3078,0.0,0.0,0.0,0.0,0.0,0.0,0.0,0.0,0.0,0.0,0.0,0.0,0.0,0.0,0.0,0.0,0.0,0.0,0.0,0.0,0.0,0.0,0.0,0.4449,0.6503,0.6757,0.7638,0.9219,1.0429,1.1015,1.1018,1.2308,1.145,0.8733,0.7058,0.5638,0.4521,0.5333,0.6117,0.6776,0.0,0.0,0.0,0.0,0.0,0.0,0.0,0.0,0.0,0.5438,0.5875,0.6098,0.6785,0.0,0.0,0.0,0.0,0.0,1.1382,1.0913,0.9945,0.9548,0.9944,1.0638,1.1518,0.0,0.0,0.0,0.0,0.0,0.0,1.8898,1.9664,0.0,0.0,0.0,0.0,0.0,0.0,0.0,0.0,0.0,0.0,0.0,0.0,0.0,0.0,0.0,0.0,0.0,0.0,0.0,0.0,0.0,0.0,1.8008,1.8076,1.8202,1.8977,1.9365,1.9497,2.0268,0.0,0.0,0.0,0.0,2.1101,2.2494,2.3078,2.3078,2.3078,2.3078,2.3078,2.3078,2.3078,2.3078,0.0,0.0,0.0,0.0,0.0,0.0,0.0,0.0,0.0,0.0,0.0,0.0,0.0,0.0,0.0,0.0,0.0,0.0,0.0,0.0,0.0,0.0,0.0,0.577,0.7062,0.8226,0.9706,1.1492,1.2044,1.2446,1.2746,1.2246,1.0374,0.7464,0.6676,0.5805,0.4977,0.5617,0.6437,0.7292,0.0,0.0,0.0,0.0,0.0,0.0,0.0,0.0,0.0,0.0,0.5711,0.6503,0.713,0.0,0.0,0.0,0.0,0.0,1.0815,1.0671,1.0381,1.0935,1.1412,1.1899,0.0,0.0,0.0,0.0,0.0,0.0,0.0,0.0,1.967,2.1795,0.0,0.0,0.0,0.0,0.0,0.0,0.0,0.0,0.0,0.0,0.0,0.0,0.0,0.0,0.0,0.0,0.0,0.0,0.0,0.0,0.0,1.79,1.8008,1.8008,1.8395,1.8596,1.8596,1.8977,1.9243,0.0,0.0,2.1239,2.1428,2.2628,2.3078,2.3078,2.3078,2.3078,2.3078,2.3078,2.3078,2.3078,0.0,0.0,0.0,0.0,0.0,0.0,0.0,0.0,0.0,0.0,0.0,0.0,0.0,0.0,0.0,0.0,0.0,0.0,0.0,0.0,0.0,0.0,0.0,0.0,0.8758,1.0253,1.2024,1.4078,1.391,1.3827,1.3772,1.2098,0.9596,0.6515,0.6614,0.6196,0.5422,0.5837,0.665,0.7636,0.0,0.0,0.0,0.0,0.0,0.0,0.0,0.0,0.0,0.0,0.0,0.0,0.0,0.0,0.0,0.9786,0.9929,1.0107,1.0573,1.0494,1.0623,1.2277,1.2615,0.0,0.0,0.0,0.0,0.0,0.0,0.0,0.0,1.8432,0.0,0.0,0.0,0.0,0.0,0.0,0.0,0.0,0.0,0.0,0.0,0.0,0.0,0.0,0.0,0.0,0.0,0.0,0.0,0.0,0.0,0.0,0.0,1.7705,1.791,1.8008,1.8008,1.8008,1.8008,1.8008,1.8327,1.9044,2.0139,2.0974,2.1678,2.2689,2.3078,2.3078,2.3078,2.3078,2.3078,2.3078,2.3078,2.3078,0.0,0.0,0.0,0.0,0.0,0.0,0.0,0.0,0.0,0.0,0.0,0.0,0.0,0.0,0.0,0.0,0.0,0.0,0.0,0.0,0.0,0.0,0.0,0.0,1.37,1.3572,1.4707,1.727,1.6556,1.5207,1.3184,1.3027,1.0974,0.7427,0.8067,0.7335,0.5708,0.6174,0.6716,0.7218,0.6931,0.0,0.0,0.0,0.0,0.0,0.0,0.0,0.0,0.0,0.0,0.0,0.0,0.0,0.8976,0.9624,1.0509,1.1562,1.2804,1.2233,1.1763,1.3659,1.3088,0.0,1.4408,1.5005,0.0,1.7138,0.0,0.0,0.0,2.1726,0.0,0.0,0.0,0.0,0.0,0.0,0.0,0.0,0.0,0.0,0.0,0.0,0.0,0.0,0.0,0.0,0.0,0.0,0.0,0.0,0.0,0.0,0.0,0.0,1.7627,1.8008,1.8008,1.8008,1.8008,1.8008,1.8008,1.8202,1.989,2.0655,2.0846,2.2433,2.3078,2.3078,2.3078,2.3078,2.3078,2.3078,2.3078,2.3078,0.0,0.0,0.0,0.0,0.0,0.0,0.0,0.0,0.0,0.0,0.0,0.0,0.0,0.0,0.0,0.0,0.0,0.0,0.0,0.0,0.0,0.0,0.0,1.0828,1.4414,1.4695,1.5578,1.7115,1.4842,1.3097,1.1787,1.1132,0.9626,0.7386,0.7586,0.7231,0.6451,0.6633,0.7096,0.7673,0.7401,0.6645,0.0,0.0,0.0,0.0,0.0,0.0,0.0,0.0,0.5862,0.6907,0.7445,0.8456,0.9468,0.9741,1.0248,1.0959,1.1855,1.1756,1.1766,1.3304,1.3142,0.0,0.0,1.576,1.718,1.9135,1.9544,0.0,0.0,0.0,0.0,0.0,0.0,0.0,0.0,0.0,0.0,0.0,0.0,0.0,0.0,0.0,0.0,0.0,0.0,0.0,0.0,0.0,0.0,0.0,0.0,0.0,0.0,0.0,1.7461,1.7627,1.7881,1.8008,1.8008,1.8008,1.8008,1.8076,1.9814,2.059,2.0719,2.2433,2.3078,2.3078,2.3078,2.3078,2.3078,2.3078,2.3078,2.3078,0.0,0.0,0.0,0.0,0.0,0.0,0.0,0.0,0.0,0.0,0.0,0.0,0.0,0.0,0.0,0.0,0.0,0.0,0.0,0.3796,0.5286,0.848,0.0,1.1171,1.3696,1.3728,1.4149,1.5058,1.2628,1.108,1.0379,0.9833,0.9028,0.0,0.0,0.0,0.0,0.7244,0.7358,0.7811,0.7793,0.7014,0.0,0.0,0.0,0.0,0.0,0.0,0.0,0.0,0.6007,0.7259,0.7813,0.8763,0.9702,0.9894,1.0443,1.106,1.1561,1.1977,1.2441,1.3081,0.0,0.0,1.4811,1.5966,1.7522,1.9777,2.0428,0.0,0.0,0.0,0.0,0.0,0.0,0.0,0.0,0.0,0.0,0.0,0.0,0.0,0.0,0.0,0.0,0.0,0.0,0.0,0.0,0.0,0.0,0.0,0.0,0.0,0.0,0.0,1.7109,1.7393,1.7676,1.7881,1.8008,1.8008,1.8008,1.8076,1.9814,2.059,2.0719,2.2433,2.3078,2.3078,2.3078,2.3078,2.3078,2.3078,2.3078,2.3078,0.0,0.0,0.0,0.0,0.0,0.0,0.0,0.0,0.0,0.0,0.0,0.0,0.0,0.0,0.0,0.0,0.0,0.0,0.3788,0.4054,0.4832,0.6254,0.8813,1.073,1.1854,1.0488,1.0266,1.1234,1.0316,0.958,0.9119,0.957,0.0,0.0,0.0,0.0,0.0,0.0,0.0,0.7477,0.7982,0.7444,0.6339,0.0,0.0,0.0,0.0,0.0,0.0,0.0,0.6364,0.7135,0.8409,0.9101,0.954,1.0121,1.1214,1.2276,1.2466,1.3341,1.406,0.0,0.0,0.0,1.5621,1.5612,1.626,1.8871,0.0,0.0,0.0,0.0,0.0,0.0,0.0,0.0,0.0,0.0,0.0,0.0,0.0,0.0,0.0,0.0,0.0,0.0,0.0,0.0,0.0,0.0,0.0,0.0,0.0,0.0,0.0,0.0,1.6566,1.7373,1.7383,1.7607,1.8008,1.8008,1.8008,1.8076,1.9814,2.059,2.0719,2.2433,2.3078,2.3078,2.3078,2.3078,2.3078,2.3078,2.3078,2.3078,0.0,0.0,0.0,0.0,0.0,0.0,0.0,0.0,0.0,0.0,0.0,0.0,0.0,0.0,0.0,0.0,0.0,0.0,0.391,0.4145,0.5064,0.6852,0.9085,1.0409,1.0712,0.7393,0.6112,0.7014,0.6114,0.6513,0.8121,0.0,0.0,0.0,0.0,0.0,0.0,0.0,0.0,0.0,0.8502,0.7976,0.7192,0.0,0.0,0.0,0.0,0.0,0.0,0.0,0.0,0.0,0.8788,0.9789,1.0496,1.0341,1.1948,1.3735,1.3662,1.4602,0.0,1.5004,0.0,0.0,0.0,1.6598,0.0,0.0,0.0,0.0,0.0,0.0,0.0,0.0,0.0,0.0,0.0,0.0,0.0,0.0,0.0,0.0,0.0,0.0,0.0,0.0,0.0,0.0,0.0,0.0,0.0,0.0,0.0,0.0,0.0,0.0,0.0,1.6924,1.7236,1.7607,1.8008,1.8008,1.8008,1.8076,1.9166,2.0009,2.0719,2.2433,2.3078,2.3078,2.3078,2.3078,2.3078,2.3078,2.3078,2.3078,0.0,0.0,0.0,0.0,0.0,0.0,0.0,0.0,0.3203,0.3298,0.3229,0.3177,0.0,0.0,0.0,0.3177,0.3369,0.363,0.3939,0.4247,0.5116,0.6665,0.8948,0.9687,0.8604,0.5605,0.3763,0.3158,0.3507,0.5043,0.0,0.0,0.0,0.0,0.0,0.0,0.0,0.0,0.0,0.0,0.9026,0.8607,0.7966,0.0,0.0,0.0,0.0,0.0,0.0,0.0,0.0,0.0,0.8941,0.9982,1.089,1.0462,1.2048,1.3942,1.4047,1.5114,0.0,1.5672,1.561,1.5756,1.6045,0.0,0.0,0.0,0.0,0.0,0.0,0.0,0.0,0.0,0.0,0.0,0.0,0.0,0.0,0.0,0.0,0.0,0.0,0.0,0.0,0.0,0.0,0.0,0.0,0.0,0.0,0.0,0.0,0.0,0.0,0.0,0.0,0.0,1.7002,1.7432,1.8008,1.8327,1.8337,1.8076,1.9299,2.0333,2.1239,2.2567,2.3078,2.3078,2.3078,2.3078,2.3078,2.3078,2.3078,2.3078,0.0,0.0,0.0,0.0,0.0,0.0,0.0,0.3378,0.3306,0.3306,0.3306,0.3306,0.0,0.0,0.0,0.3323,0.3612,0.3833,0.3912,0.4402,0.5097,0.5968,0.8548,0.8836,0.6429,0.515,0.3134,0.0371,0.2342,0.4793,0.0,0.0,0.0,0.0,0.0,0.0,0.0,0.0,0.0,0.0,0.9517,0.9258,0.8717,0.8675,0.0,0.0,0.0,0.0,0.0,0.0,0.0,0.0,0.902,0.9839,1.0759,1.0442,1.1683,1.3282,1.3933,1.508,0.0,1.5655,1.6079,0.0,1.7545,0.0,0.0,0.0,0.0,0.0,0.0,0.0,0.0,0.0,0.0,0.0,0.0,0.0,0.0,0.0,0.0,0.0,0.0,0.0,0.0,0.0,0.0,0.0,0.0,0.0,0.0,0.0,0.0,0.0,0.0,0.0,0.0,0.0,0.0,1.7278,1.821,1.8957,1.8911,1.8337,2.0009,2.1175,2.1939,2.2763,2.3078,2.3078,2.3078,2.3078,2.3078,2.3078,2.3078,2.3078,0.0,0.0,0.0,0.0,0.0,0.0,0.334,0.3323,0.3306,0.3306,0.3306,0.3306,0.3306,0.3395,0.0,0.3459,0.3664,0.3877,0.4044,0.4931,0.565,0.6066,0.8397,0.9313,0.848,0.692,0.5149,0.3225,0.3388,0.4736,0.0,0.0,0.0,0.0,0.0,0.0,0.0,0.0,0.0,0.0,0.0,0.9754,0.9527,0.8702,0.8738,0.0,0.0,0.0,0.0,0.0,0.0,0.0,0.9607,0.9876,1.015,0.9981,1.1287,1.3106,1.45,1.5121,0.0,0.0,1.587,1.5842,1.6515,1.6199,0.0,0.0,0.0,0.0,0.0,0.0,0.0,0.0,0.0,0.0,0.0,0.0,0.0,0.0,0.0,0.0,0.0,0.0,0.0,0.0,0.0,0.0,0.0,0.0,0.0,0.0,0.0,0.0,0.0,0.0,0.0,0.0,1.7522,1.828,1.9316,1.9316,1.9562,2.0074,2.1164,2.1753,2.1939,2.2763,2.3078,2.3078,2.3078,2.3078,2.3078,2.3078,2.3078,2.3078,0.0,0.0,0.0,0.0,0.0,0.0,0.0,0.0,0.3707,0.3767,0.3554,0.3399,0.3436,0.3506,0.0,0.0,0.3734,0.3898,0.4038,0.512,0.6532,0.8322,0.9782,1.0161,0.9258,0.7907,0.6368,0.4629,0.4578,0.0,0.0,0.0,0.0,0.0,0.0,0.0,0.0,0.0,0.0,0.0,0.0,0.0,0.0,0.8713,0.8499,0.8786,0.8651,0.0,0.0,0.0,0.0,0.0,0.0,0.0,1.0125,0.9721,1.102,1.2969,1.4583,0.0,0.0,1.5833,0.0,1.5695,1.5236,0.0,0.0,0.0,0.0,0.0,0.0,0.0,0.0,0.0,0.0,0.0,0.0,0.0,0.0,0.0,0.0,0.0,0.0,0.0,0.0,0.0,0.0,0.0,0.0,0.0,0.0,0.0,0.0,0.0,1.5921,1.5921,1.6653,1.8094,1.8403,1.931,2.071,2.0211,2.0398,2.1239,2.169,2.1877,2.1939,2.2763,2.3078,2.3078,2.3078,2.3078,2.3078,2.3078,2.3078,2.3078,0.0,0.0,0.0,0.0,0.0,0.0,0.0,0.0,0.0,0.4402,0.4042,0.3743,0.3726,0.3746,0.3729,0.0,0.0,0.0,0.4035,0.5295,0.7474,1.0707,1.0988,1.0487,0.931,0.8091,0.6779,0.5379,0.5651,0.0,0.0,0.0,0.0,0.0,0.0,0.0,0.0,0.0,0.0,0.0,0.0,0.0,0.0,0.0,0.0,0.0,0.8325,0.8409,0.8518,1.0184,0.0,0.0,0.0,0.0,0.9898,0.9318,1.0431,1.2139,1.3575,0.0,1.5712,1.5399,1.5703,0.0,1.4323,0.0,0.0,0.0,0.0,0.0,0.0,0.0,0.0,0.0,0.0,0.0,0.0,0.0,0.0,0.0,0.0,0.0,0.0,0.0,0.0,0.0,0.0,0.0,0.0,0.0,0.0,0.0,0.0,0.0,1.6482,1.6652,1.7492,1.903,1.9387,2.0426,2.2063,2.1353,2.1428,2.2125,2.2125,2.2125,2.2137,2.2823,2.3078,2.3078,2.3078,2.3078,2.3078,2.3078,2.3078,2.3138,0.0,0.0,0.0,0.0,0.0,0.0,0.0,0.0,0.0,0.0,0.4845,0.4652,0.4247,0.4302,0.4212,0.3806,0.3956,0.41,0.4169,0.0,0.0,1.0537,0.9539,0.8874,0.8788,0.6779,0.5842,0.6077,0.6112,0.0,0.0,0.0,0.0,0.0,0.0,0.0,0.0,0.0,0.0,0.0,0.0,0.0,0.0,0.0,0.0,0.0,0.0,0.8693,0.9588,1.0868,1.1347,0.0,0.0,0.0,0.0,0.8251,0.8633,0.9283,0.0,0.0,1.3183,0.0,1.5092,1.5204,0.0,0.0,0.0,0.0,0.0,0.0,0.0,0.0,0.0,0.0,0.0,0.0,0.0,0.0,0.0,0.0,0.0,0.0,0.0,0.0,0.0,0.0,0.0,0.0,0.0,0.0,0.0,0.0,0.0,0.0,1.6492,1.7146,1.7909,1.8767,2.0385,2.1828,2.2944,2.2811,2.2823,2.2944,2.2944,2.2944,2.2944,2.3078,2.3078,2.3078,2.3078,2.3078,2.3078,2.3078,2.3078,2.3198,0.0,0.0,0.0,0.0,0.0,0.0,0.0,0.0,0.0,0.0,0.0,0.5046,0.5027,0.5077,0.503,0.4823,0.4715,0.4762,0.4972,0.5924,0.7533,0.9924,0.8939,0.8315,0.8315,0.6811,0.6305,0.6871,0.0,0.0,0.0,1.092,1.1542,0.0,0.0,0.0,0.0,0.0,0.0,0.0,0.0,0.0,0.0,0.0,0.0,0.0,0.0,0.0,0.8282,1.0618,1.1399,1.1215,1.0126,0.0,0.0,0.0,0.7691,0.8608,1.1205,1.3218,1.4675,0.0,1.5302,1.5081,0.0,0.0,0.0,0.0,0.0,0.0,0.0,0.0,0.0,0.0,0.0,0.0,0.0,0.0,0.0,0.0,0.0,0.0,0.0,0.0,0.0,0.0,0.0,0.0,0.0,1.4864,1.505,1.541,1.6151,0.0,1.7079,1.7852,1.8904,2.0293,2.1387,2.2372,2.3078,2.3078,2.3078,2.3078,2.3078,2.3078,2.3078,2.3078,2.3078,2.3078,2.3078,2.3078,2.3078,2.3078,2.3078,2.3125,0.0,0.0,0.0,0.0,0.0,0.0,0.0,0.0,0.0,0.0,0.0,0.5528,0.5665,0.0,0.0,0.0,0.5192,0.5248,0.5572,0.577,0.6808,0.8868,0.8249,0.772,0.7398,0.6621,0.6657,0.753,0.0,0.0,1.1974,1.0922,1.1271,0.0,1.1779,0.0,0.0,0.0,0.0,0.0,0.0,0.0,0.0,0.0,0.0,0.0,0.0,0.0,0.723,0.9989,1.1042,1.1018,1.0018,0.9565,0.0,0.0,0.0,0.0,0.0,0.0,1.464,1.5504,1.5325,1.4755,0.0,0.0,0.0,0.0,0.0,0.0,0.0,0.0,0.0,0.0,0.0,0.0,0.0,0.0,0.0,0.0,0.0,0.0,0.0,0.0,0.0,0.0,0.0,0.0,0.0,1.541,1.5468,1.57,1.6368,1.7146,1.7841,1.8608,1.9817,2.1493,2.1907,2.2472,2.3078,2.3078,2.3078,2.3078,2.3078,2.3078,2.3078,2.3078,2.3078,2.3078,2.3078,2.3078,2.3078,2.3078,2.3245,2.3424,0.0,0.0,0.0,0.0,0.0,0.0,0.0,0.0,0.0,0.0,0.0,0.6364,0.594,0.6103,0.5829,0.4747,0.4928,0.5248,0.5572,0.5727,0.6232,0.718,0.7059,0.0,0.5743,0.5556,0.6252,0.0,0.0,0.0,1.2259,1.1244,1.1747,1.3518,1.3086,1.2032,1.0556,0.0,0.0,0.0,0.0,0.0,0.0,0.0,0.0,0.0,0.0,0.0,0.0,0.9098,1.0059,1.0659,1.0767,1.0285,0.9222,0.0,0.0,0.0,0.0,1.0956,0.0,1.4184,0.0,0.0,0.0,0.0,0.0,0.0,0.0,0.0,0.0,0.0,0.0,0.0,0.0,0.0,0.0,0.0,0.0,0.0,0.0,0.0,0.0,0.0,0.0,0.0,0.0,0.0,1.541,1.541,1.57,1.6436,1.7146,1.7895,1.8661,1.9371,2.031,2.1493,2.1518,2.2096,2.3078,2.3078,2.3078,2.3078,2.3078,2.3078,2.3078,2.3078,2.3078,2.3078,2.3078,2.3078,2.3078,2.3078,2.3603,2.435,0.0,0.0,0.0,0.0,0.0,0.0,0.0,0.0,0.0,0.0,0.0,0.0,0.0,0.6113,0.5875,0.5113,0.5003,0.4873,0.4645,0.4802,0.5272,0.6102,0.6173,0.6054,0.5727,0.5676,0.0,0.0,0.0,0.8358,1.1082,1.1096,1.151,1.218,1.2027,1.1823,1.1445,1.0012,0.0,0.0,0.0,0.0,0.0,0.0,0.0,0.0,0.0,0.0,0.0,0.0,1.1522,1.0514,1.0804,0.0,0.0,0.0,0.0,0.0,0.0,0.0,0.0,1.3405,1.3588,0.0,0.0,0.0,0.0,0.0,0.0,0.0,0.0,0.0,0.0,0.0,0.0,0.0,0.0,0.0,0.0,0.0,0.0,0.0,0.0,0.0,0.0,0.0,0.0,0.0,1.6093,1.6093,1.6425,1.7191,1.7468,1.8178,1.9371,2.0057,2.074,2.1493,2.1845,2.241,2.3078,2.3078,2.3078,2.3138,2.3662,2.3884,2.3884,2.3884,2.3884,2.3884,2.3884,2.3531,2.3078,2.3078,2.3305,2.3649,0.0,0.0,0.0,0.8399,0.0,0.7526,0.6962,0.6874,0.0,0.0,0.0,0.0,0.0,0.0,0.0,0.5969,0.5728,0.533,0.4682,0.4657,0.5026,0.5828,0.6,0.6084,0.6098,0.0,0.0,0.0,0.0,0.0,0.0,0.0,1.0996,1.1598,1.1196,0.0,0.0,0.0,0.0,0.9451,0.0,0.0,1.0313,0.0,0.0,0.0,0.0,0.0,0.0,0.0,0.0,0.0,0.0,0.0,0.0,0.0,0.0,0.0,0.7622,0.0,0.0,0.0,0.0,0.0,0.0,0.0,0.0,0.0,0.0,0.0,0.0,0.0,0.0,0.0,0.0,0.0,0.0,0.0,0.0,0.0,0.0,0.0,0.0,0.0,0.0,0.0,0.0,0.0,1.6492,1.6708,1.7202,1.7961,1.8232,1.8821,1.9798,2.0614,2.1347,2.1856,2.2687,2.3199,2.3484,2.3484,2.3484,2.3531,2.406,2.4292,2.435,2.4567,2.4509,2.435,2.4567,2.4163,2.3484,2.3484,2.3649,2.393,0.0,0.9126,0.8962,0.8437,0.8336,0.8135,0.7518,0.7431,0.0,0.0,0.0,0.0,0.0,0.0,0.0,0.7196,0.704,0.6637,0.5759,0.5392,0.5549,0.6343,0.0,0.0,0.0,0.0,0.0,0.0,0.6499,0.0,0.0,0.0,1.0293,0.0,1.0685,1.0324,1.0692,0.0,1.0407,0.9991,0.0,1.0337,0.9744,0.0,0.0,0.0,1.4813,1.4409,0.0,0.0,0.0,0.0,0.0,0.0,0.0,0.0,0.0,0.0,0.0,0.0,0.0,0.0,0.0,0.0,0.0,0.0,0.0,0.0,0.0,0.0,0.0,0.0,0.0,0.0,0.0,0.0,0.0,0.0,0.0,0.0,0.0,0.0,0.0,0.0,0.0,0.0,0.0,0.0,1.6539,1.7246,1.795,1.8661,1.9423,1.9798,1.9798,2.1133,2.2061,2.2631,2.3917,2.4477,2.435,2.435,2.435,2.435,2.435,2.435,2.4408,2.5119,2.5007,2.4452,2.5119,2.4951,2.435,2.4292,2.4794,2.5398,0.9491,0.9878,0.9913,0.9528,0.9339,0.8956,0.8169,0.8039,0.0,0.0,0.0,0.0,0.0,0.0,0.0,0.0,0.7086,0.6607,0.6038,0.558,0.5508,0.5878,0.6532,0.7023,0.0,0.0,0.0,0.0,0.0,0.0,0.0,0.0,0.0,0.0,0.8633,0.8379,0.8383,0.8903,0.0,0.0,1.1585,1.2458,0.0,0.0,0.0,0.0,0.0,1.7781,0.0,0.0,1.6864,1.3609,0.0,0.0,0.0,0.0,0.0,0.0,0.5459,0.0,0.0,0.0,0.0,0.0,0.0,0.0,0.0,0.0,0.0,0.0,0.0,0.0,0.0,0.0,0.0,0.0,0.0,0.0,0.0,0.0,0.0,0.0,0.0,0.0,0.0,0.0,0.0,1.8112,1.8112,1.8768,1.9044,1.8715,1.9423,1.9798,1.9798,2.1511,2.2472,2.2644,2.4354,2.5122,2.5119,2.5119,2.5119,2.5119,2.5673,2.5892,2.5906,2.6122,2.6068,2.5906,2.6122,2.5728,2.5007,2.4509,2.4794,2.5398,0.9716,1.0072,1.0135,0.9931,0.9816,0.9544,0.9037,0.8889,0.8786,0.0,0.0,0.0,0.0,0.0,0.0,0.0,0.8482,0.7973,0.6878,0.6375,0.624,0.6562,0.7075,0.768,0.8448,0.0,0.0,0.0,0.0,0.0,0.0,0.0,0.0,0.0,0.0,0.0,0.0,0.0,0.0,0.0,1.199,0.0,0.0,1.6333,1.7262,0.0,0.0,0.0,1.9867,2.1093,1.9043,0.0,0.0,0.0,0.0,0.0,0.0,0.0,0.0,0.0,0.0,0.0,0.0,0.0,0.0,0.0,0.0,0.0,0.0,0.0,0.0,0.0,0.0,0.0,0.0,0.0,0.0,0.0,0.0,0.0,0.0,0.0,0.0,0.0,0.0,0.0,1.8058,1.8821,1.915,1.9579,1.9579,1.915,1.9579,1.9798,1.9798,2.1693,2.2798,2.3094,2.4966,2.5905,2.5837,2.5837,2.5837,2.5892,2.6283,2.6669,2.693,2.693,2.6774,2.651,2.6826,2.6496,2.5783,2.5398,2.5508,2.5837,0.0,0.9919,0.9957,0.9893,0.9969,1.0058,1.0081,0.9926,0.9975,0.0,0.0,0.0,0.0,0.0,0.0,0.0,1.044,0.9832,0.7971,0.7402,0.7333,0.7783,0.7827,0.8497,0.9912,0.842,0.0,0.0,0.0,0.0,0.0,0.0,0.0,0.0,0.0,0.0,0.0,0.0,0.0,0.9661,1.1864,1.2633,0.0,0.0,1.7915,0.0,2.0931,2.1512,2.0686,2.2141,2.0374,0.0,0.0,0.0,0.0,0.0,0.6953,0.0,0.0,0.0,0.0,0.0,0.0,0.0,0.0,0.0,0.0,0.0,0.0,0.0,0.0,0.0,0.0,0.0,0.0,0.0,0.0,0.0,0.0,0.0,0.0,0.0,0.0,0.0,0.0,1.7688,1.8394,1.9097,1.9747,1.9798,1.9798,1.9798,1.9798,1.9798,1.9798,2.1753,2.3025,2.3603,2.559,2.6485,2.6399,2.6471,2.6515,2.6515,2.6587,2.6982,2.7625,2.7625,2.7188,2.6669,2.7357,2.7203,2.6616,2.651,2.6563,2.6616,0.9741,1.011,1.021,0.9944,1.0482,1.1026,1.1244,1.1064,1.116,0.0,0.0,0.0,0.0,0.0,0.0,0.0,0.0,0.0,0.8296,0.7674,0.748,0.7793,0.8003,0.8987,1.0816,0.9638,0.0,0.0,0.0,0.0,0.0,0.0,0.0,0.0,0.0,0.0,0.0,0.0,0.0,0.989,1.079,0.0,1.5819,1.7661,1.8965,2.0032,2.1255,2.1792,2.1819,0.0,1.8973,1.6729,0.0,0.0,0.0,0.0,0.0,0.0,0.0,0.0,0.0,0.0,0.0,0.0,0.0,0.0,0.0,0.0,0.0,0.0,0.0,0.0,0.0,0.0,0.0,0.0,0.0,0.0,0.0,0.0,0.0,0.0,0.0,0.0,0.0,1.8489,1.915,1.9643,1.9798,1.9798,1.9798,1.9798,1.9798,1.9798,1.9798,2.1753,2.2754,2.2928,2.4868,2.5774,2.5812,2.6332,2.657,2.6599,2.7134,2.7473,2.7625,2.7625,2.7524,2.7408,2.756,2.7524,2.7306,2.6721,2.6878,2.7306,0.9817,1.016,1.0468,1.0716,1.0985,1.138,1.1926,1.1783,0.0,0.0,0.0,0.0,0.0,0.0,0.0,0.0,0.0,0.0,0.8763,0.8173,0.7846,0.78,0.8378,0.9267,1.0476,0.9734,0.9145,0.0,0.0,0.0,0.0,0.0,0.0,0.0,0.0,0.0,0.0,0.0,0.7037,0.935,1.1517,0.0,1.6305,1.7946,1.916,2.0048,2.0868,2.2061,2.302,2.1294,2.0176,0.0,0.0,1.5276,1.4025,0.0,0.9967,1.0161,0.0,0.0,0.0,0.8245,0.0,0.0,0.0,0.0,0.0,0.0,0.0,0.0,0.0,0.0,0.0,0.0,0.0,0.0,0.0,0.0,0.0,0.0,0.0,0.0,0.0,0.0,1.8967,1.9697,2.0357,2.062,2.0295,2.0295,2.0295,2.0295,1.9952,1.9952,2.0295,2.1542,2.238,2.2699,2.4309,2.5465,2.6108,2.6437,2.6767,2.7096,2.7475,2.7625,2.7625,2.7625,2.7625,2.7625,2.7625,2.7625,2.7575,2.7188,2.7306,2.7575,0.9995,1.021,1.0598,1.127,1.1376,1.1601,1.2285,1.2178,0.0,0.0,0.0,0.0,0.0,0.0,0.0,0.0,0.0,0.0,0.0,0.0,0.8427,0.8333,0.8896,0.9533,1.0224,0.9869,0.9211,0.8298,0.0,0.0,0.0,0.0,0.0,0.0,0.0,0.0,0.0,0.0,0.0,0.9723,0.0,1.4563,1.548,1.7827,1.8661,1.8792,2.0246,2.2009,2.3427,2.192,0.0,2.1388,1.8858,1.7819,0.0,0.0,0.0,0.0,0.0,0.0,0.0,0.0,0.0,0.7949,0.0,0.0,0.0,0.0,0.0,0.0,0.0,0.0,0.0,0.0,0.0,0.0,0.0,0.0,0.0,0.0,0.0,0.0,0.0,0.0,0.0,2.0521,2.0887,2.0975,2.0832,2.0795,2.0845,2.0979,2.0346,2.0295,2.0979,2.1582,2.215,2.2714,2.3844,2.4986,2.6019,2.6153,2.6572,2.72,2.732,2.7505,2.7625,2.7625,2.7625,2.7625,2.7625,2.7625,2.7625,2.7625,2.7625,2.7625,1.0322,1.0371,1.0424,1.0531,1.1293,1.2027,1.2335,1.2178,0.0,0.0,0.0,0.0,0.0,0.0,0.0,0.0,0.0,0.0,0.9254,0.0,0.0,1.0251,0.9577,0.9916,1.1467,1.1155,0.9892,0.7611,0.0,0.0,0.0,0.0,0.0,0.0,0.5806,0.0,0.0,0.0,1.0278,0.0,1.3871,1.3835,0.0,1.6534,1.7244,1.7149,1.9826,2.1197,2.1526,0.0,2.0894,2.1324,0.0,1.7568,0.0,0.0,0.0,0.0,0.0,0.0,0.0,0.0,1.1011,0.0,0.0,0.0,0.0,0.0,0.0,0.0,0.0,0.0,0.0,0.0,0.0,0.0,0.0,0.0,0.0,0.0,0.0,0.0,0.0,0.0,0.0,0.0,1.9159,1.9328,2.0716,2.0795,2.1028,2.1568,2.1028,2.0966,2.1615,2.2253,2.2632,2.2718,2.3393,2.3789,2.3954,2.4582,2.5211,2.5869,2.6452,2.7036,2.7625,2.7625,2.7625,2.7625,2.7625,2.7625,2.7625,2.7625,2.7625,2.7625,1.0396,1.0688,1.1028,1.1282,1.1412,1.159,1.1952,1.2697,0.0,0.0,0.0,0.0,0.0,0.0,0.0,0.0,0.0,1.1525,0.0,0.0,0.0,1.1042,1.0166,1.0065,1.0975,1.034,0.9109,0.7326,0.6528,0.0,0.0,0.0,0.0,0.0,0.6719,0.0,0.9453,0.0,0.0,0.0,0.0,0.0,0.0,1.7677,1.8191,1.8176,2.009,2.1328,2.2019,0.0,2.1501,0.0,0.0,0.0,0.0,0.0,0.0,0.0,0.0,0.0,0.0,0.0,0.0,0.0,0.8867,0.0,0.5941,0.0,0.0,0.0,0.0,0.0,0.0,0.0,0.0,0.0,0.0,0.0,0.0,0.0,0.0,0.0,0.0,0.0,0.0,0.0,0.0,1.9369,2.1208,2.1699,2.2035,2.2253,2.1677,2.1629,2.2253,2.2558,2.2694,2.2694,2.3334,2.3804,2.4208,2.4448,2.4986,2.563,2.5899,2.6393,2.7006,2.7006,2.723,2.7625,2.7625,2.781,2.8091,2.771,2.781,2.8091,1.064,0.0,1.1395,1.1643,1.1468,1.1315,1.1417,1.2471,0.0,0.0,0.0,0.0,1.3115,1.2051,0.0,0.0,0.0,1.2837,0.0,0.0,1.1715,1.2966,1.1248,0.0,0.0,1.0052,0.8556,0.6933,0.5801,0.0,0.0,0.0,0.0,0.0,0.0,0.8752,1.1251,0.0,0.0,1.2906,1.2246,1.4257,1.7721,1.8147,1.8582,1.9145,2.0165,2.1192,2.2103,2.2194,2.1689,0.0,2.359,0.0,0.0,0.0,0.0,0.0,1.4703,0.0,0.0,0.0,0.0,0.0,0.0,0.0,0.0,0.0,0.0,0.0,0.0,0.0,0.0,0.0,0.0,0.0,0.0,0.0,0.0,0.0,0.0,0.0,0.0,0.0,0.0,0.0,0.0,0.0,2.1728,2.2338,2.2716,2.292,2.2285,2.2285,2.292,2.2934,2.3009,2.3172,2.345,2.3936,2.4549,2.4387,2.4717,2.5345,2.5345,2.5798,2.6557,2.6771,2.723,2.7801,2.7622,2.8054,2.8638,2.7894,2.786,2.8222,1.1205,1.1296,1.1219,1.0976,1.1346,1.1469,1.0828,0.0,0.0,0.0,0.0,0.0,0.0,0.0,0.0,0.0,0.0,1.4012,1.388,0.0,1.376,0.0,0.0,1.1832,0.0,0.0,0.8743,0.6223,0.5475,0.0,0.0,0.0,0.0,0.0,0.0,0.9103,1.0824,1.2281,1.4697,1.7355,1.5837,1.6303,1.7778,0.0,1.7614,1.9046,1.961,0.0,0.0,2.0197,2.0807,0.0,0.0,0.0,0.0,0.0,0.0,0.0,0.0,0.0,0.0,1.2697,0.0,0.0,0.0,0.0,0.7051,0.0,0.0,0.0,0.0,0.0,0.0,0.0,0.0,0.0,0.0,0.0,0.0,0.0,0.0,0.0,0.0,0.0,0.0,0.0,0.0,0.0,0.0,2.2408,2.2778,2.3537,2.2965,2.2965,2.3551,2.3551,2.3837,2.4348,2.3837,2.3894,2.4379,2.3867,2.4014,2.4612,2.4612,2.5319,2.6454,2.7194,2.7776,2.8236,2.7717,2.8261,2.9225,2.8027,2.761,2.771,1.0977,1.1048,1.1015,1.092,1.0654,1.033,0.0,1.0899,0.0,0.0,0.0,0.0,0.0,0.0,1.3503,0.0,0.0,1.5785,1.5522,1.4578,0.0,0.0,0.0,1.3094,0.0,0.0,0.0,0.0,0.0,0.0,0.0,0.0,0.0,0.0,0.0,0.948,0.0,0.0,0.0,0.0,0.0,1.5963,1.5527,0.0,0.0,1.9046,1.961,2.0489,0.0,2.1599,2.1505,2.1569,2.2602,2.1541,2.0228,2.1655,2.1767,0.0,0.0,0.0,2.173,1.7126,0.0,0.0,0.0,0.0,0.0,0.0,0.0,0.0,0.0,0.0,0.0,0.0,0.0,0.0,0.0,0.0,0.0,0.0,0.0,0.0,0.0,0.0,0.0,0.0,0.0,0.0,0.0,2.3829,2.4328,2.5006,2.4246,2.3933,2.4116,2.3752,2.3879,2.4389,2.4241,2.4225,2.4389,2.4184,2.4043,2.3954,2.4313,2.4937,2.5772,2.6376,2.6781,2.7014,2.6851,2.681,2.6903,2.6947,2.7743,2.881,1.0866,0.0,1.0715,1.0715,1.0378,0.0,0.0,0.0,0.0,0.0,1.1535,0.0,1.2545,0.0,1.3571,0.0,1.565,1.612,1.6213,1.5696,0.0,1.7777,1.5778,0.0,0.0,0.0,0.0,0.0,0.0,0.6946,0.0,0.0,0.0,0.0,0.0,0.0,0.0,0.0,1.5,0.0,0.0,1.5637,0.0,0.0,1.821,0.0,0.0,2.0128,2.1192,2.1877,2.1877,2.1888,2.3337,2.257,2.1434,2.3083,2.3448,2.3485,2.428,2.4842,0.0,0.0,1.8249,0.0,0.4614,0.0,0.0,0.0,0.0,0.0,0.0,0.0,0.0,0.0,0.0,0.0,0.0,0.0,0.0,0.0,0.0,0.0,0.0,0.0,0.0,0.0,0.0,0.0,0.0,0.0,2.4704,2.5766,2.5275,2.4907,2.4712,2.4348,2.443,2.4989,2.4792,2.4657,2.4657,2.4657,2.4389,2.3921,2.4471,2.5044,2.5663,2.6278,2.6687,2.6869,2.6509,2.6293,2.6214,2.6426,2.7581,2.907,0.0,0.0,0.0,0.0,1.0559,0.0,0.0,0.0,1.0609,0.0,1.0182,1.0798,1.1738,1.1459,1.2178,1.4523,1.4743,0.0,1.5899,1.6164,0.0,0.0,1.7332,1.7115,1.8736,0.0,0.0,0.0,0.0,0.0,0.0,0.0,0.0,0.0,0.7112,0.0,1.0997,1.29,1.464,1.6069,1.5394,1.5352,1.5924,1.7312,0.0,1.6215,1.8091,1.9321,2.0201,2.1055,2.1772,2.2278,2.207,2.2746,2.3737,2.4247,2.5519,2.673,2.6426,2.6043,2.4986,2.1819,0.0,0.0,0.0,0.0,1.9775,0.0,0.0,0.0,0.0,0.0,0.0,0.0,0.0,0.0,0.0,0.0,0.0,0.0,0.0,0.0,0.0,0.0,0.0,0.0,0.0,0.0,0.0,0.0,0.0,2.5809,2.5993,2.5815,2.5255,2.5195,2.5438,2.5911,2.547,2.5259,2.5259,2.5259,2.495,2.4471,2.5028,2.5486,2.6026,2.6772,2.7274,2.7528,2.6623,2.6631,2.7173,2.6686,2.7287,2.8451,1.0264,1.0285,1.0396,0.0,1.0453,1.0479,0.0,0.0,0.0,0.0,1.0641,1.0887,1.1002,1.1911,1.2557,1.2607,1.4164,0.0,0.0,0.0,0.0,1.8714,1.7588,1.7273,1.8031,1.6089,0.0,1.1932,0.0,0.0,0.8394,0.0,0.0,0.0,0.0,0.0,1.0399,1.1847,1.3485,1.5178,1.5289,1.4845,0.0,0.0,1.6421,1.6115,1.8631,1.9991,2.062,2.0885,2.1093,2.1323,2.2058,2.2537,2.3033,2.4208,2.5511,2.6661,2.7022,2.7317,2.7053,2.5023,2.5649,2.564,0.0,0.0,0.0,0.0,0.0,0.0,0.0,0.0,0.0,0.0,0.0,0.0,0.0,0.0,0.0,0.0,0.0,0.0,0.0,0.0,0.0,0.0,0.0,0.0,0.0,0.0,0.0,2.6681,2.6246,2.5854,2.5649,2.4992,2.4827,2.5102,2.5573,2.5799,2.5799,2.5799,2.5486,2.5012,2.5577,2.5652,2.5465,2.6049,2.5875,2.5282,2.5416,2.5837,2.6439,2.7502,2.8395,2.9283,1.0225,0.0,0.0,1.0699,0.0,0.0,1.1221,0.0,0.0,1.048,1.027,0.0,1.003,1.0938,1.1658,1.1981,1.3339,0.0,0.0,0.0,0.0,1.8047,1.7803,1.8004,1.8887,1.7115,0.0,1.3829,0.0,0.0,0.8517,0.0,0.0,0.0,0.0,0.7739,0.0,1.1726,1.3292,1.4248,1.4984,0.0,0.0,1.6364,1.6874,1.6848,1.9027,2.0055,2.0396,2.0696,2.0815,2.0906,2.151,2.209,2.2649,2.3429,2.4673,2.5929,2.6785,2.718,2.7254,2.6827,2.7351,2.7404,2.5155,2.397,2.349,0.0,0.0,0.0,0.0,0.0,0.0,0.0,0.0,0.0,0.0,0.0,0.0,0.0,0.0,0.0,0.0,0.0,0.0,0.0,0.0,0.0,0.0,0.0,0.0,2.6901,2.6525,2.6041,2.5595,2.5412,2.526,2.5163,2.5947,2.6191,2.6013,2.6227,2.6033,2.5577,2.6104,2.6123,2.5855,2.6175,2.5944,2.5433,2.5524,2.6118,2.7064,2.8005,2.8524,2.9062,0.0,0.0,0.0,0.0,0.0,0.0,0.0,1.1666,0.0,1.0529,0.0,0.9114,0.9225,0.9523,1.0286,1.179,0.0,1.3168,1.4357,1.5585,1.6525,1.7173,1.7838,1.884,2.0074,1.7934,0.0,0.0,0.0,0.0,0.0,0.0,0.0,0.0,0.0,0.0,0.0,1.2084,1.363,0.0,1.4759,1.5012,1.5077,1.6983,1.7679,1.7797,1.915,1.9695,1.9901,2.0446,2.0646,2.0654,2.0758,2.1485,2.2271,2.235,2.3467,2.4862,2.5837,2.6133,2.637,2.7304,2.7243,2.6488,2.4743,2.4435,2.4611,2.4967,2.3218,0.0,0.0,0.0,0.0,0.0,0.0,0.0,0.0,0.0,0.0,0.0,0.0,0.0,0.0,0.0,0.0,0.0,0.0,0.0,0.0,0.0,0.0,0.0,2.6695,0.0,2.5353,0.0,2.6226,2.5567,2.6384,2.6539,2.612,2.6505,2.647,2.6104,2.6505,2.6657,2.6624,2.6624,2.6624,2.659,2.6156,2.6875,2.8158,2.8257,2.8318,2.8655,0.0,0.0,0.0,0.0,0.0,1.1286,1.1449,1.1204,1.0873,1.053,0.9802,0.0,0.945,0.972,1.0018,1.0287,1.1784,0.0,0.0,0.0,0.0,1.652,1.742,1.8261,1.912,1.7894,1.6146,0.0,0.0,0.0,0.0,0.0,0.0,0.0,0.0,0.0,1.1026,1.2335,0.0,1.5468,1.5365,1.5349,1.5418,1.6357,1.7125,1.7688,1.8555,1.9254,1.9798,1.9952,2.0003,2.008,2.0627,2.0935,2.1218,2.1699,2.2746,2.377,2.3978,2.4682,2.5422,2.5623,2.5931,2.599,2.5187,2.5663,2.6243,2.6204,2.6178,2.5701,2.4176,0.0,0.0,0.0,0.0,0.0,0.0,0.0,0.0,0.0,0.0,0.0,0.0,0.0,0.0,0.0,0.0,0.0,0.0,0.0,0.0,0.0,0.0,0.0,0.0,0.0,0.0,2.5365,2.6606,2.6987,2.659,2.6657,2.6657,2.659,2.6657,2.647,2.612,2.612,2.612,2.6104,2.6049,2.6759,2.7936,2.8612,2.9252,2.9909,0.0,0.0,0.0,0.0,0.0,0.0,0.0,1.078,0.0,1.0922,0.9058,0.8313,0.9876,0.9702,0.9865,1.0866,1.1925,1.2727,1.3212,1.4024,1.5104,1.6438,1.6701,0.0,1.8695,1.8148,1.6288,1.2995,0.0,0.0,0.0,0.0,0.0,0.0,0.0,0.9999,0.0,0.0,0.0,1.5558,1.5827,1.5748,1.5468,1.6208,1.6708,1.7202,1.8286,1.8927,1.9307,1.9695,1.9798,1.985,2.0207,2.0308,2.0396,2.1064,2.1885,2.2684,2.3317,2.3945,2.4511,2.5067,2.5182,2.5182,2.5182,2.5561,2.6019,2.6421,2.6573,2.5705,2.2694,1.9316,0.0,0.0,0.0,0.0,0.0,0.0,0.0,0.0,0.0,0.0,0.0,0.0,0.0,0.0,0.0,0.0,0.0,0.0,0.0,0.0,0.0,0.0,0.0,0.0,0.0,2.5323,2.6655,2.7083,2.6691,2.6691,2.6691,2.6691,2.6691,2.659,2.6367,2.6367,2.6367,2.6367,2.6367,2.7227,2.8467,2.8839,2.9702,3.0717,0.0,1.3269,0.0,0.0,1.0456,0.0,0.0,0.9779,1.0621,1.076,0.8429,0.7659,1.0054,0.9639,0.9767,1.1448,1.2018,1.2592,1.3382,1.36,1.445,1.6219,1.6124,1.6769,1.8387,1.8266,1.6539,0.0,0.0,0.0,0.0,0.0,0.0,0.0,0.0,0.0,0.0,0.0,1.6127,1.5747,1.6098,1.5921,1.5468,1.6036,1.6379,1.6652,1.7852,1.8436,1.8768,1.9371,1.9695,1.9798,1.9798,1.9798,1.9901,2.0446,2.1015,2.1744,2.2818,2.3274,2.3666,2.4617,2.4632,2.4471,2.4776,2.5028,2.5379,2.6077,2.6179,2.5196,2.2084,2.0378,0.0,0.0,0.0,0.0,0.0,0.0,0.0,0.0,0.0,0.0,0.0,0.0,0.0,0.0,0.0,0.0,0.0,0.0,0.0,0.0,0.0,2.5386,2.5156,0.0,2.7288,0.0,2.694,2.721,2.6808,2.6758,2.6691,2.6691,2.6691,2.6691,2.6691,2.6691,2.6691,2.6691,2.6691,2.7621,2.9011,2.9011,2.9922,3.119,0.0,0.0,0.0,0.0,0.0,0.0,0.0,0.7757,0.7769,0.8857,0.8759,0.8787,0.9373,0.9306,0.9562,1.0387,1.1613,1.2372,1.2445,1.3237,1.4171,1.5305,1.6105,1.7005,1.8007,1.7902,1.6768,0.0,0.0,0.0,0.0,0.0,0.0,0.0,0.0,0.0,0.0,1.4273,1.52,1.7279,1.6032,1.5468,1.541,1.5468,1.5921,1.6549,1.6652,1.7578,1.8715,1.8768,1.9254,1.9798,1.9798,1.9798,1.9798,1.9901,2.0346,2.1028,2.1697,2.2331,2.292,2.358,2.4074,2.4282,2.3837,2.4511,2.5205,2.5303,2.5999,2.5745,2.275,2.3899,2.3545,0.0,0.0,0.0,0.0,0.0,0.0,0.0,0.0,0.0,0.0,0.0,0.0,0.0,0.0,0.0,0.0,0.0,0.0,2.2939,0.0,2.3889,2.4053,2.6916,0.0,2.7735,2.7821,2.7619,2.7241,2.6873,2.6691,2.6691,2.6691,2.6691,2.6691,2.6691,2.6691,2.6691,2.6691,2.7621,2.9011,2.9011,2.9922,3.119,0.0,0.0,0.0,0.0,0.0,0.0,0.0,0.7576,0.7333,0.7338,0.7291,0.7845,0.9135,0.9296,0.9599,1.0276,1.1552,1.2305,1.2305,1.2666,1.331,1.4243,1.5226,1.6219,1.7139,1.756,1.678,0.0,0.0,0.0,0.0,0.0,0.0,0.0,0.0,1.4839,1.5918,1.6834,1.7373,1.7523,1.6482,1.5806,1.541,1.541,1.5575,1.5921,1.6322,1.7146,1.8124,1.8555,1.9202,1.9798,1.9798,1.9798,1.9798,1.9798,2.0245,2.0845,2.1113,2.1629,2.2239,2.292,2.3216,2.3435,2.3595,2.3906,2.443,2.5067,2.6016,2.6336,2.5152,2.4569,2.3946,0.0,0.0,0.0,0.0,0.0,0.0,0.0,0.0,0.0,0.0,0.0,0.0,0.0,0.0,0.0,0.0,0.0,0.0,2.1477,0.0,2.5685,2.5402,2.7597,2.8462,2.8017,2.8306,2.8183,2.7648,2.75,2.7303,2.7051,2.6808,2.6691,2.6691,2.6691,2.6691,2.6691,2.6691,2.7351,2.8349,2.8805,2.9634,3.0598,1.4001,0.0,1.2403,0.0,1.0594,0.8826,0.7395,0.7216,0.7061,0.6395,0.6338,0.6949,0.8694,0.8846,0.9372,1.0801,1.1471,1.1996,1.2305,1.2305,1.2732,1.3673,1.4665,0.0,1.6567,1.7174,1.7009,1.6005,1.3398,0.0,0.0,0.0,0.0,0.0,1.6544,1.7508,1.7157,1.8499,1.8519,1.7523,1.6585,1.5864,1.543,1.5557,1.5527,1.5488,1.6131,1.6768,1.7413,1.8124,1.8874,1.9527,1.9747,1.9798,1.9798,1.9798,2.0156,2.056,2.0759,2.1113,2.1568,2.2253,2.2543,2.2785,2.3246,2.3465,2.3906,2.4973,2.6016,2.6691,2.6691,2.527,2.4425,0.0,0.0,0.0,0.0,0.0,0.0,0.0,2.396,2.3318,0.0,0.0,0.0,0.0,0.0,0.0,0.0,0.0,0.0,0.0,0.0,0.0,0.0,0.0,2.8571,2.8674,2.8767,2.8579,2.8148,2.788,2.756,2.7272,2.6873,2.6691,2.6691,2.6691,2.6691,2.6708,2.6945,2.7486,2.8264,2.9025,2.9786,3.0497,1.5948,1.3301,1.0647,1.0661,0.826,0.6325,0.6328,0.6331,0.6335,0.6338,0.6338,0.6721,0.7706,0.7783,0.8988,1.2003,1.1391,1.1236,1.2224,1.2305,1.2732,0.0,0.0,1.5658,1.6567,1.6683,1.743,1.8866,0.0,0.0,1.6583,0.0,1.5546,1.7558,1.7631,1.8448,1.9651,1.8242,1.7633,1.7468,1.6026,1.541,1.5459,1.5889,1.5781,1.5469,1.5958,1.6305,1.6652,1.7357,1.8112,1.8821,1.9579,1.9798,1.9798,1.9798,1.9798,1.9952,2.0597,2.0795,2.0944,2.1568,2.2193,2.2694,2.2694,2.3157,2.3906,2.4973,2.6016,2.6691,2.6691,2.6657,2.5866,2.344,0.0,0.0,0.0,0.0,0.0,0.0,1.7319,1.6906,2.1913,0.0,0.0,0.0,0.0,0.0,0.0,0.0,0.0,2.3548,2.3076,0.0,2.559,2.6933,2.85,3.0251,2.9269,2.8815,2.8769,2.7752,2.7286,2.7272,2.6873,2.6691,2.6691,2.6691,2.6691,2.6776,2.752,2.8281,2.9059,2.982,3.0548,3.119,1.2534,0.9555,0.7158,0.7623,0.6878,0.6338,0.6338,0.6338,0.6338,0.6338,0.6338,0.6416,0.6718,0.0,0.7931,0.0,0.9809,1.0864,0.0,1.1774,1.2445,1.2732,1.4307,1.5376,1.5658,1.6635,1.7664,1.8637,0.0,0.0,0.0,1.6451,1.7185,1.8083,1.8476,1.8499,1.8242,1.7291,1.6877,1.6754,1.5806,1.541,1.543,1.5566,1.5527,1.5469,1.5908,1.6246,1.6648,1.7743,1.8357,1.8821,1.9579,2.0075,2.0388,2.0388,2.0388,2.0441,2.0652,2.0411,2.0295,2.093,2.1272,2.1609,2.2512,2.3749,2.4792,2.5144,2.6016,2.6691,2.6691,2.6939,2.674,2.5702,0.0,0.0,0.0,0.0,0.0,0.0,2.3418,2.3566,0.0,2.1813,0.0,0.0,0.0,0.0,0.0,0.0,0.0,0.0,2.5634,0.0,2.7369,2.8299,2.9292,3.0302,2.9706,2.924,2.8897,2.8084,2.7707,2.7648,2.6987,2.6691,2.6691,2.6691,2.6873,2.7117,2.708,2.7675,2.8664,2.9151,2.982,3.0531,0.9115,0.7094,0.5892,0.6273,0.6149,0.6074,0.6304,0.4927,0.4219,0.5002,0.5786,0.6338,0.6338,0.6872,0.0,0.6868,0.8912,0.0,1.0496,1.1626,1.2305,1.2305,1.381,1.4807,1.5163,0.0,0.0,1.8489,1.7147,1.6714,1.7181,1.8282,1.8744,1.8605,1.8977,1.8563,1.7523,1.681,1.6492,1.6436,1.569,1.541,1.5449,1.5781,1.5703,1.5488,1.6094,1.6397,1.6648,1.771,1.8322,1.8821,1.9579,2.02,2.068,2.0401,2.0338,2.0338,2.0338,2.0075,1.9901,2.0295,2.0597,2.114,2.242,2.3819,2.495,2.5144,2.5872,2.647,2.6657,2.6906,2.7085,2.7148,0.0,2.7893,2.6959,0.0,0.0,0.0,0.0,0.0,0.0,2.4241,0.0,0.0,0.0,0.0,0.0,0.0,0.0,2.4735,2.7325,0.0,2.8651,2.9408,3.0156,3.0859,3.0402,2.9832,2.9115,2.8264,2.7897,2.7869,2.7051,2.6691,2.6691,2.6691,2.6841,2.7085,2.7279,2.7772,2.852,2.9298,2.9892,3.0384,0.6074,0.595,0.0,0.0,0.5649,0.0,0.5787,0.2504,0.0784,0.2812,0.4844,0.6103,0.6261,0.6338,0.6641,0.7629,0.0,0.0,0.0,1.162,1.2224,1.2305,1.3164,0.0,1.5092,1.5583,1.6665,1.8338,1.9134,1.95,1.9574,2.0176,1.9898,1.8977,1.8944,1.8411,1.7457,1.6719,1.6436,1.6379,1.569,1.541,1.5508,1.6357,1.6172,1.5566,1.6517,1.6688,1.6602,1.7445,1.815,1.8815,1.9488,2.02,2.0618,2.0024,1.9861,1.9861,1.9861,1.9836,1.9798,1.9798,2.0346,2.1175,2.236,2.3535,2.4552,2.5105,2.5615,2.6139,2.6624,2.6691,2.6954,2.7725,2.7869,2.7698,2.7238,0.0,0.0,0.0,0.0,0.0,0.0,2.4011,2.5463,0.0,0.0,0.0,0.0,0.0,2.328,2.8213,2.8425,2.8843,2.9662,3.0394,3.1128,3.1853,3.135,3.0565,2.952,2.8536,2.8053,2.7968,2.71,2.6758,2.6758,2.6725,2.6725,2.6893,2.7991,2.8481,2.8722,3.011,3.0629,3.0713,0.0,0.0,0.5318,0.2035,0.4065,0.5025,0.1951,0.0628,0.0784,0.2812,0.3513,0.4453,0.6103,0.6338,0.6412,0.6644,0.7553,0.8613,0.9593,1.0565,1.1465,1.2305,1.3164,1.3818,1.4027,1.4931,1.593,1.7039,1.7224,1.7716,1.8435,1.8536,1.8304,1.7769,1.7425,1.6951,1.6406,1.5898,1.5633,1.5642,1.5468,1.541,1.5469,1.6016,1.6094,1.6136,1.7624,1.7307,1.6486,1.8163,1.8691,1.8598,1.8845,1.9752,2.0693,2.0555,2.0517,2.0517,2.0517,2.0137,1.9798,1.9798,2.0657,2.1568,2.1852,2.323,2.4552,2.5105,2.5615,2.6139,2.6624,2.6691,2.6873,2.7348,2.7439,2.7327,2.6961,2.6888,0.0,0.0,2.5877,2.6669,2.8643,2.8913,2.8663,0.0,0.0,0.0,0.0,0.0,2.8367,3.0927,3.0966,3.1386,3.2288,3.2387,3.2417,3.2412,3.2283,3.188,3.1203,3.0073,2.9432,2.9134,2.7757,2.7147,2.7147,2.6825,2.7051,2.7677,2.823,2.9207,3.0285,3.0573,3.1045,3.1474,0.6017,0.4768,0.27,0.037,0.1903,0.2676,0.0312,0.0784,0.1488,0.1643,0.3359,0.5002,0.618,0.6338,0.6338,0.6338,0.7249,0.8012,0.8618,0.9959,1.1013,1.162,1.2505,1.3237,1.3673,1.4243,1.5021,1.593,1.593,1.6428,1.7354,1.7354,1.735,1.7363,1.6924,1.6484,1.6096,1.5596,1.541,1.541,1.541,1.541,1.5537,1.6588,1.6708,1.6465,1.7843,1.7632,1.6879,1.7658,1.7986,1.8171,1.8583,1.9197,1.9826,2.021,2.0275,2.0275,2.0275,2.0037,1.9798,1.9798,2.0756,2.1697,2.1697,2.2936,2.4282,2.5028,2.5411,2.5835,2.659,2.6691,2.6841,2.7224,2.7009,2.6735,2.6549,2.6647,0.0,2.7046,2.7821,2.8894,3.0268,3.0872,3.0731,2.9706,0.0,0.0,2.9651,3.0153,3.0884,3.1858,3.2247,3.2664,3.3103,3.3407,3.3473,3.3331,3.3219,3.2553,3.1408,3.0506,2.9722,2.8989,2.7982,2.756,2.7577,2.7317,2.7517,2.7933,2.8311,2.8966,2.9782,3.0503,3.0858,3.1063,0.5451,0.2692,0.0,0.0,0.0,0.0,0.0,0.148,0.2111,0.0627,0.3283,0.5553,0.6261,0.6338,0.6338,0.6338,0.7099,0.7629,0.7783,0.9513,1.0634,1.0783,1.1768,1.2659,1.3455,1.3455,1.3954,1.495,1.5163,1.5649,1.6636,1.6775,1.703,1.7461,1.6953,1.6523,1.6133,1.5625,1.541,1.541,1.541,1.541,1.5557,1.7143,1.7158,1.6587,1.762,1.7723,1.73,1.6804,1.703,1.7667,1.819,1.8602,1.8928,1.95,1.9695,1.9798,1.9798,1.9798,1.9798,1.9952,2.0855,2.1758,2.1852,2.2741,2.3879,2.4855,2.5144,2.5486,2.6436,2.6657,2.6706,2.665,2.6364,2.6018,2.5747,0.0,2.7269,2.7165,2.9021,3.0381,3.0558,3.1385,3.2083,3.2466,3.2091,0.0,0.0,3.2607,3.2262,3.2192,3.2941,3.3344,3.3325,3.4019,3.4378,3.4332,3.414,3.3203,3.1597,3.0772,2.9866,2.8873,2.8246,2.7982,2.7982,2.7926,2.7926,2.801,2.8416,2.8626,2.8833,3.0269,3.0635,3.0508,0.3522,0.1635,0.0,0.0,0.0,0.0,0.0,0.0306,0.1019,0.2422,0.1643,0.2347,0.5944,0.6338,0.6338,0.6338,0.6412,0.6872,0.7783,0.8917,0.9895,1.0783,1.1768,1.2372,1.2519,1.2519,1.2945,1.3954,1.4807,1.5649,1.6636,1.7432,1.7833,1.7881,1.709,1.6699,1.6572,1.5752,1.541,1.541,1.541,1.541,1.5459,1.6147,1.6317,1.6317,1.7552,1.7286,1.6427,1.7057,1.7339,1.738,1.6995,1.8036,1.9364,1.9018,1.9307,1.9798,1.9798,1.9798,1.9952,2.0497,2.121,2.1852,2.2406,2.3098,2.3752,2.4389,2.4894,2.5373,2.5997,2.6436,2.6032,2.3986,2.4816,2.5184,2.3684,0.0,2.773,2.8634,2.9942,3.1165,3.2129,3.2364,3.2871,3.3817,3.3814,3.3728,3.3672,3.426,3.426,3.3516,3.3868,3.429,3.4757,3.5115,3.5172,3.4964,3.5143,3.496,3.4406,3.2675,3.165,3.1162,2.9166,2.8316,2.8316,2.8037,2.8075,2.8414,2.9142,2.9613,2.9978,3.0595,3.1168,3.1673,0.1401,0.0685,0.0,0.0,0.0,0.0,0.0,0.0,0.0381,0.1327,0.2581,0.4144,0.6103,0.6338,0.6338,0.6338,0.6338,0.6718,0.7706,0.877,0.9744,1.0783,1.1768,1.2305,1.2305,1.2305,1.2519,1.2952,1.3954,1.4879,1.5869,1.6784,1.7501,1.7978,1.7119,1.6665,1.6607,1.5781,1.541,1.541,1.541,1.541,1.5517,1.6416,1.6614,1.6471,1.7319,1.7075,1.6293,1.6341,1.6331,1.6359,1.6441,1.7411,1.8545,1.8679,1.9202,1.9798,1.9798,1.9798,1.9952,2.0646,2.1245,2.1899,2.2558,2.3157,2.3752,2.4266,2.4831,2.5259,2.554,2.6175,2.6135,2.4472,2.5313,0.0,0.0,2.6754,2.8523,2.9053,3.0712,3.2036,3.2551,3.2999,3.3497,3.4157,3.42,3.4214,3.4282,3.4661,3.4491,3.3598,3.416,3.4668,3.5105,3.4764,3.4596,3.463,3.4735,3.4429,3.3732,3.3126,3.2221,3.1092,2.9898,2.9107,2.8707,2.8558,2.8583,2.8761,2.915,2.9253,2.9319,3.0181,3.045,3.0505,0.0,0.0,0.0,0.0,0.0,0.0,0.0,0.0,0.0,0.0,0.3675,0.6338,0.6338,0.6338,0.6338,0.6338,0.6338,0.6795,0.8084,0.8841,0.9744,1.0783,1.1768,1.2305,1.2305,1.2305,1.2305,1.2305,1.3455,1.445,1.5234,1.6358,1.7285,1.7978,1.7119,1.6665,1.6607,1.5781,1.541,1.541,1.541,1.541,1.5498,1.6519,1.667,1.6306,1.6763,1.667,1.6151,1.5584,1.541,1.5526,1.6093,1.6866,1.7688,1.8286,1.9097,1.9798,1.9798,1.9798,2.0003,2.0832,2.1342,2.1899,2.2725,2.329,2.3724,2.4116,2.4736,2.5182,2.5028,2.5928,2.6233,2.4772,0.0,0.0,0.0,2.7902,2.9497,2.9869,3.1664,3.2889,3.2889,3.344,3.3876,3.4074,3.4099,3.4149,3.4308,3.429,3.3915,3.3051,3.379,3.4245,3.4319,3.3846,3.3727,3.4031,3.4153,3.3862,3.3272,3.3216,3.2392,3.0934,3.0298,2.9637,2.8994,2.8994,2.8994,2.8994,2.8994,2.8749,2.8518,2.9539,2.9598,2.9365,0.0,0.0,0.0,0.0,0.0,0.0,0.0,0.0,0.0,0.0,0.3675,0.6338,0.6338,0.6338,0.6338,0.6338,0.6338,0.7099,0.9069,0.9221,0.9744,1.0783,1.1768,1.2305,1.2305,1.2305,1.2305,1.2305,1.4163,1.5163,1.5234,1.7079,1.794,1.7978,1.7119,1.6665,1.6607,1.5781,1.541,1.541,1.541,1.541,1.541,1.5498,1.5498,1.5468,1.5498,1.5498,1.5468,1.541,1.541,1.541,1.5468,1.6472,1.7633,1.7688,1.8715,1.9798,1.9798,1.9798,2.0093,2.1328,2.1663,2.2025,2.326,2.3551,2.3595,2.3638,2.4471,2.5067,2.4552,2.5693,2.5779,2.3038,0.0,0.0,2.5561,2.8184,3.0721,3.2092,3.3121,3.3715,3.3715,3.377,3.3807,3.3815,3.3815,3.3622,3.3161,3.3146,3.2754,3.1936,3.2464,3.2538,3.2054,3.2645,3.3134,3.345,3.3968,3.4584,3.5229,3.3463,3.2435,3.1977,3.0222,2.928,2.8994,2.8994,2.8994,2.8994,2.8994,2.8749,2.8446,2.8936,2.9296,2.962,0.0,0.0,0.0,0.0,0.0,0.0,0.0,0.0,0.082,0.3046,0.4773,0.5916,0.6297,0.6225,0.6201,0.6328,0.6338,0.7176,0.915,0.9296,1.0051,1.1694,1.2077,1.2305,1.2305,1.2305,1.2305,1.2305,1.4235,1.5234,1.5234,1.7157,1.8008,1.7978,1.7119,1.6665,1.6607,1.5781,1.541,1.541,1.541,1.541,1.541,1.541,1.541,1.541,1.541,1.541,1.541,1.541,1.569,1.6093,1.6093,1.7079,1.8394,1.8821,1.9371,1.9798,1.9798,1.9798,1.9991,2.0917,2.1424,2.1946,2.2815,2.3334,2.3681,2.4032,2.4657,2.5144,2.4934,2.627,2.6816,2.508,0.0,2.8699,2.8306,3.0214,3.1991,3.2831,3.3447,3.3807,3.3807,3.3807,3.3807,3.3807,3.3807,3.3493,3.2791,3.1819,3.1117,3.0822,3.0672,3.0996,3.1803,3.1711,3.1806,3.2093,3.2464,3.3083,3.3878,3.3502,3.2928,3.2147,3.1254,3.0176,2.8994,2.8994,2.8994,2.8994,2.8994,2.8749,2.8446,2.8839,2.8931,2.8977,0.0,0.0,0.0,0.0,0.0,0.0,0.0,0.0,0.1276,0.4957,0.5428,0.5586,0.6005,0.5985,0.6022,0.6225,0.6135,0.7032,0.903,0.9782,1.0793,1.2224,1.2305,1.2305,1.2305,1.2305,1.2305,1.2305,1.4235,1.5234,1.5234,1.7157,1.8008,1.7978,1.7256,1.6865,1.668,1.5937,1.5654,1.5748,1.5468,1.5526,1.57,1.5468,1.541,1.541,1.541,1.5526,1.569,1.5468,1.6026,1.681,1.6539,1.7523,1.8821,1.9579,1.9798,1.9798,1.9798,1.9952,2.0194,2.0696,2.1245,2.1899,2.2558,2.3157,2.3752,2.4266,2.4831,2.5221,2.5221,2.6611,2.7537,2.6727,2.8605,3.0125,3.0268,3.1568,3.2681,3.3136,3.355,3.3807,3.3807,3.368,3.3606,3.3606,3.3476,3.2993,3.2082,3.0869,3.0081,2.9843,2.9954,3.0327,3.0906,3.0658,3.0746,3.1213,3.1389,3.1952,3.2812,3.2936,3.2585,3.1807,3.1354,3.0336,2.8994,2.8994,2.8994,2.8994,2.8994,2.8749,2.8446,2.8839,2.8749,2.8543,0.0,0.0,0.0,0.0,0.0,0.0,0.0,0.0,0.1276,0.4891,0.5362,0.5362,0.5362,0.5542,0.5813,0.6016,0.5864,0.6649,0.8636,1.0767,1.1997,1.2285,1.2305,1.2305,1.2305,1.2305,1.2305,1.2305,1.4235,1.5234,1.5234,1.7157,1.8008,1.7988,1.7568,1.7139,1.6636,1.626,1.6276,1.6436,1.57,1.5816,1.6436,1.569,1.541,1.541,1.542,1.5864,1.6379,1.5642,1.6415,1.7468,1.6754,1.7523,1.8874,1.9592,1.9798,1.9798,1.9798,2.0295,2.0795,2.0795,2.1245,2.1899,2.2558,2.3157,2.3752,2.4307,2.4816,2.5221,2.5221,2.6627,2.7721,2.7388,2.8897,3.0311,3.0852,3.1846,3.2681,3.3154,3.355,3.3807,3.3807,3.3437,3.3214,3.3214,3.2777,3.2005,3.0872,3.0432,2.9843,2.903,3.0558,3.0632,2.9053,2.9475,3.0147,3.0977,3.0977,3.1552,3.2562,3.1688,3.1181,3.0939,3.0091,2.9436,2.8994,2.8994,2.8994,2.8994,2.8994,2.8749,2.8446,2.8863,2.8749,2.8489,0.0,0.0,0.0,0.0,0.0,0.0,0.0,0.0,0.0404,0.1478,0.3084,0.4255,0.454,0.5224,0.5674,0.5833,0.582,0.6721,0.8865,1.0269,1.1414,1.2285,1.2305,1.2305,1.2305,1.2305,1.2305,1.2305,1.4235,1.5234,1.5234,1.7157,1.8008,1.7988,1.7568,1.7139,1.6719,1.6592,1.6215,1.572,1.5861,1.5802,1.569,1.5468,1.541,1.5449,1.5762,1.6135,1.642,1.6059,1.702,1.8436,1.8715,1.9097,1.9527,1.9747,1.9798,1.9798,1.9798,2.0295,2.0795,2.0795,2.1609,2.2452,2.2649,2.3463,2.4307,2.4855,2.5373,2.5872,2.6193,2.7563,2.8631,2.8519,2.9816,3.1117,3.1917,3.2281,3.2777,3.3522,3.3734,3.3807,3.3807,3.3707,3.3606,3.3606,3.2966,3.2411,3.2082,3.1426,3.0925,3.0687,3.0595,3.0673,3.0954,3.0532,3.0186,2.9868,3.0019,3.0578,3.1478,3.1195,3.094,3.0712,3.043,2.9834,2.8994,2.8994,2.8994,2.8994,2.8994,2.8929,2.8839,2.897,2.9276,2.9588,-0.2194,-0.1008,0.0,0.0,0.0,0.0,0.0,0.0,0.0337,0.1277,0.2482,0.3641,0.4591,0.5154,0.5559,0.5705,0.6342,0.7157,0.8189,0.9828,1.0987,1.1516,1.1906,1.2184,1.2298,1.2305,1.2305,1.2305,1.4235,1.5234,1.5234,1.7157,1.8008,1.7998,1.7744,1.7393,1.6992,1.6992,1.676,1.6337,1.6136,1.6078,1.6056,1.5595,1.5518,1.5684,1.5771,1.644,1.7109,1.6471,1.7375,1.8821,1.9579,1.9798,1.9798,1.9798,1.9798,1.985,2.0105,2.0683,2.121,2.1513,2.2128,2.2694,2.2694,2.3593,2.4552,2.5105,2.5615,2.6239,2.6977,2.8146,2.9076,2.9381,3.0429,3.1487,3.2384,3.2484,3.284,3.3707,3.3807,3.3807,3.3807,3.3652,3.3494,3.3284,3.272,3.2365,3.2365,3.2059,3.1733,3.1403,3.1237,3.117,3.1172,3.0691,3.0253,2.9857,2.9565,2.9756,3.0377,3.0377,3.0282,3.0122,3.0122,2.9694,2.8994,2.8994,2.8994,2.8994,2.8994,2.8994,2.8994,2.8994,2.9512,3.0136,-0.5058,-0.2281,0.0,0.0,0.0,0.0,0.0,0.0,0.0807,0.3151,0.3013,0.3411,0.5223,0.5491,0.5617,0.5827,0.726,0.787,0.7205,0.9504,1.077,1.0527,1.143,1.2004,1.2291,1.2305,1.2372,1.2445,1.4307,1.5234,1.5376,1.7157,1.8008,1.8008,1.8008,1.7773,1.7383,1.7422,1.7526,1.7585,1.6626,1.6578,1.7026,1.6028,1.5831,1.6135,1.5881,1.69,1.82,1.7205,1.7667,1.8821,1.9579,1.9798,1.9811,1.9861,1.9925,2.0131,2.0791,2.1415,2.203,2.2629,2.2783,2.2785,2.2785,2.3679,2.4632,2.5105,2.5652,2.6391,2.7483,2.8416,2.9211,2.9888,3.0683,3.1487,3.2384,3.2484,3.284,3.3707,3.3807,3.3807,3.3807,3.3465,3.3075,3.2648,3.2319,3.2148,3.2148,3.2502,3.2375,3.1623,3.2192,3.1825,3.043,3.0283,3.0296,3.0448,2.9462,2.9134,2.9372,2.9372,2.9372,2.9372,2.9372,2.9243,2.8994,2.8994,2.8994,2.8994,2.8994,2.8994,2.8994,2.8994,2.9549,3.0338,-0.1754,-0.0539,0.0,0.0,0.0,0.0,0.0,0.0,0.0539,0.2012,0.2477,0.3343,0.5134,0.5997,0.6675,0.7442,0.7836,0.8372,0.903,0.965,1.043,1.1546,1.1793,1.2004,1.2291,1.2305,1.2666,1.3382,1.4593,1.5596,1.6315,1.7442,1.8008,1.8008,1.8008,1.7773,1.7402,1.7734,1.7497,1.6928,1.7056,1.7012,1.6874,1.7257,1.7103,1.6799,1.8358,1.895,1.8994,1.9579,1.9287,1.8821,1.9579,1.9798,1.9886,2.0351,2.0926,2.1471,2.2075,2.2715,2.3273,2.3443,2.3434,2.3421,2.3421,2.4266,2.5067,2.5182,2.5944,2.664,2.6911,2.8061,2.9025,2.9194,3.0328,3.1487,3.2384,3.2484,3.284,3.3707,3.3807,3.3807,3.3807,3.3734,3.3634,3.355,3.3442,3.3424,3.3424,3.3478,3.3458,3.3293,3.2228,3.1806,3.2082,3.0834,2.9903,2.9347,2.9113,2.904,2.9089,2.9089,2.9089,2.9089,2.9089,2.9044,2.8994,2.8994,2.8994,2.8994,2.8994,2.8994,2.8994,2.8994,2.9916,3.1311,-0.0748,0.0,0.0,0.0,0.0,0.0,0.0,0.0,0.0538,0.2011,0.2477,0.354,0.5723,0.6388,0.7046,0.7897,0.8355,0.8868,0.9462,0.9866,1.0514,1.143,1.145,1.165,1.2084,1.2525,1.3093,1.3673,1.5163,1.6149,1.6655,1.7579,1.8008,1.8008,1.8008,1.8083,1.8329,1.8562,1.839,1.7965,1.7985,1.7616,1.7086,1.7292,1.7226,1.7234,1.852,1.9336,1.9808,2.0501,2.0238,1.9662,1.9783,1.9798,2.0015,2.0939,2.1511,2.2081,2.3279,2.3879,2.4163,2.4168,2.4313,2.4331,2.3713,2.443,2.5221,2.5221,2.6016,2.6911,2.7655,2.8486,2.9211,2.9922,3.0683,3.1487,3.2384,3.2484,3.284,3.3707,3.3807,3.3807,3.3807,3.3807,3.3807,3.3807,3.3807,3.3807,3.3807,3.3807,3.3807,3.3807,3.2614,3.2173,3.2614,3.1384,3.0558,3.0136,2.9769,2.9769,3.0118,2.9342,2.9106,2.9277,2.9093,2.8905,2.8743,2.935,2.9586,2.9586,2.9586,2.9824,3.0099,2.9714,3.0595,3.2155,-0.1037,-0.0135,0.0,0.0,0.0,0.0,0.0,0.0,0.0673,0.2477,0.2678,0.3803,0.6584,0.7172,0.7627,0.8415,0.9134,0.953,0.953,1.0174,1.0688,1.0982,1.0995,1.1243,1.1784,1.295,1.3698,1.3954,1.572,1.6706,1.6853,1.7647,1.8008,1.8008,1.8008,1.8462,1.9299,1.9299,1.9365,1.9465,1.8944,1.8291,1.7704,1.7456,1.7546,1.7825,1.8603,1.9673,2.0725,2.0926,2.0891,2.0769,2.0238,2.0087,2.0345,2.1681,2.2152,2.2634,2.4526,2.5038,2.5029,2.5061,2.5329,2.533,2.4463,2.4923,2.5545,2.5673,2.6507,2.7555,2.8791,2.9149,2.9661,3.0801,3.1184,3.1582,3.2384,3.2583,3.2903,3.3707,3.3807,3.3807,3.3807,3.3807,3.3807,3.3807,3.3807,3.3807,3.3807,3.3807,3.3807,3.3807,3.3036,3.2614,3.2614,3.1935,3.1604,3.1586,3.0925,3.0889,3.1347,2.9879,2.946,2.987,2.9265,2.8888,2.8793,2.9777,3.021,3.021,3.0356,3.0797,3.1329,3.0815,3.1458,3.2724,-0.1904,-0.0825,0.0,0.0,0.0,0.0,0.0,0.0,0.0673,0.2477,0.2678,0.4,0.7432,0.9192,1.0098,1.0231,1.0364,1.0428,1.0428,1.0561,1.0688,1.0982,1.0995,1.1149,1.1476,1.3439,1.4661,1.5021,1.607,1.7001,1.7794,1.794,1.8008,1.8008,1.8008,1.8462,1.9299,1.9299,1.9759,2.0322,1.9553,1.9149,1.9149,1.9781,1.9663,1.9325,2.1602,2.2231,2.2068,2.2051,2.1769,2.1368,2.1292,2.1255,2.1521,2.2821,2.3622,2.4454,2.5854,2.6323,2.6471,2.698,2.6745,2.6455,2.6798,2.6847,2.7005,2.7652,2.8535,2.9179,2.9033,2.9795,3.0418,3.0285,3.1096,3.1897,3.2417,3.284,3.3273,3.3734,3.3807,3.3807,3.3807,3.3807,3.3807,3.3807,3.3807,3.3807,3.3807,3.3807,3.3807,3.3807,3.3036,3.2614,3.2614,3.2504,3.2449,3.2449,3.2339,3.1971,3.1366,3.0448,3.0442,3.1078,2.9635,2.9379,2.9954,3.0131,3.021,3.0265,3.0962,3.1292,3.1458,3.2063,3.2412,3.2724,-0.1244,-0.0409,0.0,0.0,0.0,0.0,0.0,0.0404,0.1208,0.2544,0.3145,0.4403,0.6976,0.8807,1.0047,1.0561,1.0624,1.0624,1.0624,1.1045,1.1101,1.0806,1.1631,1.2018,1.1881,1.3794,1.5094,1.5609,1.6812,1.7569,1.8008,1.8008,1.8008,1.8008,1.8529,1.9233,2.0074,2.0526,2.0974,2.1302,2.091,2.0462,2.0074,2.0462,2.0333,2.0268,2.1865,2.2541,2.2723,2.2422,2.2146,2.1895,2.1581,2.1801,2.2372,2.3635,2.4565,2.5506,2.717,2.7667,2.7733,2.7944,2.8008,2.8082,2.8388,2.8616,2.8728,2.8636,2.9144,2.9761,3.0263,3.0525,3.0855,3.1359,3.1653,3.2057,3.2777,3.3075,3.3332,3.3734,3.3807,3.3807,3.3807,3.3807,3.3807,3.3807,3.3807,3.3807,3.3807,3.3807,3.3807,3.3807,3.3458,3.3275,3.3275,3.3275,3.3275,3.3275,3.3275,3.3091,3.2687,3.1439,3.0954,3.1091,3.0576,3.0167,2.9963,3.1089,3.1549,3.1586,3.1935,3.2063,3.2173,3.2981,3.3275,3.333]},{"header":{"parameterUnit":"m.s-1","parameterCategory":1,"la1":30.6,"la2":28.766,"lo1":-90.7593,"lo2":-88.6598,"dx":0.0162,"dy":0.0183,"nx":116,"ny":114,"refTime":"2022-12-25T06:00:00:Z","depth":0,"parameterNumber":3,"parameterNumberName":"V-component_of_WINDS"},"data":[0.0,0.0,0.0,0.0,0.0,0.0,0.0,0.0,0.0,0.0,0.0,0.0,0.0,0.0,0.0,0.0,0.0,0.0,0.0,0.0,0.0,0.0,0.0,0.0,0.0,0.0,0.0,0.0,0.0,0.0,0.0,0.0,0.0,0.0,0.0,0.0,0.0,0.0,0.0,0.0,0.0,0.0,0.0,0.0,0.0,0.0,0.0,0.0,0.0,0.0,0.0,0.0,0.0,0.0,0.0,0.0,0.0,0.0,0.0,0.0,0.0,0.0,0.0,0.0,0.0,0.0,0.0,0.0,0.0,0.0,0.0,0.0,0.0,0.0,0.0,0.0,0.0,0.0,0.0,0.0,0.0,0.0,0.0,0.0,0.0,0.0,0.0,0.0,0.0,0.0,0.0,0.0,0.0,0.0,0.0,0.0,0.0,0.0,0.0,0.0,0.0,0.0,0.0,0.0,0.0,0.0,0.0,0.0,0.0,0.0,0.0,0.0,0.0,0.0,0.0,0.0,0.0,0.0,0.0,0.0,0.0,0.0,0.0,0.0,0.0,0.0,0.0,0.0,0.0,0.0,0.0,0.0,0.0,0.0,0.0,0.0,0.0,0.0,0.0,0.0,0.0,0.0,0.0,0.0,0.0,0.0,0.0,0.0,0.0,0.0,0.0,0.0,0.0,0.0,0.0,0.0,0.0,0.0,0.0,0.0,0.0,0.0,0.0,0.0,0.0,0.0,0.0,0.0,0.0,0.0,0.0,0.0,0.0,0.0,0.0,0.0,0.0,0.0,0.0,0.0,0.0,0.0,0.0,0.0,0.0,0.0,0.0,0.0,0.0,0.0,0.0,0.0,0.0,0.0,0.0,0.0,0.0,0.0,0.0,0.0,0.0,0.0,0.0,0.0,0.0,0.0,0.0,0.0,0.0,0.0,0.0,0.0,0.0,0.0,0.0,0.0,0.0,0.0,0.0,0.0,0.0,0.0,0.0,0.0,0.0,0.0,0.0,0.0,0.0,0.0,0.0,0.0,0.0,0.0,0.0,0.0,0.0,0.0,0.0,0.0,0.0,0.0,0.0,0.0,0.0,0.0,0.0,0.0,0.0,0.0,0.0,0.0,0.0,0.0,0.0,0.0,0.0,0.0,0.0,0.0,0.0,0.0,0.0,0.0,0.0,0.0,0.0,0.0,0.0,0.0,0.0,0.0,0.0,0.0,0.0,0.0,0.0,0.0,0.0,0.0,0.0,0.0,0.0,0.0,0.0,0.0,0.0,0.0,0.0,0.0,0.0,0.0,0.0,0.0,0.0,0.0,0.0,0.0,0.0,0.0,0.0,0.0,0.0,0.0,0.0,0.0,0.0,0.0,0.0,0.0,0.0,0.0,0.0,0.0,0.0,0.0,0.0,0.0,0.0,0.0,0.0,0.0,0.0,0.0,0.0,0.0,0.0,0.0,0.0,0.0,0.0,0.0,0.0,0.0,0.0,0.0,0.0,0.0,0.0,0.0,0.0,0.0,0.0,0.0,0.0,0.0,0.0,0.0,0.0,0.0,0.0,0.0,0.0,0.0,0.0,0.0,0.0,0.0,0.0,0.0,0.0,0.0,0.0,0.0,0.0,0.0,0.0,0.0,0.0,0.0,0.0,0.0,0.0,0.0,0.0,0.0,0.0,0.0,0.0,0.0,0.0,0.0,0.0,0.0,0.0,0.0,0.0,0.0,0.0,0.0,0.0,0.0,0.0,0.0,0.0,0.0,0.0,0.0,0.0,0.0,0.0,0.0,0.0,0.0,0.0,0.0,0.0,0.0,0.0,0.0,0.0,0.0,0.0,0.0,0.0,0.0,0.0,0.0,0.0,0.0,0.0,0.0,0.0,0.0,0.0,0.0,0.0,0.0,0.0,0.0,0.0,0.0,0.0,0.0,0.0,0.0,0.0,0.0,0.0,0.0,0.0,0.0,0.0,0.0,0.0,0.0,0.0,0.0,0.0,0.0,0.0,0.0,0.0,0.0,0.0,0.0,0.0,0.0,0.0,0.0,0.0,0.0,0.0,0.0,0.0,0.0,0.0,0.0,0.0,0.0,0.0,0.0,0.0,0.0,0.0,0.0,0.0,0.0,0.0,0.0,0.0,0.0,0.0,0.0,0.0,0.0,0.0,0.0,0.0,0.0,0.0,0.0,0.0,0.0,0.0,0.0,0.0,0.0,0.0,0.0,0.0,0.0,0.0,0.0,0.0,0.0,0.0,0.0,0.0,0.0,0.0,0.0,0.0,0.0,0.0,0.0,0.0,0.0,0.0,0.0,0.0,0.0,0.0,0.0,0.0,0.0,0.0,0.0,0.0,0.0,0.0,0.0,0.0,0.0,0.0,0.0,0.0,0.0,0.0,0.0,0.0,0.0,0.0,0.0,0.0,0.0,0.0,0.0,0.0,0.0,0.0,0.0,0.0,0.0,0.0,0.0,0.0,0.0,0.0,0.0,0.0,0.0,0.0,0.0,0.0,0.0,0.0,0.0,0.0,0.0,0.0,0.0,0.0,0.0,0.0,0.0,0.0,0.0,0.0,0.0,0.0,0.0,0.0,0.0,0.0,0.0,0.0,0.0,0.0,0.0,0.0,0.0,0.0,0.0,0.0,0.0,0.0,0.0,0.0,0.0,0.0,0.0,0.0,0.0,0.0,0.0,0.0,0.0,0.0,0.0,0.0,0.0,0.0,0.0,0.0,0.0,0.0,0.0,0.0,0.0,0.0,0.0,0.0,0.0,0.0,0.0,0.0,0.0,0.0,0.0,0.0,0.0,0.0,0.0,0.0,0.0,0.0,0.0,0.0,0.0,0.0,0.0,0.0,0.0,0.0,0.0,0.0,0.0,0.0,0.0,0.0,0.0,0.0,0.0,0.0,0.0,0.0,0.0,0.0,0.0,0.0,0.0,0.0,0.0,0.0,0.0,0.0,0.0,0.0,0.0,0.0,0.0,0.0,0.0,0.0,0.0,0.0,0.0,0.0,0.0,0.0,0.0,0.0,0.0,0.0,0.0,0.0,0.0,0.0,0.0,0.0,0.0,0.0,0.0,0.0,0.0,0.0,0.0,0.0,0.0,0.0,0.0,0.0,0.0,0.0,0.0,0.0,0.0,0.0,0.0,0.0,0.0,0.0,0.0,0.0,0.0,0.0,0.0,0.0,0.0,0.0,0.0,0.0,0.0,0.0,0.0,0.0,0.0,0.0,0.0,0.0,0.0,0.0,0.0,0.0,0.0,0.0,0.0,0.0,0.0,0.0,0.0,0.0,0.0,0.0,0.0,0.0,0.0,0.0,0.0,0.0,0.0,0.0,0.0,0.0,0.0,0.0,0.0,0.0,0.0,0.0,0.0,0.0,0.0,0.0,0.0,0.0,0.0,0.0,0.0,0.0,0.0,0.0,0.0,0.0,0.0,0.0,0.0,0.0,0.0,0.0,0.0,0.0,0.0,0.0,0.0,0.0,0.0,0.0,0.0,0.0,0.0,0.0,0.0,0.0,0.0,0.0,0.0,0.0,0.0,0.0,0.0,0.0,0.0,0.0,0.0,0.0,0.0,0.0,0.0,0.0,0.0,0.0,0.0,0.0,0.0,0.0,0.0,0.0,0.0,0.0,0.0,0.0,0.0,0.0,0.0,0.0,0.0,0.0,0.0,0.0,0.0,0.0,0.0,0.0,0.0,0.0,0.0,0.0,0.0,0.0,0.0,0.0,0.0,0.0,0.0,0.0,0.0,0.0,0.0,0.0,0.0,0.0,0.0,0.0,0.0,0.0,0.0,0.0,0.0,0.0,0.0,0.0,0.0,0.0,0.0,0.0,0.0,0.0,0.0,0.0,0.0,0.0,0.0,0.0,0.0,0.0,0.0,0.0,0.0,0.0,0.0,0.0,0.0,0.0,0.0,0.0,0.0,0.0,0.0,0.0,0.0,0.0,0.0,0.0,0.0,0.0,0.0,0.0,0.0,0.0,0.0,0.0,0.0,0.0,0.0,0.0,0.0,0.0,0.0,0.0,0.0,0.0,0.0,0.0,0.0,0.0,0.0,0.0,0.0,0.0,0.0,0.0,0.0,0.0,0.0,0.0,0.0,0.0,0.0,0.0,0.0,0.0,0.0,0.0,0.0,0.0,0.0,0.0,0.0,0.0,0.0,0.0,0.0,0.0,0.0,0.0,0.0,0.0,0.0,0.0,0.0,0.0,0.0,0.0,0.0,0.0,0.0,0.0,0.0,0.0,0.0,0.0,0.0,0.0,0.0,0.0,0.0,0.0,0.0,0.0,0.0,0.0,0.0,0.0,0.0,0.0,0.0,0.0,0.0,0.0,0.0,0.0,0.0,0.0,0.0,0.0,0.0,0.0,0.0,0.0,0.0,0.0,0.0,0.0,0.0,0.0,0.0,0.0,0.0,0.0,0.0,0.0,0.0,0.0,0.0,0.0,0.0,0.0,0.0,0.0,0.0,0.0,0.0,0.0,0.0,0.0,0.0,0.0,0.0,0.0,0.0,0.0,0.0,0.0,0.0,0.0,0.0,0.0,0.0,0.0,0.0,0.0,0.0,0.0,0.0,0.0,0.0,0.0,0.0,0.0,0.0,0.0,0.0,0.0,0.0,0.0,0.0,0.0,0.0,0.0,0.0,0.0,0.0,0.0,0.0,0.0,0.0,0.0,0.0,0.0,0.0,0.0,0.0,0.0,0.0,0.0,0.0,0.0,0.0,0.0,0.0,0.0,0.0,0.0,0.0,0.0,0.0,0.0,0.0,0.0,0.0,0.0,0.0,0.0,0.0,0.0,0.0,0.0,0.0,0.0,0.0,0.0,0.0,0.0,0.0,0.0,0.0,0.0,0.0,0.0,0.0,0.0,0.0,0.0,0.0,0.0,0.0,0.0,0.0,0.0,0.0,0.0,0.0,0.0,0.0,0.0,0.0,0.0,0.0,0.0,0.0,0.0,0.0,0.0,0.0,0.0,0.0,0.0,0.0,0.0,0.0,0.0,0.0,0.0,0.0,0.0,0.0,0.0,0.0,0.0,0.0,0.0,0.0,0.0,0.0,0.0,0.0,0.0,0.0,0.0,0.0,0.0,0.0,0.0,0.0,0.0,0.0,0.0,0.0,0.0,0.0,0.0,0.0,0.0,0.0,0.0,0.0,0.0,0.0,0.0,0.0,0.0,0.0,0.0,0.0,0.0,0.0,0.0,0.0,0.0,0.0,0.0,0.0,0.0,0.0,0.0,0.0,0.0,0.0,0.0,0.0,0.0,0.0,0.0,0.0,0.0,0.0,0.0,0.0,0.0,0.0,0.0,0.0,0.0,0.0,0.0,0.0,0.0,0.0,0.0,0.0,0.0,0.0,0.0,0.0,0.0,0.0,0.0,0.0,0.0,0.0,0.0,0.0,0.0,0.0,0.0,0.0,0.0,0.0,0.0,0.0,0.0,0.0,0.0,0.0,0.0,0.0,0.0,0.0,0.0,0.0,0.0,0.0,0.0,0.0,0.0,0.0,0.0,0.0,0.0,0.0,0.0,0.0,0.0,0.0,0.0,0.0,0.0,0.0,0.0,0.0,0.0,0.0,0.0,0.0,0.0,0.0,0.0,0.0,0.0,0.0,0.0,0.0,0.0,0.0,0.0,0.0,0.0,0.0,0.0,0.0,0.0,0.0,0.0,0.0,0.0,0.0,0.0,0.0,0.0,0.0,0.0,0.0,0.0,0.0,0.0,0.0,0.0,0.0,0.0,0.0,0.0,0.0,0.0,0.0,0.0,0.0,0.0,0.0,0.0,0.0,0.0,0.0,0.0,0.0,0.0,0.0,0.0,0.0,0.0,0.0,0.0,0.0,0.0,0.0,0.0,0.0,0.0,0.0,0.0,0.0,0.0,0.0,0.0,0.0,0.0,0.0,0.0,0.0,0.0,0.0,0.0,0.0,0.0,0.0,0.0,0.0,0.0,0.0,0.0,0.0,0.0,0.0,0.0,0.0,0.0,0.0,0.0,0.0,0.0,0.0,0.0,0.0,0.0,0.0,0.0,0.0,0.0,0.0,0.0,0.0,0.0,0.0,0.0,0.0,0.0,0.0,0.0,0.0,1.4804,0.0,0.0,0.0,0.0,0.0,0.0,0.0,0.0,0.0,0.0,0.0,0.0,0.0,0.0,0.0,0.0,0.0,0.0,0.0,0.0,0.0,0.0,0.0,0.0,0.2416,0.308,0.3369,0.3369,0.0,0.0,0.0,0.0,0.0,0.0,0.0,0.0,0.0,0.0,0.0,0.0,0.8472,1.2453,1.0245,0.754,0.4518,0.0,0.0,0.0,0.0,0.0,0.0,0.0,0.0,0.0,0.0,0.0,0.0,0.0,0.0,0.0,0.0,0.0,0.0,0.0,0.0,0.0,0.0,0.0,0.0,0.0,0.0,0.0,0.0,0.0,0.0,0.0,0.0,0.0,0.0,0.0,0.0,0.0,0.0,0.0,0.0,0.0,0.0,0.0,0.0,0.0,0.0,0.0,0.0,0.0,0.0,0.0,0.0,0.0,0.0,0.0,0.0,0.0,0.0,0.0,0.0,0.0,0.0,0.0,0.0,0.0,0.0,0.0,0.0,0.0,0.0,0.0,1.5366,0.0,0.0,0.0,0.0,0.0,0.0,0.0,0.0,0.0,0.0,0.0,0.0,0.0,0.0,0.0,0.0,0.0,0.0,0.0,0.0,0.0,0.1149,0.2983,0.2844,0.2878,0.3479,0.325,0.3195,0.349,0.3361,0.0,0.0,0.0,0.0,0.0,0.398,0.5571,0.0,0.0,0.0,1.6068,1.5721,0.0,0.0,0.0,0.0,0.0,0.0,0.0,0.0,0.0,0.0,0.0,0.0,0.0,0.0,0.0,0.0,0.0,0.0,0.0,0.0,0.0,0.0,0.0,0.0,0.0,0.0,0.0,0.0,0.0,0.0,0.0,0.0,0.0,0.0,0.0,0.0,0.0,0.0,0.0,0.0,0.0,0.0,0.0,0.0,0.0,0.0,0.0,0.0,0.0,0.0,0.0,0.0,0.0,0.0,0.0,0.0,0.0,0.0,0.0,0.0,0.0,0.0,0.0,0.0,0.0,0.0,0.0,0.0,2.1996,2.2564,2.3321,2.4044,2.0555,1.9998,2.1226,0.0,0.0,0.0,0.0,0.0,0.0,0.0,0.0,0.0,0.0,0.0,0.0,0.0,0.0,0.0,0.0,0.0,0.0,0.0,0.0,0.237,0.2665,0.2742,0.3021,0.3623,0.322,0.3114,0.3551,0.3293,0.0,0.0,0.0,0.0,0.3644,0.432,0.5905,0.0,0.0,0.0,1.8396,1.9919,2.0365,1.9659,0.0,0.0,0.0,0.0,0.0,0.0,0.0,0.0,0.0,0.0,0.0,0.0,0.0,0.0,0.0,0.0,0.0,0.0,0.0,0.0,0.0,0.0,0.0,0.0,0.0,0.0,0.0,0.0,0.0,0.0,0.0,0.0,0.0,0.0,0.0,0.0,0.0,0.0,0.0,0.0,0.0,0.0,0.0,0.0,1.2073,1.34,0.0,0.0,0.0,0.0,0.0,0.0,0.0,0.0,0.0,0.0,0.0,0.0,0.0,0.0,1.9609,2.2712,2.4727,2.5611,2.713,2.7872,2.7872,2.7973,2.8429,2.9036,2.7214,0.0,2.2106,2.1383,0.0,0.0,0.0,0.0,0.0,0.0,0.0,0.0,0.0,0.0,0.0,0.0,0.0,0.0,0.0,0.0,0.0,0.0,0.0,0.0,0.0,0.3376,0.38,0.4896,0.4568,0.4308,0.433,0.4186,0.0,0.0,0.0,0.3264,0.331,0.4985,0.8034,1.2447,1.7259,2.0289,2.1634,2.318,2.4358,2.509,2.3027,1.9147,1.3972,1.1496,0.0,0.0,0.0,0.0,0.0,0.0,0.0,0.0,0.0,0.0,0.0,0.0,0.0,0.0,0.0,0.0,0.0,0.0,0.0,0.0,0.0,0.0,0.0,0.0,0.0,0.0,0.0,0.0,0.0,0.0,0.0,0.0,0.0,0.0,0.0,0.0,0.0,0.0,0.0,1.3306,1.4424,1.6169,1.4928,1.3645,0.0,0.0,0.0,0.0,0.0,0.0,0.0,0.0,0.0,1.9925,2.0814,2.2476,2.508,2.6605,2.7735,2.8619,2.9296,2.9837,3.0226,3.0226,3.0395,3.0683,3.0006,2.8569,2.6522,2.415,2.2324,2.0697,0.0,0.0,0.0,0.0,0.0,0.0,0.0,0.0,0.0,0.0,0.0,0.0,0.0,0.0,0.0,0.0,0.0,0.0,0.3536,0.3884,0.451,0.5515,0.543,0.5331,0.5253,0.4929,0.431,0.335,0.3035,0.2985,0.3178,0.6481,1.0705,0.0,1.9457,2.2318,2.4284,2.5611,2.695,2.8212,2.8283,2.5171,1.9694,1.7861,1.3903,0.0,0.0,0.0,0.0,0.0,0.0,0.0,0.0,0.0,0.0,0.0,0.0,0.0,0.0,0.0,0.0,0.0,0.0,0.0,0.0,0.0,0.0,0.0,0.0,0.0,0.0,0.0,0.0,0.0,0.0,0.0,0.0,0.0,0.0,0.0,0.0,0.0,0.0,1.5899,1.6363,1.8253,1.6879,1.553,0.0,0.0,0.0,0.0,0.0,0.0,1.8942,1.926,2.0824,2.3802,2.434,2.5954,2.8803,2.9152,2.9707,3.0378,3.0378,3.0666,3.119,3.119,3.119,3.119,3.1015,3.0656,2.9895,2.6659,2.4977,2.4199,2.2021,0.0,0.0,0.0,1.9827,1.9249,0.0,0.0,0.0,0.0,0.0,0.0,0.0,0.0,0.0,0.0,0.0,0.2287,0.2386,0.3922,0.4804,0.451,0.4925,0.5509,0.618,0.5041,0.4354,0.4421,0.3084,0.2673,0.3368,0.9247,1.3605,1.6263,2.1227,2.4261,2.5547,2.7014,2.8292,2.9316,2.906,2.7391,2.4647,2.3139,2.1794,1.97,0.0,0.0,0.0,0.0,0.0,0.0,0.0,0.0,0.0,0.0,0.0,0.0,0.0,0.0,0.0,0.0,0.0,0.0,0.0,0.0,0.0,0.0,0.0,0.0,0.0,0.0,0.0,0.0,0.0,0.0,0.0,0.0,0.0,0.0,0.0,0.0,0.0,0.0,0.0,1.8527,1.8568,0.0,0.0,0.0,0.0,1.8448,1.9151,2.0393,2.2323,2.3529,2.4568,2.5453,2.7193,2.8255,2.8442,2.9623,3.0517,3.114,3.114,3.1157,3.119,3.119,3.119,3.1151,3.0601,3.0318,3.0219,2.9386,2.7512,2.5137,2.3916,2.2613,2.1581,2.2895,2.3349,2.3483,0.0,0.0,0.0,0.0,0.0,0.0,0.0,0.0696,0.1141,0.0921,0.1055,0.126,0.1494,0.2612,0.3812,0.5081,0.6278,0.6953,0.6868,0.6322,0.5664,0.4989,0.3747,0.4471,0.7454,1.0891,1.429,1.7588,2.0947,2.3319,2.4786,2.6442,2.7633,2.8402,2.9133,2.8771,2.7533,2.6285,2.4451,2.1978,1.7191,1.0977,0.0,0.0,0.0,0.0,0.0,0.0,0.0,0.0,0.0,0.0,0.0,0.0,0.0,0.0,0.0,0.0,0.0,0.0,0.0,0.0,0.0,0.0,0.0,0.0,0.0,0.0,0.0,0.0,0.0,0.0,0.0,0.0,0.0,0.0,0.0,0.0,0.0,2.0864,2.0412,0.0,0.0,2.0034,2.0557,2.1201,2.2263,2.3355,2.4507,2.5395,2.6123,2.6826,2.7906,2.8663,2.9066,2.95,3.0021,3.0617,3.0617,3.0821,3.119,3.119,3.119,3.1151,3.0559,3.0293,3.0234,2.9615,2.8533,2.715,2.6259,2.5403,2.4797,2.5595,2.5701,2.5443,0.0,0.0,0.0,0.0,0.0,0.0,0.0,0.0264,0.0231,-0.0392,-0.0385,-0.0146,0.0314,0.0904,0.2147,0.435,0.6454,0.7598,0.7417,0.6842,0.6228,0.5671,0.0,0.5338,0.0,1.1547,1.4423,1.7824,2.062,2.2708,2.4151,2.5564,2.6725,2.7656,2.8633,2.8948,2.8762,2.8132,2.6749,2.4771,2.2659,1.7145,0.9963,0.0,0.0,0.0,0.0,0.0,0.0,0.0,0.0,0.0,0.0,0.0,0.0,0.0,0.0,0.0,0.0,0.0,0.0,0.0,0.0,0.0,0.0,0.0,0.0,0.0,0.0,0.0,0.0,0.0,0.0,0.0,0.0,0.0,0.0,0.0,2.0553,2.195,2.168,2.1455,2.1665,2.2293,2.3056,2.3939,2.4807,2.557,2.6243,2.6871,2.7324,2.7532,2.8168,2.8685,2.9088,2.9104,2.9406,2.9995,3.0208,3.0518,3.0878,3.1112,3.119,3.1151,3.0559,3.0166,2.9995,2.9585,2.8849,2.8028,2.7769,2.7418,2.7163,2.7507,2.7418,2.7041,0.0,0.0,0.0,0.0,0.0,-0.0007,-0.0024,-0.0239,-0.0837,-0.2041,-0.2157,-0.1872,-0.1255,-0.1046,-0.0078,0.2099,0.5115,0.7143,0.774,0.6466,0.5884,0.0,0.0,0.0,0.7977,1.1174,1.4173,1.6956,2.0416,2.2685,2.3807,2.4575,2.5735,2.7172,2.7635,2.8047,2.8437,2.8857,2.9021,2.8691,2.4759,2.2408,2.0584,0.0,0.0,0.0,0.0,0.0,0.0,0.0,0.0,0.0,0.0,0.0,0.0,0.0,0.0,0.0,0.0,0.0,0.0,0.0,0.0,0.0,0.0,0.0,0.0,0.0,0.0,0.0,0.0,0.0,0.0,0.0,0.0,0.0,1.9543,1.975,2.0288,2.1665,2.2383,2.3026,2.3655,2.4328,2.5255,2.6527,2.6617,2.6901,2.758,2.8189,2.8238,2.7675,2.8189,2.8511,2.8463,2.8463,2.8779,2.9361,2.9978,3.0293,3.0293,3.0918,3.119,3.1151,3.0559,2.9995,2.9406,2.9406,2.867,2.7675,2.8271,2.8463,2.8463,2.8463,2.8463,2.8275,0.0295,0.0,0.0,0.0,0.0,-0.0146,-0.0587,-0.0513,-0.0862,-0.2169,-0.2337,-0.2579,-0.327,-0.2938,-0.1855,0.0044,0.2687,0.5096,0.711,0.5943,0.4502,0.0,0.0,0.0,0.0,0.0,0.0,1.8521,2.0904,2.2502,2.3323,2.4998,2.5908,2.6204,2.8259,2.8875,2.847,2.9351,2.9642,2.9382,2.7941,2.5374,2.2244,0.0,0.0,0.0,0.0,0.0,0.0,0.0,0.0,0.0,0.0,0.0,0.0,0.0,0.0,0.0,0.0,0.0,0.0,0.0,0.0,0.0,0.0,0.0,0.0,0.0,0.0,0.0,0.0,0.0,0.0,0.0,0.0,1.8774,2.0206,2.1246,2.2517,2.4328,2.4687,2.5241,2.6363,2.6647,2.6916,2.7275,2.7355,2.7614,2.8222,2.8415,2.8415,2.8286,2.8415,2.8286,2.786,2.786,2.814,2.8732,2.9361,2.9892,3.0293,3.0918,3.119,3.1151,3.0559,3.0208,2.9978,2.9088,2.8543,2.8286,2.8431,2.8238,2.786,2.786,2.786,2.778,0.1504,0.0726,0.021,0.0353,0.0166,-0.0155,-0.0619,-0.0648,-0.1182,-0.2778,-0.2816,-0.3286,-0.4839,-0.517,-0.4466,-0.2421,-0.0865,0.1253,0.4342,0.3212,0.0,0.0,0.0,0.0,0.0,0.0,0.0,1.9617,2.1783,2.3026,2.3383,2.4623,2.5279,2.5468,2.7223,2.7829,2.7604,2.8879,2.9334,2.9212,2.9289,2.7605,2.4931,2.3879,2.1676,1.9043,1.8074,1.7471,1.7046,1.6382,0.0,0.0,0.0,0.0,0.0,0.0,0.0,0.0,0.0,0.0,0.0,0.0,0.0,0.0,0.0,0.0,0.0,0.0,0.0,0.0,0.0,0.0,0.0,0.0,1.8801,2.0017,2.1694,2.2577,2.3684,2.5405,2.5615,2.6123,2.744,2.7625,2.7625,2.7625,2.7625,2.786,2.8463,2.8511,2.8606,2.8873,2.8873,2.8606,2.7993,2.8222,2.84,2.8511,2.9361,2.9935,3.0293,3.0918,3.119,0.0,3.0838,3.0393,2.9892,2.9451,2.8826,0.0,0.0,0.0,0.0,0.0,0.0,2.7625,0.3015,0.1715,0.0593,0.0858,0.0458,-0.0012,-0.035,-0.0687,-0.1563,-0.34,-0.3366,-0.3897,-0.5825,-0.7237,-0.7229,-0.5346,-0.5129,-0.3705,-0.0367,-0.1451,0.0,-0.7317,0.0,0.0,0.0,0.0,0.0,1.9871,2.2397,2.3679,2.3735,2.404,2.4463,2.5027,2.5627,2.6053,2.641,2.79,2.8472,2.8479,2.9359,2.9114,2.7942,2.5742,2.4282,2.3199,2.1642,2.0551,1.9792,1.9349,0.0,0.0,0.0,0.0,0.0,0.0,0.0,0.0,0.0,0.0,0.0,0.0,0.0,0.0,0.0,0.0,0.0,0.0,0.0,0.0,0.0,0.0,0.0,0.0,1.9992,2.1605,2.3375,2.3595,2.4073,2.5345,2.5555,2.6093,2.7335,2.758,2.7625,2.7625,2.766,2.7944,0.0,0.0,0.0,0.0,0.0,2.918,2.8511,2.9042,2.9042,2.8511,2.9673,3.0208,3.0293,3.0918,3.119,3.119,3.119,3.0559,2.954,3.0038,2.9164,2.7625,2.7625,2.7565,2.752,2.7595,2.7565,0.0,0.2105,0.158,0.1143,0.0932,0.0804,0.0473,-0.0288,-0.0685,-0.132,-0.2517,-0.3112,-0.4011,-0.5604,-0.6766,-0.7997,-0.9301,-0.8968,-0.849,-0.7962,0.0,0.0,0.0,0.0,0.0,0.0,0.0,0.0,1.724,2.0515,2.2746,2.3964,2.4872,2.5183,2.5054,2.6516,2.6831,2.6385,2.7532,2.792,2.7856,2.8909,2.934,2.9322,2.8852,2.8516,2.8221,2.7398,2.7002,2.664,2.5363,2.375,2.2095,2.0891,0.0,0.0,0.0,0.0,0.0,0.0,0.0,0.0,0.0,0.0,0.0,0.0,0.0,0.0,0.0,0.0,0.0,0.0,0.0,0.0,2.0122,2.1168,2.2149,2.3419,2.3595,2.3909,2.4717,2.5285,2.5914,2.6707,2.726,2.7625,2.7625,2.8042,2.8606,2.918,2.9673,0.0,3.0123,3.0123,2.9585,2.8511,2.8606,2.8606,2.8511,0.0,0.0,3.0293,3.0918,3.119,3.119,3.119,3.0797,3.0123,2.9717,2.881,2.7625,2.7625,2.7245,2.6841,2.743,2.7245,2.6782,0.1871,0.1607,0.1331,0.0965,0.0648,0.0301,-0.0133,-0.0679,-0.1454,-0.2599,-0.3095,-0.4099,-0.6055,-0.6568,-0.7411,-0.8885,-0.913,-0.9729,0.0,0.0,0.0,0.0,0.0,0.0,0.0,0.0,0.0,1.6244,2.0445,2.3146,2.4353,2.4941,2.5059,2.4817,2.5228,2.5299,2.5143,2.5887,2.6345,2.668,2.7769,2.8615,2.9295,2.9809,2.9983,2.9893,2.9454,2.9209,2.8964,2.7969,2.6792,2.5524,2.4255,2.1744,1.8638,0.0,0.0,0.0,0.0,0.0,0.0,0.0,0.0,0.0,0.0,0.0,0.0,0.0,0.0,1.5235,0.0,0.0,1.9377,2.1152,2.1946,2.26,2.3463,2.3595,2.3849,2.4507,2.5211,2.5869,2.6527,2.7186,2.7625,2.7625,2.786,2.8448,2.9361,2.9673,2.9995,3.0293,3.0293,2.9717,2.8511,2.8779,2.8779,2.8511,2.9406,3.0038,3.0293,3.0918,3.1015,3.074,3.074,3.0251,2.9361,2.8764,2.8125,2.7625,2.7625,2.7171,2.6632,2.6961,2.6662,2.6093,0.1856,0.1636,0.1329,0.0965,0.0401,-0.0056,-0.0222,-0.0786,-0.1615,-0.278,-0.3064,-0.3978,-0.6113,-0.6341,-0.6566,-0.7222,-0.8467,0.0,0.0,0.0,0.0,0.0,0.0,0.0,0.0,0.0,0.0,1.4832,2.0057,2.3187,2.4265,2.4381,2.4294,2.4007,2.3197,2.305,2.3431,2.3904,2.4501,2.5256,2.6427,2.7472,2.8447,2.9432,3.0001,3.023,2.9973,2.9633,2.9251,2.8916,2.8366,2.7581,2.6268,2.4661,2.2432,1.82,1.6406,0.0,0.0,0.0,0.0,0.0,0.0,0.0,0.0,0.0,1.4386,1.5511,1.6441,1.7437,1.8829,1.9936,2.0953,2.2033,2.2585,2.3054,2.3508,2.3595,2.3804,2.4313,2.5016,2.5674,2.6333,2.6991,2.749,2.761,2.771,2.8271,2.9361,2.9406,2.9673,3.0293,3.0293,2.9717,2.8511,2.9104,2.9104,2.8511,2.9496,3.0038,3.0123,3.0617,3.0576,3.0123,2.9978,2.9406,2.8463,2.786,2.7625,2.7625,2.7625,2.7171,2.6587,2.6587,2.6093,2.542,0.1809,0.1458,0.1166,0.0943,0.0401,-0.0266,-0.1031,-0.1177,-0.1472,-0.2204,-0.2722,-0.3465,-0.4631,-0.574,-0.6494,-0.676,-0.9425,0.0,0.0,0.0,0.0,0.0,0.0,0.0,0.0,0.0,0.0,1.0664,1.7058,2.1045,2.2665,2.2975,2.2717,2.2009,2.1419,2.1357,2.1711,2.2357,2.2986,2.3692,2.525,2.6194,2.6771,2.7725,2.9074,3.0438,3.0221,2.9632,2.8937,2.8847,2.8228,2.7496,2.7192,2.5767,2.3968,2.2548,0.0,1.703,1.6368,1.5843,0.0,1.3763,1.4813,1.6523,0.0,0.0,1.8244,1.9858,2.0299,2.0587,2.1384,2.2017,2.2642,2.3302,2.3463,2.3508,2.3595,2.3595,2.3625,2.3699,2.4313,2.5001,2.5659,2.6318,2.6946,2.758,2.8091,2.8685,2.9361,2.9406,2.9673,3.0293,3.0293,2.9717,2.8511,2.9104,2.9104,2.8511,2.8654,2.8996,2.9496,2.9585,2.9585,2.9451,2.8904,2.8606,2.8463,2.786,2.7625,2.7625,2.7625,2.7171,2.6587,2.6587,2.5809,2.4686,0.1809,0.1432,0.1141,0.0936,0.0398,-0.0277,-0.1112,-0.1319,-0.1627,-0.2342,-0.2974,-0.3641,-0.4404,-0.4558,-0.4902,-0.5654,-0.8055,0.0,-1.4095,0.0,0.0,0.0,0.0,0.0,0.0,0.0,0.0,0.8039,1.3948,1.8115,2.0605,2.1301,2.1341,2.0786,2.018,2.0199,2.0715,2.0983,2.168,2.2713,2.3941,2.5007,2.5961,2.6698,2.7879,2.9095,2.9003,2.8284,0.0,0.0,2.7942,2.6968,2.789,2.6339,2.3973,2.2983,2.1026,0.0,1.9516,0.0,0.0,0.0,1.7822,1.8428,1.903,1.9549,2.0174,2.1281,2.1735,2.2232,2.3173,2.3299,2.3522,0.0,2.4266,2.4184,2.4511,2.4552,2.4552,2.4552,2.4776,2.5145,2.5541,2.6468,2.7215,2.7565,2.781,2.8222,2.8826,2.8873,2.9012,2.9225,2.9585,2.9361,2.8511,2.8732,2.8919,2.8996,2.8996,2.9316,2.9951,3.0293,3.0064,2.9361,2.8415,2.8008,2.7944,2.771,2.7625,2.7625,2.7625,2.7171,2.6542,2.6153,2.5435,2.4522,0.1513,0.1115,0.0772,0.0458,-0.0,-0.0531,-0.1134,-0.1384,-0.175,-0.2427,-0.3016,-0.3628,-0.4267,-0.3915,-0.3808,-0.4265,-0.7012,-0.9567,0.0,-1.5212,0.0,0.0,0.0,0.0,0.0,0.0,0.0,0.5706,1.1135,1.5236,1.808,1.9092,1.9405,1.911,1.8469,1.8716,1.9637,1.9743,2.0622,2.2006,2.2911,2.4012,2.523,2.5772,2.6257,2.6748,2.7223,2.6673,0.0,0.0,2.6061,2.5294,2.6127,2.4931,2.3074,2.2651,2.1496,2.0323,2.0065,0.0,0.0,1.9727,2.0575,2.0863,2.0686,2.1396,2.2235,2.2706,2.3121,2.3664,2.4455,2.4307,2.4307,2.5051,2.4855,2.4752,2.5144,2.5221,2.5221,2.5221,2.5335,2.5584,2.603,2.6688,2.7349,2.7784,2.771,2.786,2.8463,2.8319,2.8334,2.8511,2.8919,2.8873,2.8286,2.8415,2.8638,2.8904,2.9088,2.9361,2.9805,3.0251,2.9978,2.9088,2.8027,2.7625,2.7625,2.7625,2.7625,2.7625,2.7625,2.7275,2.6782,2.6123,2.5465,2.4761,0.0724,0.0309,-0.0149,-0.0746,-0.102,-0.1188,-0.128,-0.1416,-0.1691,-0.2235,-0.2616,-0.31,-0.3839,-0.4237,-0.3954,-0.2694,-0.7147,-0.988,-0.9525,-1.2648,0.0,0.0,0.0,0.0,0.0,0.0,0.0,0.3512,0.8855,1.269,1.4959,1.6162,1.6662,1.6481,1.5947,1.6621,1.821,1.8655,1.9871,2.1586,2.2339,2.3311,2.4375,2.4733,2.4147,2.3372,2.4997,0.0,0.0,0.0,2.1829,2.2098,2.0786,2.0689,0.0,2.2315,2.1434,1.9592,0.0,0.0,2.0407,2.0474,2.2762,2.4846,2.4182,2.4595,2.5057,2.5112,2.5112,2.5128,2.5182,2.5182,2.5182,2.5182,2.5182,2.5182,2.5221,2.5221,2.5221,2.5221,2.5652,2.6297,0.0,2.6729,2.7009,2.837,2.7944,2.786,2.8463,2.7959,2.791,2.8463,2.8511,2.8238,2.7625,2.8189,2.8238,2.766,2.8238,2.8559,2.8559,2.8559,2.8559,2.8511,2.786,2.7625,2.7625,2.7625,2.7625,2.7625,2.7625,2.761,2.7505,2.6797,2.6153,2.548,0.0557,-0.0137,-0.0713,-0.1103,-0.1182,-0.1297,-0.1587,-0.1702,-0.1926,-0.2375,-0.156,0.0,0.0,0.0,0.0,0.0,-0.5057,-0.7535,-0.9473,-1.1366,0.0,0.0,0.0,0.0,0.0,0.0,0.0,0.1068,0.5233,0.9174,1.2759,1.4047,1.5089,1.5884,1.5664,1.6549,1.8131,1.8579,1.9708,2.1258,2.2204,2.2794,2.3286,2.501,2.3837,2.1262,0.0,0.0,0.0,0.0,0.0,0.0,2.1176,2.0149,1.878,1.8961,1.8697,1.8566,0.0,0.0,2.1487,2.2869,2.4414,2.5615,2.5595,2.5771,2.5909,2.5909,2.5909,2.5977,2.606,2.5829,2.5737,2.6106,2.5944,2.5835,2.6158,2.621,2.621,2.621,2.635,0.0,0.0,0.0,0.0,2.845,2.8319,2.8091,2.7894,2.771,2.766,2.791,2.8286,2.8415,2.8189,2.8383,2.8606,2.881,2.9406,2.9892,3.0293,2.9892,2.9496,2.9042,2.8463,2.7944,2.7625,2.7625,2.7625,2.7625,2.7625,2.7625,2.7595,2.732,2.7096,2.6752,0.0373,-0.0398,-0.0965,-0.1193,-0.1236,0.0,0.0,0.0,0.0,0.0,0.0,0.0,0.0,0.0,0.0,0.0,0.0,-0.5852,-0.7855,0.0,0.0,0.0,0.0,0.0,0.0,0.0,0.0,-0.0197,0.3174,0.6787,1.0673,1.2503,1.4043,1.5276,1.5499,1.6549,1.8131,1.8579,1.9879,2.1613,2.1729,2.2143,2.2782,2.3626,2.1907,0.0,0.0,0.0,0.0,0.0,0.0,1.7594,1.8811,1.8469,1.7483,1.6865,1.7139,1.8194,2.0748,2.1424,2.1908,2.4098,2.516,2.5773,2.601,2.6083,2.6125,2.6191,2.6137,2.607,2.6069,2.5978,2.6185,2.6962,2.7073,2.7186,2.7468,2.7503,2.7317,2.6759,2.6691,0.0,0.0,0.0,0.0,2.8418,2.8466,2.8238,2.7625,2.7625,2.7625,2.7625,2.8008,2.8271,2.8511,2.8286,2.8496,2.9088,2.9673,3.0293,3.0878,3.0477,3.0081,2.9673,2.8873,2.8271,2.7894,2.766,2.7625,2.7625,2.7625,2.7625,2.7625,2.7625,2.7625,2.746,0.0167,-0.049,-0.0943,0.0,0.0,0.0,0.0,0.0,0.0,0.0,0.0,0.0,0.0,0.0,0.0,0.0,0.0,0.0,-0.4913,0.0,0.0,0.0,0.0,0.0,0.0,0.0,0.0,0.0,0.2584,0.561,0.8684,1.1376,1.3315,1.4564,1.5145,1.6342,1.7951,1.8432,2.0062,2.2235,2.0732,2.1092,2.2356,2.0665,0.0,0.0,0.0,0.0,0.0,0.0,0.0,1.3486,1.4167,1.5836,1.7349,1.6265,1.6975,1.8481,2.0141,2.0985,2.1918,2.4171,2.5154,2.561,2.5745,2.5744,2.576,2.5899,2.5742,2.5482,0.0,0.0,2.6358,2.7385,2.8315,2.8892,2.8892,2.8892,2.8332,0.0,0.0,0.0,0.0,0.0,0.0,2.8324,0.0,2.8271,2.761,2.7625,2.7625,2.7625,2.7625,2.7845,2.8463,2.791,2.791,2.8511,2.9088,2.9717,3.0293,3.0335,3.0351,3.0251,2.9088,2.8559,2.8479,2.7894,2.7625,2.7625,2.7625,2.7625,2.7625,2.7625,2.7625,2.7535,0.0,0.0,0.0,0.0,0.0,0.0,0.0,0.0,0.0,0.0,0.0,0.0,0.0,0.0,0.0,0.0,0.0,0.0,0.0,0.0,0.0,0.0,0.0,0.0,0.0,0.0,0.0,0.0,0.0,0.4573,0.74,0.9257,1.0887,1.2346,1.2904,1.3986,1.5446,1.5754,1.6562,1.765,0.0,1.7218,1.669,0.0,0.0,0.0,0.0,0.0,0.0,0.0,1.4008,1.5781,1.6433,1.682,1.7138,1.7839,1.8896,2.0124,2.1345,2.2846,2.4198,2.4905,2.5727,2.6488,2.6812,2.6434,2.58,2.516,2.4467,2.3611,0.0,0.0,0.0,2.4564,2.6082,0.0,2.7283,2.7283,0.0,2.6742,0.0,2.6776,2.6962,2.7672,0.0,0.0,2.879,2.8732,2.766,2.7625,2.7625,2.7625,2.7625,2.766,2.781,2.7675,2.791,2.8511,2.9088,2.9717,3.0309,3.0757,3.0757,3.0293,2.9978,2.9316,2.8463,2.8319,2.7993,2.7625,2.7625,2.7625,2.7625,2.7625,2.7625,2.7595,0.0,0.0,0.0,0.0,0.0,0.0,0.0,0.0,0.0,0.0,0.0,0.0,0.0,0.0,0.0,0.0,0.0,0.0,0.0,0.0,0.0,0.0,0.0,0.0,0.0,0.0,0.0,0.0,0.0,0.0,0.0,0.7966,0.9329,1.0494,1.1017,1.1895,1.2983,0.0,0.0,0.0,0.0,0.0,0.0,0.0,0.0,0.0,0.0,0.0,0.0,0.0,0.0,1.753,1.8155,1.8386,1.8667,1.9824,2.062,2.1409,2.2754,2.3912,2.4791,2.5005,2.5494,2.5792,2.5386,2.4926,2.4265,2.3025,2.228,0.0,2.0626,0.0,0.0,0.0,0.0,0.0,2.7689,2.7706,2.7452,0.0,2.6691,0.0,2.6691,2.7385,2.7861,0.0,2.8844,2.9026,2.8432,2.84,2.84,2.84,2.84,2.84,2.84,2.84,2.8415,2.8511,2.9088,2.9585,2.9935,3.0781,3.1015,3.0699,0.0,2.9761,2.8873,2.8606,2.814,2.7625,2.7625,2.7625,2.7625,2.7625,2.7625,2.7625,0.0,0.0,0.0,0.0,0.0,0.0,0.0,0.0,0.0,0.0,-0.2353,0.0,0.0,0.0,0.0,0.0,0.0,0.0,0.0,0.0,0.0,0.0,0.0,0.0,0.0,0.0,0.0,0.0,0.0,0.0,0.0,0.0,0.0,0.0,0.0,0.0,0.0,0.0,0.0,0.0,0.0,0.0,0.0,0.0,0.0,0.0,0.0,0.0,0.0,0.0,1.8068,1.8853,1.9666,2.0365,2.1035,2.1867,2.217,2.2572,2.4013,2.4458,2.4582,2.4879,2.4974,2.4593,2.3107,2.2656,2.2075,2.0314,0.0,1.936,1.9066,2.0552,2.2358,2.4064,0.0,2.7757,2.8376,2.8535,2.8078,2.6843,2.6691,2.6691,2.6691,2.7283,2.7763,2.8031,2.8741,2.9255,2.9403,2.9406,2.9406,2.9406,2.9406,2.9406,2.9406,2.9406,2.9104,2.8511,2.9088,2.9406,2.9451,3.0559,3.1112,3.1151,0.0,0.0,2.9361,2.8732,2.814,2.7625,2.7625,2.7625,2.7625,2.7625,2.7625,2.7625,0.0,0.0,0.0,0.0,0.0,0.0,0.0,0.0,0.0,0.0,-0.1257,-0.1175,0.0,0.0,0.0,0.0,0.0,0.0,0.0,0.0,0.0,0.0,0.0,0.0,0.0,0.0,0.0,0.0,0.0,0.0,0.0,0.0,0.0,0.0,0.0,0.0,0.0,0.0,0.0,0.0,0.0,0.0,0.0,0.0,0.0,0.0,0.0,0.0,0.0,0.0,1.8183,1.974,2.1985,2.2758,2.2867,2.3084,2.3577,2.4111,2.4404,2.4762,2.5084,2.5124,2.5321,2.5044,2.3407,2.2461,0.0,0.0,1.754,1.6783,1.6101,1.7755,1.9491,2.0251,0.0,0.0,0.0,0.0,2.6319,0.0,0.0,0.0,0.0,0.0,0.0,0.0,0.0,0.0,2.9387,2.9406,2.9406,2.9406,2.9406,2.9406,2.9406,2.9406,2.9104,2.8511,2.9088,2.9406,2.9406,3.0123,3.074,3.1151,0.0,0.0,2.9361,2.8732,2.814,2.7625,2.7625,2.7625,2.7625,2.7625,2.7625,2.7625,0.0,0.0,0.0,0.0,0.0,0.0,0.0,-0.0085,0.0283,0.0372,0.1421,0.1217,-0.125,-0.1894,-0.2205,0.0,0.0,0.0,0.0,0.0,0.0,0.0,0.0,0.0,0.0,0.0,0.0,0.0,0.0,0.0,0.0,0.0,0.0,0.0,0.0,0.0,0.0,0.0,0.0,0.0,0.0,0.0,0.0,0.0,0.0,0.0,0.0,0.0,0.0,0.0,1.718,1.8731,2.1776,2.3195,2.3683,2.3218,2.3822,2.4597,2.4321,2.4787,2.5359,2.5441,2.5564,2.4973,2.2348,0.0,0.0,0.0,1.579,1.5235,1.4685,0.0,0.0,0.0,0.0,0.0,0.0,0.0,0.0,0.0,0.0,0.0,0.0,0.0,0.0,0.0,0.0,0.0,0.0,3.0137,3.0351,3.0351,3.0351,3.0351,3.0351,3.0038,2.9717,2.9451,2.9406,2.9585,2.9848,2.9848,3.0166,3.0699,0.0,0.0,0.0,2.8606,2.814,2.7625,2.7625,2.7625,2.7625,2.7625,2.7625,2.7625,0.0,0.0,0.0,0.0,0.0,0.0,0.0,0.2365,0.3966,0.4138,0.5507,0.5079,0.1395,-0.0237,-0.128,0.0,0.0,0.0,0.0,0.0,0.0,0.0,0.0,0.0,0.0,0.0,0.0,0.0,0.0,0.0,0.0,0.0,0.0,0.0,0.0,0.0,0.0,0.0,0.0,0.0,0.0,0.0,0.0,0.0,0.0,0.0,0.0,0.0,0.0,0.0,1.5675,1.7274,1.9837,2.1931,2.3397,2.3279,2.3805,2.4415,2.4317,2.4895,2.5546,2.5644,2.5683,2.4763,2.1269,2.0338,1.9153,1.5426,1.4485,1.4259,1.404,0.0,1.5823,0.0,1.9202,0.0,0.0,0.0,0.0,0.0,0.0,0.0,0.0,0.0,0.0,0.0,0.0,0.0,0.0,3.0886,3.119,3.119,3.119,3.119,3.119,3.074,3.0335,3.0123,2.9629,2.9585,2.9892,2.9406,2.954,3.0081,0.0,0.0,0.0,2.8383,2.8042,2.7625,2.7625,2.7625,2.7625,2.7625,2.7625,2.7625,0.0,0.0,0.0,0.0,0.0,0.0,0.0,0.512,0.8823,0.9743,1.1583,1.1404,0.7608,0.408,0.1126,0.0,0.0,0.0,0.0,0.0,0.0,0.0,0.0,0.0,0.0,0.0,0.0,0.0,0.0,0.0,0.0,0.0,0.0,0.0,0.0,0.0,0.0,0.0,0.0,0.0,0.0,0.0,0.0,0.0,0.0,0.0,0.0,0.0,0.0,0.0,0.0,1.6228,1.5996,1.8225,2.1419,2.3898,2.3964,2.3535,2.4827,2.5382,2.5597,2.5616,2.5605,2.4676,2.1133,0.0,1.8849,1.4958,1.3962,1.3818,1.3974,0.0,0.0,0.0,0.0,1.9033,0.0,0.0,0.0,0.0,0.0,0.0,0.0,0.0,0.0,0.0,0.0,0.0,0.0,3.1157,3.119,3.119,3.119,3.119,3.119,3.1151,3.0559,2.9496,2.9406,2.9134,2.8638,2.8606,2.8919,2.9451,0.0,0.0,0.0,2.791,2.766,2.7625,2.7625,2.7625,2.7625,2.7625,2.7625,2.7625,0.0,0.0,0.0,0.0,0.0,0.0,0.0585,0.4946,0.9765,1.4501,1.4601,1.322,1.0521,0.6555,0.289,-0.0058,0.0,0.0,0.0,0.0,0.0,0.0,0.0,0.0,0.0,0.0,0.0,0.0,0.0,0.0,0.0,0.0,0.0,0.0,0.0,0.0,0.0,0.0,0.0,0.0,0.0,0.0,0.0,0.0,0.0,0.0,0.0,0.0,0.0,0.0,0.0,0.0,1.3671,1.5397,1.7352,2.0179,2.2135,2.3436,2.3581,2.4554,2.5554,2.5598,2.5601,2.4667,2.1058,2.0012,1.865,1.4678,1.3491,1.3109,1.2951,1.2742,1.3084,0.0,0.0,0.0,1.9404,0.0,0.0,0.0,0.0,0.0,0.0,0.0,0.0,0.0,0.0,0.0,0.0,0.0,3.119,3.119,3.119,3.119,3.119,3.119,3.0797,2.9935,2.9585,2.9271,2.9012,2.8271,2.8271,0.0,0.0,0.0,0.0,2.771,2.7625,2.7625,2.7625,2.7625,2.7625,2.7625,2.7625,2.7625,0.0,0.0,0.0,0.0,0.0,-0.1178,0.0248,0.4661,0.9604,1.4543,1.5049,1.4269,1.2487,0.8344,0.4709,0.2222,0.0552,0.0,0.0,0.0,0.0,0.0,0.0,0.0,0.0,0.0,0.0,0.0,0.0,0.0,0.0,0.0,0.0,0.0,0.0,0.0,0.0,0.0,0.0,0.0,0.0,0.0,0.0,0.0,0.0,0.0,0.0,0.0,0.0,0.0,0.0,1.0001,1.2112,1.3396,1.4843,1.8402,2.0894,2.2639,2.3398,2.4342,2.5164,2.5203,2.5171,2.4174,2.0496,1.9363,1.795,1.4111,1.2873,1.2351,1.1909,1.1702,1.197,1.3154,0.0,1.5989,1.8254,2.0161,0.0,0.0,0.0,0.0,0.0,0.0,0.0,0.0,0.0,0.0,0.0,0.0,3.119,3.119,3.119,3.119,3.119,3.119,3.0797,3.0038,2.9585,2.9225,2.8857,2.7993,2.781,0.0,0.0,0.0,0.0,2.7625,2.7625,2.7625,2.7625,2.7625,2.7625,2.7625,2.7625,2.7625,0.0,0.0,0.0,0.0,0.0,0.0,-0.0657,0.4803,0.8731,0.8347,1.2677,1.5256,1.3814,0.9609,0.671,0.626,0.2958,0.0,0.0,0.0,0.0,0.0,0.0,0.0,0.0,0.0,0.4738,0.48,0.6331,0.0,0.0,0.0,0.0,0.0,0.0,0.0,0.0,0.0,0.0,0.0,0.0,0.0,0.0,0.0,0.0,0.0,0.0,0.0,0.0,0.0,0.0,0.0,0.0,1.2468,1.4854,2.0119,2.079,2.0754,2.5015,2.5255,2.4316,2.4319,2.4155,2.3028,1.9271,1.7946,1.6546,1.3123,1.2035,1.1564,1.1001,1.1141,1.1534,1.2207,1.3163,0.0,1.8238,0.0,0.0,0.0,0.0,0.0,0.0,0.0,0.0,0.0,0.0,0.0,0.0,0.0,3.119,3.119,3.119,3.119,3.119,3.119,3.0617,2.9406,2.9406,2.8764,2.7625,2.7625,0.0,0.0,0.0,0.0,0.0,2.7625,2.7625,2.7625,2.7625,2.7625,2.7625,2.7625,2.7625,2.7625,0.0,0.0,0.0,0.0,0.0,0.0,0.0,0.2591,0.6599,0.8558,1.1545,1.3176,1.2351,0.9511,0.7097,0.5742,0.297,0.0,0.0,0.0,0.0,0.0,0.0,0.0,0.0,0.0,0.5204,0.5284,0.6636,0.7053,0.6585,0.6586,0.0,0.0,0.0,0.0,0.0,0.0,0.0,0.0,0.0,0.0,0.0,0.0,0.0,0.0,0.0,0.0,0.0,0.0,0.0,0.0,0.0,0.0,0.0,1.7727,2.0165,2.1831,2.2037,2.3146,2.3793,2.1961,2.1382,2.0527,1.7732,1.678,1.5643,1.2726,1.1538,1.0908,1.0565,1.017,1.0952,1.4095,1.4474,0.0,0.0,0.0,0.0,0.0,0.0,0.0,0.0,0.0,0.0,0.0,0.0,0.0,0.0,0.0,0.0,3.1173,3.119,3.119,3.119,3.0797,3.0208,2.9406,2.8996,2.8367,2.7625,0.0,0.0,0.0,0.0,0.0,0.0,2.7625,2.7625,2.7625,2.7625,2.7625,2.7625,2.7625,2.7625,2.7625,0.0,0.0,0.0,0.0,0.0,0.0,0.0,0.1316,0.4622,0.6149,0.8526,1.0252,1.069,0.8013,0.6106,0.5914,0.348,0.0,0.0,0.0,0.0,0.0,0.0,0.0,0.0,0.4616,0.5623,0.6928,0.8177,0.8863,0.8998,0.9176,0.8272,0.645,0.5907,0.0,0.0,0.0,0.0,0.0,0.0,0.0,0.624,0.0,0.0,0.0,0.0,0.0,0.0,0.0,0.0,0.0,0.0,0.0,0.0,0.0,1.8679,2.0982,2.1055,2.1893,2.2344,2.0631,1.9799,1.879,1.6471,1.5491,1.4425,1.1999,1.0897,1.0179,0.9601,0.9262,1.0,1.2843,1.297,0.0,0.0,0.0,0.0,0.0,0.0,0.0,0.0,0.0,0.0,0.0,0.0,0.0,0.0,0.0,0.0,3.119,3.119,3.119,3.119,3.0838,3.0208,2.9406,2.9012,2.84,2.7625,0.0,0.0,0.0,0.0,0.0,0.0,2.7625,2.7625,2.7625,2.7625,2.7625,2.7625,2.7625,2.7625,2.7625,0.0,0.0,0.0,0.0,0.0,0.0,0.0,0.0767,0.2803,0.1884,0.4322,0.685,0.87,0.5483,0.4123,0.643,0.0,0.0,0.0,0.0,0.0,0.0,0.0,0.0,0.0,0.4277,0.605,0.9257,1.0634,1.1486,1.1904,1.3376,1.1482,0.6892,0.727,0.6303,0.4403,0.0,0.0,0.0,0.0,0.5194,0.0,0.0,0.0,0.0,0.0,0.0,0.0,0.0,0.0,0.0,0.0,0.0,0.0,0.0,0.0,0.0,0.0,2.1111,2.0169,1.9862,1.892,1.7482,1.531,1.4109,0.0,1.1019,1.0155,0.9403,0.8404,0.8406,0.8772,0.9406,0.9669,0.0,0.0,0.0,0.0,0.0,0.0,0.0,0.0,0.0,0.0,0.0,0.0,0.0,0.0,0.0,0.0,0.0,3.119,3.119,3.119,3.1151,3.0559,2.9451,2.9361,2.8764,2.766,0.0,0.0,0.0,0.0,0.0,0.0,2.7625,2.7625,2.7625,2.7625,2.7625,2.7625,2.7625,2.7625,2.7625,0.0,0.0,0.0,0.0,0.0,0.0,0.0,0.0,0.0,0.0,0.3322,0.4771,0.4983,0.3885,0.3357,0.0,0.0,0.0,0.0,0.0,0.0,0.0,0.0,0.0,0.0,0.5446,0.7103,0.8761,1.1773,1.3643,1.443,1.4612,1.2855,0.9527,0.8384,0.651,0.4271,0.4727,0.0,0.0,0.5411,0.5448,0.0,0.0,0.0,0.0,0.5764,0.6862,0.0,0.0,0.0,0.0,0.0,0.0,0.0,0.0,1.4926,1.5795,1.6447,0.0,1.8184,1.6312,1.5236,1.4351,0.0,1.2562,1.174,0.0,0.0,0.0,0.0,0.7831,0.8262,1.1132,0.0,0.0,0.0,0.0,0.0,0.0,0.0,0.0,0.0,0.0,0.0,0.0,0.0,0.0,0.0,0.0,0.0,0.0,3.119,3.119,3.119,3.074,3.0393,3.0081,2.9134,2.8559,0.0,0.0,0.0,0.0,0.0,0.0,0.0,2.781,2.7625,2.7625,2.7625,2.7625,2.7625,2.7625,2.7625,2.7625,0.0,0.0,0.0,0.0,0.0,0.0,0.0,0.0,0.0,0.0,0.0,0.0,0.0,0.0,0.0,0.0,0.0,0.0,0.0,0.0,0.0,0.0,0.0,0.0,0.3794,0.5534,0.7707,1.0301,1.2841,1.498,1.6675,1.6336,1.4338,1.093,0.8267,0.6103,0.4448,0.4646,0.5367,0.6306,0.5268,0.0,0.0,0.0,0.0,0.0,0.6353,0.767,0.0,1.1524,1.313,1.3987,0.0,0.0,0.0,0.0,1.3567,1.3854,1.3911,1.5452,1.6713,1.5348,1.4264,1.3329,1.2501,1.1653,0.0,0.0,0.0,0.0,0.0,0.0,0.0,0.0,1.0941,0.0,0.0,0.0,0.0,0.0,0.0,0.0,0.0,0.0,0.0,0.0,0.0,0.0,0.0,0.0,0.0,0.0,0.0,3.119,3.119,3.0878,3.0559,3.0293,2.9629,2.918,0.0,0.0,0.0,0.0,0.0,0.0,2.8042,2.771,2.7625,2.7625,2.7625,2.7625,2.7625,2.7625,2.7625,2.7625,0.0,0.0,0.0,0.0,0.0,0.0,0.0,0.0,0.0,0.0,0.0,0.0,0.0,0.0,0.0,0.0,0.0,0.0,0.0,0.0,0.0,0.0,0.0,0.3868,0.4047,0.5393,0.8077,1.2131,1.3985,1.6135,1.8558,1.8563,1.6156,1.1657,0.795,0.569,0.468,0.4541,0.5454,0.6842,0.5023,0.0,0.0,0.0,0.0,0.0,0.0,0.0,0.0,1.2349,1.4143,1.5008,1.3856,0.0,0.0,0.0,0.0,0.0,1.3064,1.4229,1.5319,1.5245,1.4343,1.3215,1.2241,0.0,0.0,0.0,0.0,0.0,0.0,0.8246,0.0,0.0,0.0,0.0,0.0,0.0,0.0,0.0,0.0,0.0,0.0,0.0,0.0,0.0,0.0,0.0,0.0,0.0,0.0,0.0,0.0,0.0,3.119,3.119,3.0918,3.0435,3.0335,3.0038,2.954,0.0,0.0,0.0,0.0,0.0,2.7845,2.766,2.7625,2.7625,2.7625,2.7625,2.7625,2.7625,2.7625,2.7625,0.0,0.0,0.0,0.0,0.0,0.0,0.0,0.0,0.0,0.0,0.0,0.0,0.0,0.0,0.0,0.0,0.0,0.0,0.0,0.0,0.0,0.0,0.0,0.4222,0.5127,0.6357,0.8445,1.1384,1.5535,1.8332,1.9774,2.1535,1.8776,1.2244,0.9034,0.6486,0.4621,0.476,0.5318,0.6048,0.0,0.0,0.0,0.0,0.0,0.0,0.0,0.0,0.0,1.2968,1.4183,1.428,1.3684,0.0,0.0,0.0,0.0,0.0,1.4055,1.3905,1.3318,1.351,1.3196,1.2566,1.1518,0.0,0.0,0.0,0.0,0.0,0.0,1.0261,1.1525,0.0,0.0,0.0,0.0,0.0,0.0,0.0,0.0,0.0,0.0,0.0,0.0,0.0,0.0,0.0,0.0,0.0,0.0,0.0,0.0,0.0,0.0,3.119,3.1151,3.1055,3.0518,3.0251,3.0166,2.9629,0.0,0.0,0.0,0.0,2.9042,2.8027,2.7625,2.7625,2.7625,2.7625,2.7625,2.7625,2.7625,2.7625,0.0,0.0,0.0,0.0,0.0,0.0,0.0,0.0,0.0,0.0,0.0,0.0,0.0,0.0,0.0,0.0,0.0,0.0,0.0,0.0,0.0,0.0,0.0,0.515,0.5394,0.7472,0.9877,1.2596,1.6502,1.9258,2.08,2.0281,1.6847,1.0962,0.8982,0.701,0.5131,0.497,0.5425,0.6228,0.0,0.0,0.0,0.0,0.0,0.0,0.0,0.0,0.0,0.0,1.2979,1.3712,1.2863,0.0,0.0,0.0,0.0,0.0,1.2775,1.2718,1.2426,1.3032,1.2956,1.2376,0.0,0.0,0.0,0.0,0.0,0.0,0.0,0.0,1.3518,1.635,0.0,0.0,0.0,0.0,0.0,0.0,0.0,0.0,0.0,0.0,0.0,0.0,0.0,0.0,0.0,0.0,0.0,0.0,0.0,0.0,0.0,3.1004,3.119,3.119,3.0918,3.0797,3.0797,3.0518,3.0351,0.0,0.0,2.8966,2.8826,2.7944,2.7625,2.7625,2.7625,2.7625,2.7625,2.7625,2.7625,2.7625,0.0,0.0,0.0,0.0,0.0,0.0,0.0,0.0,0.0,0.0,0.0,0.0,0.0,0.0,0.0,0.0,0.0,0.0,0.0,0.0,0.0,0.0,0.0,0.0,0.7092,0.9395,1.1868,1.4452,1.7884,2.0499,2.2255,1.9455,1.5583,1.0896,0.9579,0.7824,0.584,0.5396,0.5806,0.6667,0.0,0.0,0.0,0.0,0.0,0.0,0.0,0.0,0.0,0.0,0.0,0.0,0.0,0.0,0.0,1.203,1.1322,1.103,1.2003,1.2072,1.2167,1.3281,1.3177,0.0,0.0,0.0,0.0,0.0,0.0,0.0,0.0,1.3639,0.0,0.0,0.0,0.0,0.0,0.0,0.0,0.0,0.0,0.0,0.0,0.0,0.0,0.0,0.0,0.0,0.0,0.0,0.0,0.0,0.0,0.0,0.0,3.0666,3.1021,3.119,3.119,3.119,3.119,3.119,3.0958,3.0477,2.9717,2.9134,2.8638,2.7894,2.7625,2.7625,2.7625,2.7625,2.7625,2.7625,2.7625,2.7625,0.0,0.0,0.0,0.0,0.0,0.0,0.0,0.0,0.0,0.0,0.0,0.0,0.0,0.0,0.0,0.0,0.0,0.0,0.0,0.0,0.0,0.0,0.0,0.0,1.2015,1.2823,1.4264,1.6389,2.0446,2.3194,2.4666,2.168,1.8174,1.4344,1.2016,0.9388,0.6683,0.6283,0.6514,0.7062,0.6078,0.0,0.0,0.0,0.0,0.0,0.0,0.0,0.0,0.0,0.0,0.0,0.0,0.0,1.2526,1.1885,1.1878,1.2291,1.3375,1.2947,1.2559,1.4206,1.3913,0.0,1.1877,1.1566,0.0,1.0348,0.0,0.0,0.0,1.783,0.0,0.0,0.0,0.0,0.0,0.0,0.0,0.0,0.0,0.0,0.0,0.0,0.0,0.0,0.0,0.0,0.0,0.0,0.0,0.0,0.0,0.0,0.0,0.0,3.0531,3.119,3.119,3.119,3.119,3.119,3.119,3.1055,2.9908,2.9361,2.9225,2.8076,2.7625,2.7625,2.7625,2.7625,2.7625,2.7625,2.7625,2.7625,0.0,0.0,0.0,0.0,0.0,0.0,0.0,0.0,0.0,0.0,0.0,0.0,0.0,0.0,0.0,0.0,0.0,0.0,0.0,0.0,0.0,0.0,0.0,0.9749,1.3208,1.5485,1.8159,2.1325,2.3752,2.4248,2.2885,2.0291,1.6927,1.3055,1.1515,0.9907,0.8294,0.7431,0.7348,0.774,0.6812,0.593,0.0,0.0,0.0,0.0,0.0,0.0,0.0,0.0,0.9853,1.1,1.2091,1.2247,1.201,1.1764,1.1087,1.0583,1.1398,1.1303,1.1462,1.3598,1.397,0.0,0.0,1.2877,1.3604,1.3398,1.3495,0.0,0.0,0.0,0.0,0.0,0.0,0.0,0.0,0.0,0.0,0.0,0.0,0.0,0.0,0.0,0.0,0.0,0.0,0.0,0.0,0.0,0.0,0.0,0.0,0.0,0.0,0.0,3.0243,3.0531,3.097,3.119,3.119,3.119,3.119,3.1151,2.9935,2.9406,2.9316,2.8076,2.7625,2.7625,2.7625,2.7625,2.7625,2.7625,2.7625,2.7625,0.0,0.0,0.0,0.0,0.0,0.0,0.0,0.0,0.0,0.0,0.0,0.0,0.0,0.0,0.0,0.0,0.0,0.0,0.0,0.3314,0.4242,0.6626,0.0,0.9415,1.3342,1.7181,2.0587,2.3523,2.5327,2.4741,2.1882,1.9299,1.6456,0.0,0.0,0.0,0.0,0.8633,0.8172,0.8339,0.7591,0.6569,0.0,0.0,0.0,0.0,0.0,0.0,0.0,0.0,0.8906,1.0367,1.1693,1.2006,1.1822,1.1636,1.0767,0.9871,0.9831,1.0095,1.0815,1.2687,0.0,0.0,1.3872,1.4376,1.5031,1.5452,1.5888,0.0,0.0,0.0,0.0,0.0,0.0,0.0,0.0,0.0,0.0,0.0,0.0,0.0,0.0,0.0,0.0,0.0,0.0,0.0,0.0,0.0,0.0,0.0,0.0,0.0,0.0,0.0,2.9634,3.0125,3.0615,3.097,3.119,3.119,3.119,3.1151,2.9935,2.9406,2.9316,2.8076,2.7625,2.7625,2.7625,2.7625,2.7625,2.7625,2.7625,2.7625,0.0,0.0,0.0,0.0,0.0,0.0,0.0,0.0,0.0,0.0,0.0,0.0,0.0,0.0,0.0,0.0,0.0,0.0,0.3411,0.2959,0.3138,0.414,0.5723,0.8535,1.2767,1.7895,2.1048,2.2049,2.4753,2.4796,2.2289,1.93,0.0,0.0,0.0,0.0,0.0,0.0,0.0,0.8871,0.8338,0.7444,0.6394,0.0,0.0,0.0,0.0,0.0,0.0,0.0,0.8799,0.9687,1.1899,1.2412,1.2102,1.149,1.1214,1.0766,0.9224,0.9782,1.0936,0.0,0.0,0.0,1.6678,1.5957,1.5296,1.6189,0.0,0.0,0.0,0.0,0.0,0.0,0.0,0.0,0.0,0.0,0.0,0.0,0.0,0.0,0.0,0.0,0.0,0.0,0.0,0.0,0.0,0.0,0.0,0.0,0.0,0.0,0.0,0.0,2.8549,3.0091,3.0108,3.0497,3.119,3.119,3.119,3.1151,2.9935,2.9406,2.9316,2.8076,2.7625,2.7625,2.7625,2.7625,2.7625,2.7625,2.7625,2.7625,0.0,0.0,0.0,0.0,0.0,0.0,0.0,0.0,0.0,0.0,0.0,0.0,0.0,0.0,0.0,0.0,0.0,0.0,0.3209,0.2796,0.2707,0.3051,0.4755,0.6599,0.8559,1.4668,2.0148,2.487,2.4985,2.29,1.8789,0.0,0.0,0.0,0.0,0.0,0.0,0.0,0.0,0.0,0.9401,0.8666,0.7953,0.0,0.0,0.0,0.0,0.0,0.0,0.0,0.0,0.0,1.1768,1.2873,1.3314,1.174,1.1639,1.1525,0.9259,0.9574,0.0,1.2042,0.0,0.0,0.0,1.8354,0.0,0.0,0.0,0.0,0.0,0.0,0.0,0.0,0.0,0.0,0.0,0.0,0.0,0.0,0.0,0.0,0.0,0.0,0.0,0.0,0.0,0.0,0.0,0.0,0.0,0.0,0.0,0.0,0.0,0.0,0.0,2.9313,2.9854,3.0497,3.119,3.119,3.119,3.1151,3.0377,2.9805,2.9316,2.8076,2.7625,2.7625,2.7625,2.7625,2.7625,2.7625,2.7625,2.7625,0.0,0.0,0.0,0.0,0.0,0.0,0.0,0.0,0.3991,0.3913,0.397,0.4012,0.0,0.0,0.0,0.4012,0.3825,0.3551,0.3204,0.2602,0.2291,0.236,0.3502,0.5565,0.8604,1.3787,1.8089,2.1448,2.2462,2.1005,0.0,0.0,0.0,0.0,0.0,0.0,0.0,0.0,0.0,0.0,1.0113,0.9517,0.8964,0.0,0.0,0.0,0.0,0.0,0.0,0.0,0.0,0.0,1.0702,1.1843,1.2583,1.1073,1.0992,1.0991,0.921,0.9536,0.0,1.2299,1.3629,1.5483,1.9121,0.0,0.0,0.0,0.0,0.0,0.0,0.0,0.0,0.0,0.0,0.0,0.0,0.0,0.0,0.0,0.0,0.0,0.0,0.0,0.0,0.0,0.0,0.0,0.0,0.0,0.0,0.0,0.0,0.0,0.0,0.0,0.0,0.0,2.9448,3.0192,3.119,3.0958,3.0975,3.1151,3.0293,2.9585,2.8966,2.7993,2.7625,2.7625,2.7625,2.7625,2.7625,2.7625,2.7625,2.7625,0.0,0.0,0.0,0.0,0.0,0.0,0.0,0.3869,0.3906,0.3906,0.3906,0.3906,0.0,0.0,0.0,0.3891,0.3597,0.3361,0.3268,0.2453,0.1982,0.1983,0.2431,0.5468,1.142,1.415,1.5068,1.4155,1.8091,1.8873,0.0,0.0,0.0,0.0,0.0,0.0,0.0,0.0,0.0,0.0,1.0616,1.0192,0.9681,0.9508,0.0,0.0,0.0,0.0,0.0,0.0,0.0,0.0,0.9099,0.9882,1.0619,0.9737,0.9716,0.9828,0.9135,0.9699,0.0,1.2509,1.4542,0.0,2.2156,0.0,0.0,0.0,0.0,0.0,0.0,0.0,0.0,0.0,0.0,0.0,0.0,0.0,0.0,0.0,0.0,0.0,0.0,0.0,0.0,0.0,0.0,0.0,0.0,0.0,0.0,0.0,0.0,0.0,0.0,0.0,0.0,0.0,0.0,2.9627,3.0914,3.0485,3.0559,3.0975,2.9805,2.9012,2.8463,2.786,2.7625,2.7625,2.7625,2.7625,2.7625,2.7625,2.7625,2.7625,0.0,0.0,0.0,0.0,0.0,0.0,0.3877,0.3891,0.3906,0.3906,0.3906,0.3906,0.3906,0.3855,0.0,0.3824,0.36,0.334,0.3006,0.2747,0.2384,0.1869,0.3805,0.7146,1.1944,1.1404,1.1497,1.236,1.4973,1.5136,0.0,0.0,0.0,0.0,0.0,0.0,0.0,0.0,0.0,0.0,0.0,1.1421,1.1204,1.0188,0.9662,0.0,0.0,0.0,0.0,0.0,0.0,0.0,0.8388,0.9169,0.9845,0.8792,0.9429,1.0286,0.9552,1.0344,0.0,0.0,1.6578,1.9917,2.1523,2.3135,0.0,0.0,0.0,0.0,0.0,0.0,0.0,0.0,0.0,0.0,0.0,0.0,0.0,0.0,0.0,0.0,0.0,0.0,0.0,0.0,0.0,0.0,0.0,0.0,0.0,0.0,0.0,0.0,0.0,0.0,0.0,0.0,2.8042,2.8556,2.9046,2.9887,3.0123,2.9761,2.8996,2.8606,2.8463,2.786,2.7625,2.7625,2.7625,2.7625,2.7625,2.7625,2.7625,2.7625,0.0,0.0,0.0,0.0,0.0,0.0,0.0,0.0,0.436,0.4334,0.4053,0.3825,0.3766,0.3727,0.0,0.0,0.3528,0.3285,0.3015,0.2809,0.2706,0.2704,0.5065,0.7247,0.9137,0.9016,0.9179,0.965,1.119,0.0,0.0,0.0,0.0,0.0,0.0,0.0,0.0,0.0,0.0,0.0,0.0,0.0,0.0,1.0383,0.9692,0.9218,0.7962,0.0,0.0,0.0,0.0,0.0,0.0,0.0,0.8534,0.7733,0.861,0.9952,1.0498,0.0,0.0,1.5627,0.0,2.1308,2.2588,0.0,0.0,0.0,0.0,0.0,0.0,0.0,0.0,0.0,0.0,0.0,0.0,0.0,0.0,0.0,0.0,0.0,0.0,0.0,0.0,0.0,0.0,0.0,0.0,0.0,0.0,0.0,0.0,0.0,2.6367,2.6367,2.6651,2.7208,2.7542,2.7965,2.8505,2.9408,2.954,2.8966,2.8654,2.8511,2.8463,2.786,2.7625,2.7625,2.7625,2.7625,2.7625,2.7625,2.7625,2.7625,0.0,0.0,0.0,0.0,0.0,0.0,0.0,0.0,0.0,0.4998,0.4508,0.4067,0.3841,0.3795,0.3729,0.0,0.0,0.0,0.3083,0.2771,0.2982,0.3818,0.5751,0.6585,0.6104,0.7096,0.7562,0.7438,0.8108,0.0,0.0,0.0,0.0,0.0,0.0,0.0,0.0,0.0,0.0,0.0,0.0,0.0,0.0,0.0,0.0,0.0,0.7595,0.6901,0.6448,0.6837,0.0,0.0,0.0,0.0,0.6771,0.6374,0.727,0.8779,1.0511,0.0,1.491,1.803,2.0373,0.0,2.3955,0.0,0.0,0.0,0.0,0.0,0.0,0.0,0.0,0.0,0.0,0.0,0.0,0.0,0.0,0.0,0.0,0.0,0.0,0.0,0.0,0.0,0.0,0.0,0.0,0.0,0.0,0.0,0.0,0.0,2.5997,2.5888,2.6178,2.6802,2.6931,2.7478,2.8367,2.8857,2.8826,2.8319,2.8319,2.8319,2.8334,2.781,2.7625,2.7625,2.7625,2.7625,2.7625,2.7625,2.7625,2.7575,0.0,0.0,0.0,0.0,0.0,0.0,0.0,0.0,0.0,0.0,0.5673,0.5376,0.4717,0.4534,0.4212,0.3565,0.3276,0.3062,0.2933,0.0,0.0,0.4418,0.4939,0.5736,0.6835,0.6131,0.6488,0.7991,0.8111,0.0,0.0,0.0,0.0,0.0,0.0,0.0,0.0,0.0,0.0,0.0,0.0,0.0,0.0,0.0,0.0,0.0,0.0,0.6345,0.6286,0.6055,0.6033,0.0,0.0,0.0,0.0,0.441,0.5162,0.6145,0.0,0.0,1.5299,0.0,2.1454,2.3638,0.0,0.0,0.0,0.0,0.0,0.0,0.0,0.0,0.0,0.0,0.0,0.0,0.0,0.0,0.0,0.0,0.0,0.0,0.0,0.0,0.0,0.0,0.0,0.0,0.0,0.0,0.0,0.0,0.0,0.0,2.6013,2.554,2.5107,2.4792,2.5513,2.6479,2.771,2.7795,2.781,2.771,2.771,2.771,2.771,2.7625,2.7625,2.7625,2.7625,2.7625,2.7625,2.7625,2.7625,2.7524,0.0,0.0,0.0,0.0,0.0,0.0,0.0,0.0,0.0,0.0,0.0,0.5654,0.5137,0.5033,0.4857,0.4537,0.3922,0.3381,0.2988,0.2731,0.3044,0.406,0.4168,0.4538,0.5196,0.4813,0.5578,0.7532,0.0,0.0,0.0,1.6499,1.6952,0.0,0.0,0.0,0.0,0.0,0.0,0.0,0.0,0.0,0.0,0.0,0.0,0.0,0.0,0.0,0.51,0.5616,0.5808,0.5653,0.4857,0.0,0.0,0.0,0.453,0.5889,0.7417,1.2544,1.7644,0.0,2.0774,2.3112,0.0,0.0,0.0,0.0,0.0,0.0,0.0,0.0,0.0,0.0,0.0,0.0,0.0,0.0,0.0,0.0,0.0,0.0,0.0,0.0,0.0,0.0,0.0,0.0,0.0,2.6954,2.6873,2.6691,2.6227,0.0,2.5561,2.5028,2.4859,2.506,2.583,2.6662,2.7625,2.7625,2.7625,2.7625,2.7625,2.7625,2.7625,2.7625,2.7625,2.7625,2.7625,2.7625,2.7625,2.7625,2.7625,2.756,0.0,0.0,0.0,0.0,0.0,0.0,0.0,0.0,0.0,0.0,0.0,0.6166,0.5715,0.0,0.0,0.0,0.4356,0.364,0.3041,0.2783,0.2907,0.3493,0.3608,0.3641,0.3588,0.3765,0.4859,0.6931,0.0,0.0,1.6481,1.7311,1.7691,0.0,1.6139,0.0,0.0,0.0,0.0,0.0,0.0,0.0,0.0,0.0,0.0,0.0,0.0,0.0,0.4387,0.509,0.5385,0.5344,0.4486,0.4159,0.0,0.0,0.0,0.0,0.0,0.0,1.662,1.692,1.918,2.1876,0.0,0.0,0.0,0.0,0.0,0.0,0.0,0.0,0.0,0.0,0.0,0.0,0.0,0.0,0.0,0.0,0.0,0.0,0.0,0.0,0.0,0.0,0.0,0.0,0.0,2.6691,2.6657,2.6521,2.6068,2.554,2.5012,2.4471,2.4691,2.5615,2.6108,2.6782,2.7625,2.7625,2.7625,2.7625,2.7625,2.7625,2.7625,2.7625,2.7625,2.7625,2.7625,2.7625,2.7625,2.7625,2.7458,2.7306,0.0,0.0,0.0,0.0,0.0,0.0,0.0,0.0,0.0,0.0,0.0,0.7484,0.6714,0.646,0.5855,0.4644,0.4154,0.364,0.3041,0.2871,0.2857,0.3029,0.3348,0.0,0.3053,0.3305,0.4419,0.0,0.0,0.0,1.6049,1.6987,1.8891,2.1424,1.9585,1.7183,1.4396,0.0,0.0,0.0,0.0,0.0,0.0,0.0,0.0,0.0,0.0,0.0,0.0,0.4243,0.4296,0.458,0.416,0.4052,0.3867,0.0,0.0,0.0,0.0,0.6681,0.0,1.3227,0.0,0.0,0.0,0.0,0.0,0.0,0.0,0.0,0.0,0.0,0.0,0.0,0.0,0.0,0.0,0.0,0.0,0.0,0.0,0.0,0.0,0.0,0.0,0.0,0.0,0.0,2.6691,2.6691,2.6521,2.6049,2.554,2.4973,2.443,2.3921,2.4312,2.5615,2.5644,2.6333,2.7625,2.7625,2.7625,2.7625,2.7625,2.7625,2.7625,2.7625,2.7625,2.7625,2.7625,2.7625,2.7625,2.7625,2.7152,2.6457,0.0,0.0,0.0,0.0,0.0,0.0,0.0,0.0,0.0,0.0,0.0,0.0,0.0,0.6584,0.6164,0.5271,0.4485,0.3756,0.3103,0.2815,0.2774,0.2993,0.3027,0.3002,0.2871,0.297,0.0,0.0,0.0,0.953,1.3995,1.6144,1.7723,1.8755,1.8085,1.7043,1.5609,1.2475,0.0,0.0,0.0,0.0,0.0,0.0,0.0,0.0,0.0,0.0,0.0,0.0,0.519,0.4764,0.4174,0.0,0.0,0.0,0.0,0.0,0.0,0.0,0.0,1.0056,1.3647,0.0,0.0,0.0,0.0,0.0,0.0,0.0,0.0,0.0,0.0,0.0,0.0,0.0,0.0,0.0,0.0,0.0,0.0,0.0,0.0,0.0,0.0,0.0,0.0,0.0,2.6262,2.6262,2.6033,2.5486,2.5297,2.4792,2.3921,2.4116,2.4717,2.5615,2.6033,2.6707,2.7625,2.7625,2.7625,2.7575,2.71,2.6878,2.6878,2.6878,2.6878,2.6878,2.6878,2.7188,2.7625,2.7625,2.7408,2.7086,0.0,0.0,0.0,1.0009,0.0,0.9008,0.8334,0.8229,0.0,0.0,0.0,0.0,0.0,0.0,0.0,0.629,0.5226,0.4374,0.3808,0.3292,0.3125,0.3382,0.3275,0.3201,0.3175,0.0,0.0,0.0,0.0,0.0,0.0,0.0,1.6613,1.7945,1.7158,0.0,0.0,0.0,0.0,1.2097,0.0,0.0,1.054,0.0,0.0,0.0,0.0,0.0,0.0,0.0,0.0,0.0,0.0,0.0,0.0,0.0,0.0,0.0,0.0466,0.0,0.0,0.0,0.0,0.0,0.0,0.0,0.0,0.0,0.0,0.0,0.0,0.0,0.0,0.0,0.0,0.0,0.0,0.0,0.0,0.0,0.0,0.0,0.0,0.0,0.0,0.0,0.0,0.0,2.6013,2.5852,2.5503,2.495,2.4752,2.4307,2.3595,2.403,2.4557,2.5254,2.5643,2.6337,2.7255,2.7255,2.7255,2.7188,2.6721,2.651,2.6457,2.6229,2.6283,2.6457,2.6229,2.6602,2.7255,2.7255,2.7086,2.6811,0.0,1.0827,1.0633,1.0054,0.9935,0.9695,0.904,0.8935,0.0,0.0,0.0,0.0,0.0,0.0,0.0,0.755,0.6338,0.552,0.5163,0.4328,0.3958,0.4218,0.0,0.0,0.0,0.0,0.0,0.0,0.4679,0.0,0.0,0.0,1.5625,0.0,1.7183,1.6603,1.711,0.0,1.4456,1.4605,0.0,1.0158,0.9534,0.0,0.0,0.0,1.1011,1.0373,0.0,0.0,0.0,0.0,0.0,0.0,0.0,0.0,0.0,0.0,0.0,0.0,0.0,0.0,0.0,0.0,0.0,0.0,0.0,0.0,0.0,0.0,0.0,0.0,0.0,0.0,0.0,0.0,0.0,0.0,0.0,0.0,0.0,0.0,0.0,0.0,0.0,0.0,0.0,0.0,2.5961,2.5449,2.4934,2.443,2.3879,2.3595,2.3595,2.3574,2.3865,2.4482,2.4445,2.5126,2.6457,2.6457,2.6457,2.6457,2.6457,2.6457,2.6404,2.5673,2.5783,2.6336,2.5673,2.5837,2.6457,2.651,2.6014,2.5398,1.1514,1.1314,1.1205,1.1255,1.0696,1.0123,0.9692,0.9623,0.0,0.0,0.0,0.0,0.0,0.0,0.0,0.0,0.7599,0.6842,0.6225,0.5412,0.4916,0.4845,0.5058,0.4986,0.0,0.0,0.0,0.0,0.0,0.0,0.0,0.0,0.0,0.0,1.4089,1.3946,1.3416,1.2482,0.0,0.0,1.2643,1.2567,0.0,0.0,0.0,0.0,0.0,1.2163,0.0,0.0,0.8546,0.6491,0.0,0.0,0.0,0.0,0.0,0.0,-0.1437,0.0,0.0,0.0,0.0,0.0,0.0,0.0,0.0,0.0,0.0,0.0,0.0,0.0,0.0,0.0,0.0,0.0,0.0,0.0,0.0,0.0,0.0,0.0,0.0,0.0,0.0,0.0,0.0,2.4816,2.4816,2.4348,2.4158,2.4389,2.3879,2.3595,2.3595,2.3996,2.431,2.4496,2.4892,2.5342,2.5673,2.5673,2.5673,2.5673,2.5119,2.4894,2.4908,2.4681,2.4738,2.4908,2.4681,2.5063,2.5783,2.6283,2.6014,2.5398,1.1734,1.1637,1.1557,1.1783,1.1342,1.0931,1.0723,1.0362,1.0063,0.0,0.0,0.0,0.0,0.0,0.0,0.0,0.942,0.8588,0.7473,0.6659,0.6078,0.5729,0.591,0.584,0.546,0.0,0.0,0.0,0.0,0.0,0.0,0.0,0.0,0.0,0.0,0.0,0.0,0.0,0.0,0.0,1.32,0.0,0.0,1.5842,1.568,0.0,0.0,0.0,1.3782,1.2487,1.0072,0.0,0.0,0.0,0.0,0.0,0.0,0.0,0.0,0.0,0.0,0.0,0.0,0.0,0.0,0.0,0.0,0.0,0.0,0.0,0.0,0.0,0.0,0.0,0.0,0.0,0.0,0.0,0.0,0.0,0.0,0.0,0.0,0.0,0.0,0.0,2.4855,2.4307,2.4074,2.3752,2.3752,2.4074,2.3752,2.3595,2.3595,2.3673,2.3815,2.4019,2.4109,2.4369,2.4951,2.4951,2.4951,2.4894,2.4509,2.4118,2.3826,2.3826,2.4002,2.4292,2.3943,2.4279,2.5007,2.5398,2.5287,2.4951,0.0,1.1768,1.1762,1.179,1.1828,1.1881,1.2014,1.122,1.0886,0.0,0.0,0.0,0.0,0.0,0.0,0.0,1.1494,1.0406,0.8776,0.7972,0.7333,0.6825,0.6774,0.6668,0.6468,0.5679,0.0,0.0,0.0,0.0,0.0,0.0,0.0,0.0,0.0,0.0,0.0,0.0,0.0,1.2255,1.3469,1.3908,0.0,0.0,1.7605,0.0,1.8195,1.7812,1.5873,1.4173,1.1062,0.0,0.0,0.0,0.0,0.0,0.0076,0.0,0.0,0.0,0.0,0.0,0.0,0.0,0.0,0.0,0.0,0.0,0.0,0.0,0.0,0.0,0.0,0.0,0.0,0.0,0.0,0.0,0.0,0.0,0.0,0.0,0.0,0.0,0.0,2.5144,2.4632,2.4116,2.3638,2.3595,2.3595,2.3595,2.3595,2.3595,2.3595,2.2923,2.2825,2.3296,2.2541,2.2821,2.3979,2.4045,2.4084,2.4084,2.415,2.3767,2.3078,2.3078,2.3531,2.4118,2.3365,2.3543,2.4176,2.4292,2.4234,2.4176,1.1713,1.1579,1.149,1.1747,1.2005,1.2463,1.3282,1.256,1.2449,0.0,0.0,0.0,0.0,0.0,0.0,0.0,0.0,0.0,0.9713,0.8985,0.8455,0.8141,0.7934,0.7881,0.804,0.697,0.0,0.0,0.0,0.0,0.0,0.0,0.0,0.0,0.0,0.0,0.0,0.0,0.0,1.1945,1.2745,0.0,1.7188,1.9022,1.9725,1.9686,1.9648,1.9111,1.7747,0.0,1.0571,0.789,0.0,0.0,0.0,0.0,0.0,0.0,0.0,0.0,0.0,0.0,0.0,0.0,0.0,0.0,0.0,0.0,0.0,0.0,0.0,0.0,0.0,0.0,0.0,0.0,0.0,0.0,0.0,0.0,0.0,0.0,0.0,0.0,0.0,2.4536,2.4074,2.3724,2.3595,2.3595,2.3595,2.3595,2.3595,2.3595,2.3595,2.2923,2.2655,2.2729,2.2001,2.1819,2.2046,2.249,2.2693,2.2718,2.3175,2.3258,2.3078,2.3078,2.3198,2.3305,2.3125,2.3198,2.3424,2.406,2.3884,2.3424,1.1751,1.1534,1.1626,1.2603,1.2526,1.275,1.4087,1.3436,0.0,0.0,0.0,0.0,0.0,0.0,0.0,0.0,0.0,0.0,1.0443,0.974,0.9146,0.8588,0.8526,0.8418,0.8259,0.7302,0.6315,0.0,0.0,0.0,0.0,0.0,0.0,0.0,0.0,0.0,0.0,0.0,0.8424,1.0996,1.3665,0.0,1.8511,2.0553,2.1093,2.0851,2.1143,2.0215,1.8311,1.498,1.2003,0.0,0.0,0.5711,0.3725,0.0,0.0806,0.0555,0.0,0.0,0.0,-0.0776,0.0,0.0,0.0,0.0,0.0,0.0,0.0,0.0,0.0,0.0,0.0,0.0,0.0,0.0,0.0,0.0,0.0,0.0,0.0,0.0,0.0,0.0,2.4168,2.3578,2.301,2.2801,2.3143,2.3143,2.3143,2.3143,2.3465,2.3465,2.3143,2.2503,2.2283,2.26,2.1601,2.1368,2.1907,2.2184,2.246,2.2736,2.2952,2.3078,2.3078,2.3078,2.3078,2.3078,2.3078,2.3078,2.3138,2.3531,2.3424,2.3138,1.1703,1.149,1.1719,1.308,1.2858,1.2998,1.4576,1.3947,0.0,0.0,0.0,0.0,0.0,0.0,0.0,0.0,0.0,0.0,0.0,0.0,0.978,0.9133,0.8974,0.8735,0.8354,0.7607,0.6661,0.5545,0.0,0.0,0.0,0.0,0.0,0.0,0.0,0.0,0.0,0.0,0.0,1.1087,0.0,1.7279,1.8448,2.1246,2.1562,2.0688,2.2191,2.1069,1.8551,1.6443,0.0,1.0898,0.9096,0.7656,0.0,0.0,0.0,0.0,0.0,0.0,0.0,0.0,0.0,-0.1117,0.0,0.0,0.0,0.0,0.0,0.0,0.0,0.0,0.0,0.0,0.0,0.0,0.0,0.0,0.0,0.0,0.0,0.0,0.0,0.0,0.0,2.2891,2.1914,2.1721,2.2634,2.2694,2.2649,2.2498,2.3098,2.3143,2.2498,2.1866,2.1766,2.2223,2.1095,2.0966,2.1832,2.1945,2.2297,2.2824,2.2924,2.2977,2.3078,2.3078,2.3078,2.3078,2.3078,2.3078,2.3078,2.3078,2.3078,2.3078,1.1363,1.1318,1.1376,1.1543,1.2487,1.3534,1.4636,1.3947,0.0,0.0,0.0,0.0,0.0,0.0,0.0,0.0,0.0,0.0,1.2225,0.0,0.0,1.0897,0.9619,0.9126,0.9579,0.8754,0.722,0.499,0.0,0.0,0.0,0.0,0.0,0.0,0.5656,0.0,0.0,0.0,1.0926,0.0,1.6098,1.6488,0.0,1.9705,2.046,2.0079,2.2019,2.1477,1.9467,0.0,1.4495,1.2126,0.0,0.7548,0.0,0.0,0.0,0.0,0.0,0.0,0.0,0.0,0.0312,0.0,0.0,0.0,0.0,0.0,0.0,0.0,0.0,0.0,0.0,0.0,0.0,0.0,0.0,0.0,0.0,0.0,0.0,0.0,0.0,0.0,0.0,0.0,2.1278,2.0726,2.2608,2.2694,2.2452,2.1852,2.2452,2.2483,2.1805,2.121,2.0921,2.1,2.0246,1.9962,2.01,2.0627,2.1154,2.1707,2.2196,2.2686,2.3078,2.3078,2.3078,2.3078,2.3078,2.3078,2.3078,2.3078,2.3078,2.3078,1.1296,1.102,1.1124,1.2259,1.2563,1.3216,1.4825,1.5679,0.0,0.0,0.0,0.0,0.0,0.0,0.0,0.0,0.0,1.5647,0.0,0.0,0.0,1.1789,1.03,0.951,0.9583,0.8336,0.6864,0.5201,0.4571,0.0,0.0,0.0,0.0,0.0,0.6897,0.0,0.9578,0.0,0.0,0.0,0.0,0.0,0.0,2.1066,2.168,2.1565,2.2411,2.1704,2.0,0.0,1.5195,0.0,0.0,0.0,0.0,0.0,0.0,0.0,0.0,0.0,0.0,0.0,0.0,0.0,-0.0097,0.0,-0.1523,0.0,0.0,0.0,0.0,0.0,0.0,0.0,0.0,0.0,0.0,0.0,0.0,0.0,0.0,0.0,0.0,0.0,0.0,0.0,0.0,1.8461,2.1024,2.1417,2.1465,2.121,2.1771,2.1819,2.121,2.0944,2.0795,2.0795,2.0105,1.9974,2.0313,2.0605,2.0966,2.1506,2.1732,2.2146,2.2661,2.2661,2.2849,2.3078,2.3078,2.2823,2.2445,2.2944,2.2823,2.2445,1.1066,0.0,1.0861,1.2377,1.2352,1.2677,1.4353,1.6034,0.0,0.0,0.0,0.0,2.2377,2.0873,0.0,0.0,0.0,1.7832,0.0,0.0,1.3418,1.3544,1.1346,0.0,0.0,0.8286,0.6655,0.5177,0.4176,0.0,0.0,0.0,0.0,0.0,0.0,0.9223,1.1752,0.0,0.0,1.5381,1.5887,1.8331,2.1689,2.1819,2.2244,2.2715,2.2893,2.1945,2.0342,1.8459,1.5903,0.0,1.2875,0.0,0.0,0.0,0.0,0.0,0.3598,0.0,0.0,0.0,0.0,0.0,0.0,0.0,0.0,0.0,0.0,0.0,0.0,0.0,0.0,0.0,0.0,0.0,0.0,0.0,0.0,0.0,0.0,0.0,0.0,0.0,0.0,0.0,0.0,0.0,1.9564,2.0113,2.0364,2.0547,2.1148,2.1148,2.0547,2.056,2.0446,2.0232,1.994,1.9907,2.0147,2.0373,2.074,2.1267,2.1267,2.1456,2.1795,2.1873,2.2051,2.2213,2.2468,2.2116,2.1678,2.2689,2.2763,2.2249,1.0494,1.0396,1.0508,1.0928,1.1496,1.2138,1.279,0.0,0.0,0.0,0.0,0.0,0.0,0.0,0.0,0.0,0.0,1.9826,1.9823,0.0,1.5417,0.0,0.0,1.0938,0.0,0.0,0.6923,0.4626,0.4126,0.0,0.0,0.0,0.0,0.0,0.0,0.9182,1.116,1.317,1.6907,2.1432,2.064,2.1537,2.3065,0.0,2.0991,2.2798,2.337,0.0,0.0,1.8346,1.6699,0.0,0.0,0.0,0.0,0.0,0.0,0.0,0.0,0.0,0.0,0.2439,0.0,0.0,0.0,0.0,0.0913,0.0,0.0,0.0,0.0,0.0,0.0,0.0,0.0,0.0,0.0,0.0,0.0,0.0,0.0,0.0,0.0,0.0,0.0,0.0,0.0,0.0,0.0,1.9054,1.9283,1.9837,2.0497,2.0497,1.985,1.985,1.9475,1.8768,1.9475,1.9436,1.8792,1.95,2.015,2.0743,2.0743,2.0594,2.0483,2.0867,2.0647,2.0048,2.0791,2.0912,2.0846,2.2494,2.3065,2.2944,1.0787,1.0715,1.0777,1.0873,1.1376,1.2366,0.0,1.5209,0.0,0.0,0.0,0.0,0.0,0.0,2.3507,0.0,0.0,2.2232,2.1072,1.8327,0.0,0.0,0.0,1.2645,0.0,0.0,0.0,0.0,0.0,0.0,0.0,0.0,0.0,0.0,0.0,1.0858,0.0,0.0,0.0,0.0,0.0,2.3227,2.2175,0.0,0.0,2.2798,2.337,2.2656,0.0,1.9966,1.8125,1.6033,1.4468,1.2879,1.1328,1.0445,0.9352,0.0,0.0,0.0,0.5117,0.3875,0.0,0.0,0.0,0.0,0.0,0.0,0.0,0.0,0.0,0.0,0.0,0.0,0.0,0.0,0.0,0.0,0.0,0.0,0.0,0.0,0.0,0.0,0.0,0.0,0.0,0.0,0.0,1.4037,1.5648,1.751,1.8773,1.9294,1.9097,1.9579,1.9423,1.8715,1.8939,1.8927,1.8715,1.898,1.947,2.01,1.9601,1.957,1.9865,1.9518,1.9726,2.0264,2.0511,2.0852,2.1304,2.2213,2.2068,2.1416,1.1009,0.0,1.1048,1.1048,1.1628,0.0,0.0,0.0,0.0,0.0,1.9681,0.0,2.4888,0.0,2.5257,0.0,2.5663,2.39,2.2213,2.0181,0.0,1.9657,1.6772,0.0,0.0,0.0,0.0,0.0,0.0,0.5575,0.0,0.0,0.0,0.0,0.0,0.0,0.0,0.0,2.0365,0.0,0.0,2.4079,0.0,0.0,2.3099,0.0,0.0,2.2952,2.1565,2.067,1.9102,1.7255,1.6114,1.4518,1.2943,1.2209,1.0996,0.9548,0.8006,0.7182,0.0,0.0,0.4635,0.0,0.1269,0.0,0.0,0.0,0.0,0.0,0.0,0.0,0.0,0.0,0.0,0.0,0.0,0.0,0.0,0.0,0.0,0.0,0.0,0.0,0.0,0.0,0.0,0.0,0.0,0.0,1.1258,1.443,1.6414,1.7684,1.8286,1.8768,1.8661,1.7907,1.8178,1.8328,1.8328,1.8328,1.8715,1.9371,1.8608,1.8363,1.8475,1.8145,1.8342,1.8902,1.9437,2.0084,2.0758,2.1399,2.1068,2.0355,0.0,0.0,0.0,0.0,1.2094,0.0,0.0,0.0,1.6259,0.0,1.9559,2.1896,2.5171,2.4999,2.5676,2.8198,2.6597,0.0,2.346,2.2248,0.0,0.0,1.9165,1.8035,1.7625,0.0,0.0,0.0,0.0,0.0,0.0,0.0,0.0,0.0,0.7332,0.0,1.2876,1.6812,2.0337,2.3272,2.3818,2.4331,2.4638,2.3828,0.0,2.0569,2.3365,2.323,2.1568,2.0511,1.969,1.8694,1.6406,1.556,1.5195,1.4212,1.3284,1.2182,1.061,0.9479,0.8421,0.6984,0.0,0.0,0.0,0.0,0.6761,0.0,0.0,0.0,0.0,0.0,0.0,0.0,0.0,0.0,0.0,0.0,0.0,0.0,0.0,0.0,0.0,0.0,0.0,0.0,0.0,0.0,0.0,0.0,0.0,1.0624,1.3387,1.5588,1.7357,1.7478,1.7158,1.6507,1.718,1.7523,1.7523,1.7523,1.7961,1.8608,1.7852,1.7191,1.6581,1.6974,1.6796,1.6377,1.7705,1.8561,1.9115,2.0018,2.0191,2.0014,1.1703,1.1423,1.1296,0.0,1.1508,1.2215,0.0,0.0,0.0,0.0,2.0773,2.257,2.5608,2.6595,2.7396,2.8316,2.7065,0.0,0.0,0.0,0.0,2.3422,2.1242,1.987,1.9505,1.6089,0.0,1.1175,0.0,0.0,0.6951,0.0,0.0,0.0,0.0,0.0,1.3191,1.6763,2.0865,2.5013,2.5698,2.5076,0.0,0.0,2.367,2.1581,2.3214,2.32,2.2405,2.2104,2.1278,2.0147,1.8591,1.8007,1.7594,1.5796,1.4952,1.4176,1.2529,1.1525,1.0725,0.9857,0.959,0.9332,0.0,0.0,0.0,0.0,0.0,0.0,0.0,0.0,0.0,0.0,0.0,0.0,0.0,0.0,0.0,0.0,0.0,0.0,0.0,0.0,0.0,0.0,0.0,0.0,0.0,0.0,0.0,0.616,0.8782,1.1511,1.4438,1.5769,1.6277,1.6069,1.6528,1.6754,1.6754,1.6754,1.7191,1.7841,1.709,1.6978,1.7257,1.6835,1.7207,1.8034,1.7879,1.7509,1.7417,1.9257,2.0161,2.022,1.1711,0.0,0.0,1.1226,0.0,0.0,1.5095,0.0,0.0,2.068,2.2407,0.0,2.5627,2.7767,2.9036,2.8925,2.8605,0.0,0.0,0.0,0.0,2.4839,2.3733,2.2839,2.2114,1.9176,0.0,1.3709,0.0,0.0,0.7469,0.0,0.0,0.0,0.0,0.8981,0.0,1.6825,2.0966,2.4068,2.5061,0.0,0.0,2.4723,2.4211,2.3296,2.3496,2.3377,2.3054,2.2785,2.2224,2.1461,2.0234,1.9716,1.9344,1.7655,1.672,1.5889,1.4317,1.3551,1.2999,1.2014,1.1892,1.1916,1.1398,1.1626,1.1584,0.0,0.0,0.0,0.0,0.0,0.0,0.0,0.0,0.0,0.0,0.0,0.0,0.0,0.0,0.0,0.0,0.0,0.0,0.0,0.0,0.0,0.0,0.0,0.0,0.0822,0.4558,0.8211,1.1799,1.3654,1.4879,1.542,1.5822,1.6208,1.6492,1.6151,1.6425,1.709,1.6312,1.6244,1.6631,1.6197,1.6528,1.7235,1.7135,1.7123,1.7242,1.8448,1.9149,1.9327,0.0,0.0,0.0,0.0,0.0,0.0,0.0,1.7878,0.0,2.22,0.0,2.5738,2.6051,2.888,3.052,2.993,0.0,2.9926,2.758,2.8408,2.8053,2.5945,2.6322,2.605,2.5011,2.2446,0.0,0.0,0.0,0.0,0.0,0.0,0.0,0.0,0.0,0.0,0.0,1.7098,2.0888,0.0,2.3734,2.4862,2.5596,2.4255,2.4334,2.5067,2.4074,2.3681,2.3508,2.3009,2.283,2.2639,2.1496,2.1021,2.0678,1.96,1.85,1.7409,1.6223,1.5703,1.5225,1.3912,1.4031,1.4084,1.2744,1.2316,1.2004,1.1247,1.0704,0.0,0.0,0.0,0.0,0.0,0.0,0.0,0.0,0.0,0.0,0.0,0.0,0.0,0.0,0.0,0.0,0.0,0.0,0.0,0.0,0.0,0.0,0.0,0.0466,0.0,0.8916,0.0,1.2792,1.4465,1.5003,1.5633,1.6322,1.569,1.5748,1.6312,1.569,1.5468,1.5526,1.5526,1.5526,1.5584,1.6265,1.6957,1.7595,1.7657,1.7781,1.7905,0.0,0.0,0.0,0.0,0.0,1.6345,1.8868,1.9602,2.1225,2.4959,2.657,0.0,2.952,3.0828,3.1533,3.1426,3.1104,0.0,0.0,0.0,0.0,2.8328,2.8014,2.759,2.693,2.3639,2.0299,0.0,0.0,0.0,0.0,0.0,0.0,0.0,0.0,0.0,1.4435,1.7947,0.0,2.4397,2.5698,2.632,2.6438,2.5799,2.5389,2.5144,2.4511,2.3991,2.3595,2.3465,2.3421,2.3304,2.261,2.2352,2.2165,2.1417,2.0302,1.9248,1.8988,1.8097,1.7147,1.688,1.644,1.6162,1.6513,1.565,1.4697,1.4525,1.3919,1.2884,1.1145,0.0,0.0,0.0,0.0,0.0,0.0,0.0,0.0,0.0,0.0,0.0,0.0,0.0,0.0,0.0,0.0,0.0,0.0,0.0,0.0,0.0,0.0,0.0,0.0,0.0,0.0,1.2508,1.3776,1.4805,1.5584,1.5468,1.5468,1.5584,1.5468,1.5748,1.6322,1.6322,1.6322,1.6312,1.6436,1.6478,1.6455,1.677,1.7145,1.753,0.0,0.0,0.0,0.0,0.0,0.0,0.0,2.3655,0.0,2.6531,2.8087,2.9231,2.9731,3.1488,3.2521,3.2242,3.2324,3.231,3.2094,3.1684,3.114,3.0434,2.9822,0.0,2.838,2.5679,2.2012,1.7402,0.0,0.0,0.0,0.0,0.0,0.0,0.0,1.049,0.0,0.0,0.0,2.3617,2.5577,2.647,2.6657,2.6191,2.5852,2.5503,2.4712,2.4225,2.3948,2.3681,2.3595,2.3551,2.3246,2.3157,2.3054,2.2392,2.1506,2.0604,1.9915,1.9218,1.8555,1.7797,1.7633,1.7633,1.7633,1.7079,1.6337,1.5486,1.5342,1.4617,1.2067,0.9317,0.0,0.0,0.0,0.0,0.0,0.0,0.0,0.0,0.0,0.0,0.0,0.0,0.0,0.0,0.0,0.0,0.0,0.0,0.0,0.0,0.0,0.0,0.0,0.0,0.0,1.2011,1.3508,1.4628,1.541,1.541,1.541,1.541,1.541,1.5584,1.5921,1.5921,1.5921,1.5921,1.5921,1.6118,1.6436,1.665,1.7148,1.7734,0.0,1.374,0.0,0.0,1.8387,0.0,0.0,2.7616,2.9182,2.8589,2.9889,3.072,3.0268,3.2283,3.3508,3.3013,3.3474,3.368,3.3332,3.3243,3.284,3.2004,3.1307,3.0565,2.9712,2.7727,2.4064,0.0,0.0,0.0,0.0,0.0,0.0,0.0,0.0,0.0,0.0,0.0,2.1401,2.302,2.5269,2.6367,2.6657,2.6297,2.6085,2.5888,2.5028,2.4576,2.4348,2.3921,2.3681,2.3595,2.3595,2.3595,2.3508,2.3009,2.2438,2.1649,2.0455,2.0054,1.9683,1.8382,1.8394,1.8608,1.8167,1.7852,1.728,1.6058,1.6042,1.544,1.2686,1.0383,0.0,0.0,0.0,0.0,0.0,0.0,0.0,0.0,0.0,0.0,0.0,0.0,0.0,0.0,0.0,0.0,0.0,0.0,0.0,0.0,0.0,-0.3342,-0.0055,0.0,0.7504,0.0,1.3067,1.4392,1.5167,1.5294,1.541,1.541,1.541,1.541,1.541,1.541,1.541,1.541,1.541,1.5947,1.6665,1.6665,1.7275,1.8008,0.0,0.0,0.0,0.0,0.0,0.0,0.0,2.9465,3.2362,3.2769,3.2978,3.3374,3.4086,3.4429,3.448,3.424,3.3968,3.3762,3.3734,3.339,3.2983,3.2451,3.1952,3.1482,3.1033,2.9071,2.6069,0.0,0.0,0.0,0.0,0.0,0.0,0.0,0.0,0.0,0.0,1.9202,2.2116,2.5024,2.6162,2.6657,2.6691,2.6657,2.6367,2.5977,2.5888,2.5221,2.4389,2.4348,2.3991,2.3595,2.3595,2.3595,2.3595,2.3508,2.3098,2.2452,2.1697,2.1099,2.0547,1.9786,1.915,1.8886,1.9475,1.8555,1.7567,1.739,1.6404,1.4939,1.3135,1.3044,1.2126,0.0,0.0,0.0,0.0,0.0,0.0,0.0,0.0,0.0,0.0,0.0,0.0,0.0,0.0,0.0,0.0,0.0,0.0,-0.8748,0.0,-0.4644,-0.2052,0.1411,0.0,0.8878,1.1738,1.3545,1.4332,1.505,1.541,1.541,1.541,1.541,1.541,1.541,1.541,1.541,1.541,1.5947,1.6665,1.6665,1.7275,1.8008,0.0,0.0,0.0,0.0,0.0,0.0,0.0,3.0961,3.3424,3.4522,3.4671,3.467,3.4696,3.4694,3.4612,3.4416,3.403,3.3807,3.3807,3.3652,3.3361,3.2952,3.2466,3.2004,3.1565,2.937,2.6339,0.0,0.0,0.0,0.0,0.0,0.0,0.0,0.0,1.5913,1.8071,2.0975,2.3371,2.5259,2.5997,2.6436,2.6691,2.6691,2.6573,2.6367,2.612,2.554,2.4831,2.4511,2.4032,2.3595,2.3595,2.3595,2.3595,2.3595,2.3187,2.2649,2.2346,2.1819,2.1197,2.0547,2.0181,1.9927,1.9798,1.9359,1.8661,1.7797,1.6415,1.5205,1.4521,1.3201,1.1939,0.0,0.0,0.0,0.0,0.0,0.0,0.0,0.0,0.0,0.0,0.0,0.0,0.0,0.0,0.0,0.0,0.0,0.0,-0.7395,0.0,-0.5871,-0.2894,-0.0181,0.3621,0.8499,1.0513,1.2181,1.3485,1.3786,1.4213,1.4688,1.5167,1.541,1.541,1.541,1.541,1.541,1.541,1.5791,1.6367,1.6631,1.7109,1.7666,1.7136,0.0,2.0642,0.0,2.7963,3.1035,3.1407,3.2889,3.432,3.5364,3.5493,3.5339,3.487,3.4832,3.4674,3.4255,3.4037,3.3876,3.3807,3.3807,3.3606,3.3214,3.2745,0.0,3.1825,2.9597,2.6958,2.3953,1.9135,0.0,0.0,0.0,0.0,0.0,1.7741,1.919,1.9737,2.2743,2.4465,2.5259,2.5908,2.6401,2.6725,2.6945,2.6894,2.6691,2.6582,2.6069,2.5335,2.4831,2.4266,2.3794,2.3638,2.3595,2.3595,2.3595,2.329,2.2934,2.2754,2.2346,2.1852,2.121,2.093,2.0696,2.0207,1.9952,1.9359,1.7895,1.6415,1.541,1.541,1.3792,1.2378,0.0,0.0,0.0,0.0,0.0,0.0,0.0,0.6927,0.6686,0.0,0.0,0.0,0.0,0.0,0.0,0.0,0.0,0.0,0.0,0.0,0.0,0.0,0.0,0.2625,0.7616,0.9556,1.1114,1.2312,1.3,1.3666,1.4273,1.505,1.541,1.541,1.541,1.541,1.542,1.5557,1.5869,1.6318,1.6758,1.7197,1.7607,1.9606,2.4626,2.886,2.8897,3.2522,3.5416,3.5435,3.5455,3.5474,3.5493,3.5493,3.5403,3.5122,3.5105,3.4755,3.3895,3.4043,3.4074,3.3815,3.3807,3.3606,0.0,0.0,3.2282,3.1825,2.9943,2.8443,2.7322,0.0,0.0,1.933,0.0,1.704,1.8584,1.9841,2.0944,2.2017,2.4209,2.5182,2.5297,2.628,2.6691,2.6776,2.752,2.7334,2.6793,2.7502,2.7002,2.5888,2.5373,2.4816,2.4307,2.3752,2.3595,2.3595,2.3595,2.3595,2.3465,2.2875,2.2694,2.2558,2.1852,2.1245,2.0795,2.0795,2.0308,1.9359,1.7895,1.6415,1.541,1.541,1.5391,1.4411,1.1687,0.0,0.0,0.0,0.0,0.0,0.0,0.5212,0.529,0.7922,0.0,0.0,0.0,0.0,0.0,0.0,0.0,0.0,-0.5491,-0.501,0.0,-0.1341,-0.0235,0.2055,0.547,0.8879,1.0488,1.0613,1.3089,1.4204,1.4273,1.505,1.541,1.541,1.541,1.541,1.5459,1.5889,1.6328,1.6777,1.7217,1.7637,1.8008,2.5417,2.8149,3.07,3.3018,3.4576,3.5493,3.5493,3.5493,3.5493,3.5493,3.5493,3.5479,3.5383,0.0,3.5051,0.0,3.4492,3.4195,0.0,3.3954,3.3734,3.3606,3.2903,3.2417,3.2282,3.0638,2.9398,2.8698,0.0,0.0,0.0,2.2232,2.2805,2.3888,2.4742,2.4773,2.4209,2.5277,2.5742,2.5799,2.6436,2.6691,2.6725,2.6962,2.6894,2.6793,2.7554,2.7038,2.6007,2.5938,2.5266,2.4307,2.3752,2.3924,2.4298,2.4298,2.4298,2.4253,2.4074,2.3689,2.3143,2.2543,2.2221,2.1894,2.0993,1.949,1.8178,1.7688,1.6415,1.541,1.541,1.4932,1.4068,1.2397,0.0,0.0,0.0,0.0,0.0,0.0,0.8639,0.8403,0.0,0.6049,0.0,0.0,0.0,0.0,0.0,0.0,0.0,0.0,-0.5918,0.0,-0.2877,0.0309,0.3079,0.5411,0.7683,0.943,1.0661,1.2504,1.3364,1.3485,1.4805,1.541,1.541,1.541,1.505,1.4647,1.5321,1.5578,1.5564,1.6577,1.7217,1.7627,2.8909,3.1035,3.2994,3.5128,3.4436,3.4013,3.5301,3.5618,3.565,3.5588,3.5528,3.5493,3.5493,3.5354,0.0,3.5335,3.4774,0.0,3.433,3.4005,3.3807,3.3807,3.3136,3.2681,3.2517,0.0,0.0,2.9303,2.6916,2.5615,2.5352,2.623,2.6646,2.6695,2.7102,2.651,2.5259,2.5762,2.6013,2.6049,2.6505,2.6691,2.6759,2.7334,2.7199,2.6826,2.7875,2.7289,2.6007,2.5889,2.5219,2.4307,2.3752,2.4073,2.4537,2.4313,2.4238,2.4238,2.4238,2.3924,2.3508,2.3143,2.2875,2.2374,2.1091,1.9374,1.7961,1.7688,1.6641,1.5748,1.5468,1.4991,1.425,1.2949,0.0,1.1768,1.0484,0.0,0.0,0.0,0.0,0.0,0.0,0.6723,0.0,0.0,0.0,0.0,0.0,0.0,0.0,-0.4473,-0.5684,0.0,-0.2129,0.122,0.3769,0.5511,0.7229,0.8766,1.0168,1.2143,1.3009,1.307,1.4688,1.541,1.541,1.541,1.5108,1.4706,1.5043,1.5079,1.5005,1.6074,1.6655,1.7016,3.0535,3.332,0.0,0.0,3.2877,0.0,3.5053,3.5811,3.5929,3.5729,3.559,3.5515,3.5507,3.5493,3.5398,3.5138,0.0,0.0,0.0,3.3986,3.3815,3.3807,3.3419,0.0,3.255,3.1427,3.0377,2.949,2.8909,2.864,2.8613,2.9219,2.8817,2.7483,2.7435,2.6663,2.54,2.5868,2.6049,2.6085,2.6505,2.6691,2.686,2.8332,2.801,2.6962,2.8465,2.7774,2.6059,2.5502,2.4982,2.441,2.3852,2.4073,2.4462,2.3864,2.367,2.367,2.367,2.364,2.3595,2.3595,2.3098,2.2314,2.1126,1.9748,1.8501,1.7743,1.7034,1.6255,1.5526,1.541,1.4864,1.3373,1.307,1.2696,1.1562,0.0,0.0,0.0,0.0,0.0,0.0,0.6602,0.5879,0.0,0.0,0.0,0.0,0.0,-0.3583,-0.4532,-0.4312,-0.265,0.0582,0.2392,0.4167,0.5832,0.7382,0.8548,0.945,1.1747,1.2858,1.3042,1.4638,1.5294,1.5294,1.5352,1.5352,1.5215,1.4961,1.4826,1.4872,1.5758,1.6115,1.6331,0.0,0.0,3.5581,3.5841,3.4999,3.4657,3.5728,3.5951,3.5929,3.5729,3.5667,3.5621,3.5515,3.5493,3.546,3.5417,3.5155,3.487,3.4593,3.4288,3.4018,3.3807,3.3419,3.3154,3.3045,3.2388,3.1777,3.1219,3.1073,3.084,3.053,3.0697,3.0312,2.9426,2.8858,2.8072,2.7169,2.6722,2.6539,2.6556,2.6657,2.6691,2.6793,2.774,2.7875,2.767,2.876,2.8381,2.7303,2.6927,2.6325,2.5598,2.456,2.4392,2.4552,2.4388,2.4343,2.4343,2.4343,2.3999,2.3595,2.3595,2.2741,2.1852,2.1568,2.0016,1.8501,1.7743,1.7034,1.6255,1.5526,1.541,1.505,1.4085,1.3906,1.3476,1.2287,1.2538,0.0,0.0,1.1118,1.0843,0.9307,0.8908,0.7882,0.0,0.0,0.0,0.0,0.0,0.0805,-0.081,-0.0811,0.0205,0.247,0.4336,0.5789,0.6742,0.7157,0.817,0.9764,1.0797,1.1668,1.2442,1.3839,1.451,1.451,1.5177,1.4688,1.3649,1.4462,1.4166,1.3563,1.5326,1.6161,1.6647,3.5014,3.562,3.5287,3.3904,3.352,3.3996,3.5721,3.5929,3.5868,3.5841,3.5702,3.5588,3.5501,3.5493,3.5493,3.5493,3.5239,3.5053,3.4889,3.4449,3.4147,3.3986,3.3671,3.339,3.3214,3.2952,3.2583,3.2127,3.2127,3.1897,3.147,3.147,3.098,3.0074,2.9313,2.8552,2.7739,2.7012,2.6691,2.6691,2.6691,2.6691,2.6776,2.7607,2.7534,2.7133,2.8279,2.7811,2.6623,2.6678,2.6292,2.5592,2.4661,2.446,2.4483,2.4192,2.4163,2.4163,2.4163,2.3879,2.3595,2.3595,2.2651,2.1697,2.1697,2.0382,1.8886,1.7852,1.7302,1.6698,1.5584,1.541,1.5108,1.4323,1.406,1.3696,1.3021,1.2639,0.0,1.176,1.1738,1.1382,1.0422,1.0031,0.9103,0.72,0.0,0.0,0.4299,0.4372,0.3929,0.2927,0.2963,0.3505,0.4432,0.5441,0.6204,0.663,0.6985,0.7891,0.9155,1.0207,1.1187,1.2082,1.3197,1.3666,1.3674,1.4145,1.3795,1.3025,1.3277,1.2972,1.2565,1.3981,1.4967,1.5742,3.4909,3.519,3.4316,3.1406,3.0898,3.1953,3.5137,3.5692,3.5797,3.5932,3.5728,3.5565,3.5507,3.5493,3.5493,3.5493,3.5289,3.5138,3.5105,3.4595,3.4246,3.42,3.3935,3.3634,3.3302,3.3302,3.3075,3.2616,3.2517,3.2264,3.1789,3.1716,3.1202,3.0243,2.9364,2.8619,2.7943,2.7063,2.6691,2.6691,2.6691,2.6691,2.6809,2.7703,2.7325,2.6416,2.7657,2.7032,2.5648,2.5999,2.5852,2.5349,2.4808,2.4574,2.4446,2.3867,2.3681,2.3595,2.3595,2.3595,2.3595,2.3465,2.256,2.1663,2.1568,2.0657,1.9423,1.8058,1.7688,1.7191,1.5806,1.5468,1.5109,1.432,1.3944,1.3761,1.369,0.0,1.1786,1.2451,1.1799,1.1208,1.1122,1.0654,0.9962,0.9004,0.7556,0.0,0.0,0.6264,0.6198,0.6039,0.618,0.6255,0.6252,0.6152,0.6139,0.6286,0.6868,0.7513,0.8172,0.9702,1.0797,1.1592,1.2428,1.2826,1.2826,1.2948,1.2948,1.2765,1.2135,1.1784,1.1796,1.2615,1.34,1.4388,3.3507,3.2557,3.1523,3.0996,3.0898,3.1562,3.3516,3.5038,3.5903,3.5758,3.5841,3.5802,3.5522,3.5493,3.5493,3.5493,3.546,3.5354,3.5105,3.4793,3.4508,3.42,3.3935,3.3762,3.3707,3.3707,3.3504,3.3075,3.2681,3.2264,3.1789,3.1449,3.1201,3.097,2.96,2.8924,2.8704,2.7283,2.6691,2.6691,2.6691,2.6691,2.6776,2.755,2.77,2.7563,2.7954,2.7798,2.7339,2.6904,2.67,2.651,2.5922,2.552,2.5122,2.4451,2.3948,2.3595,2.3595,2.3595,2.3465,2.2965,2.2253,2.1568,2.1077,2.0346,1.9579,1.8715,1.8004,1.7357,1.6482,1.5806,1.5106,1.427,1.44,1.4467,1.409,0.0,1.345,1.3276,1.2787,1.2276,1.1774,1.17,1.1319,1.0501,1.0177,0.9275,0.7388,0.7439,0.7439,0.7277,0.643,0.651,0.7546,0.6667,0.6678,0.7512,0.6831,0.6954,0.7864,0.845,0.93,1.0276,1.1489,1.202,1.202,1.2704,1.2573,1.1988,1.2071,1.174,1.1283,1.2439,1.315,1.3608,3.2079,3.1399,3.0898,3.0898,3.0898,3.1152,3.1934,3.3496,3.49,3.5757,3.5786,3.5678,3.5515,3.5493,3.5493,3.5493,3.5493,3.5383,3.5122,3.4851,3.4551,3.42,3.3935,3.3807,3.3807,3.3807,3.3707,3.3522,3.3075,3.2648,3.2179,3.1733,3.1411,3.114,2.9651,2.9011,2.8909,2.7334,2.6691,2.6691,2.6691,2.6691,2.6742,2.7186,2.7111,2.6878,2.7316,2.7193,2.685,2.6797,2.6781,2.6695,2.6184,2.5691,2.5177,2.4564,2.4032,2.3595,2.3595,2.3595,2.3465,2.283,2.2193,2.152,2.0944,2.0308,1.9579,1.8874,1.8124,1.7523,1.7146,1.6197,1.5548,1.5892,1.5512,0.0,0.0,1.4375,1.3605,1.3394,1.2721,1.2137,1.1928,1.2011,1.178,1.0852,1.0783,1.0135,0.8548,0.8562,0.852,0.8221,0.7886,0.7765,0.7783,0.7231,0.6881,0.681,0.6359,0.6614,0.7478,0.8259,0.9011,0.9729,1.0882,1.1319,1.1163,1.1538,1.1476,1.1185,1.1263,1.1376,1.1475,1.1737,1.2535,1.3502,3.1074,3.0898,3.0898,3.0898,3.0898,3.0898,3.0898,3.1992,3.3574,3.5723,3.571,3.5493,3.5493,3.5493,3.5493,3.5493,3.5493,3.5369,3.5016,3.4813,3.4551,3.42,3.3935,3.3807,3.3807,3.3807,3.3807,3.3807,3.3302,3.284,3.2484,3.1933,3.1507,3.114,2.9651,2.9011,2.8909,2.7334,2.6691,2.6691,2.6691,2.6691,2.6708,2.6825,2.6548,2.6222,2.6697,2.6548,2.6227,2.659,2.6691,2.6624,2.6262,2.5726,2.5144,2.4712,2.4116,2.3595,2.3595,2.3595,2.3421,2.2634,2.21,2.152,2.0733,2.0156,1.9643,1.9097,1.8221,1.7633,1.7852,1.6518,1.584,1.7265,0.0,0.0,0.0,1.4836,1.3598,1.377,1.2713,1.1971,1.1971,1.2171,1.1996,1.1236,1.1162,1.0685,0.9595,0.959,0.9406,0.9088,0.8896,0.8618,0.8318,0.7504,0.6939,0.6615,0.6176,0.6352,0.6921,0.7975,0.868,0.931,1.0211,1.0568,1.0624,1.0624,1.0624,1.0624,1.0624,1.1108,1.174,1.1118,1.1883,1.3228,3.0918,3.0898,3.0898,3.0898,3.0898,3.0898,3.0898,3.0996,3.2266,3.5566,3.571,3.5493,3.5493,3.5493,3.5493,3.5493,3.5493,3.5289,3.4754,3.4714,3.4551,3.42,3.3935,3.3807,3.3807,3.3807,3.3807,3.3807,3.2965,3.2517,3.2484,3.162,3.123,3.114,2.9651,2.9011,2.8909,2.7334,2.6691,2.6691,2.6691,2.6691,2.6691,2.6708,2.6708,2.6657,2.6708,2.6708,2.6657,2.6691,2.6691,2.6691,2.6657,2.598,2.5182,2.5144,2.4389,2.3595,2.3595,2.3595,2.3319,2.2086,2.1758,2.1363,2.0131,1.985,1.9798,1.9747,1.8608,1.7797,1.8501,1.6845,1.5797,1.697,0.0,0.0,1.7079,1.5303,1.4162,1.4965,1.3382,1.2271,1.2271,1.2291,1.2305,1.2224,1.2224,1.1659,1.0376,1.0292,1.017,0.984,0.817,0.8037,0.9723,0.7237,0.6817,0.8573,0.6834,0.6098,0.6371,0.696,0.7712,0.8494,0.9168,0.9868,1.0624,1.0624,1.0624,1.0624,1.0624,1.1108,1.171,1.0891,1.1319,1.2193,3.0898,3.0898,3.0898,3.0898,3.0898,3.0898,3.0898,3.0898,3.1298,3.2376,3.2424,3.3128,3.5262,3.4859,3.4724,3.5435,3.5493,3.5273,3.4753,3.4694,3.4483,3.3961,3.3868,3.3807,3.3807,3.3807,3.3807,3.3807,3.2934,3.2484,3.2484,3.16,3.119,3.114,2.9651,2.9011,2.8909,2.7334,2.6691,2.6691,2.6691,2.6691,2.6691,2.6691,2.6691,2.6691,2.6691,2.6691,2.6691,2.6691,2.6505,2.6262,2.6262,2.5561,2.4632,2.4307,2.3921,2.3595,2.3595,2.3595,2.3406,2.2529,2.1993,2.1472,2.0633,2.0105,1.9695,1.9202,1.8328,1.7688,1.795,1.6816,1.6272,1.7643,0.0,1.6737,1.7092,1.5728,1.4579,1.4275,1.3091,1.2305,1.2305,1.2305,1.2305,1.2305,1.2305,1.2025,1.1371,1.0956,1.0714,1.0613,0.9231,0.8961,0.9875,0.8275,0.7489,0.7631,0.6384,0.5833,0.605,0.6968,0.7753,0.8464,0.9332,1.0023,1.0624,1.0624,1.0624,1.0624,1.0624,1.1108,1.171,1.0926,1.1178,1.1855,3.0898,3.0898,3.0898,3.0898,3.0898,3.0898,3.0898,3.0898,3.0774,3.0439,3.0398,3.1282,3.3628,3.3513,3.3724,3.4859,3.4795,3.4565,3.43,3.4113,3.3971,3.3815,3.3807,3.3807,3.3807,3.3807,3.3807,3.3807,3.2934,3.2484,3.2484,3.16,3.119,3.114,2.9888,2.9211,2.889,2.7604,2.6843,2.647,2.6657,2.6624,2.6521,2.6657,2.6691,2.6691,2.6691,2.6624,2.6505,2.6657,2.628,2.5762,2.5961,2.5259,2.4307,2.3752,2.3595,2.3595,2.3595,2.3465,2.3231,2.2785,2.2193,2.152,2.0944,2.0308,1.9579,1.8874,1.8124,1.7578,1.7578,1.679,1.6628,1.8284,1.7874,1.7393,1.73,1.6085,1.4807,1.381,1.2879,1.2305,1.2305,1.2592,1.2732,1.2732,1.3018,1.2913,1.2235,1.1465,1.0949,1.0862,1.0314,1.0,1.0117,0.8864,0.7952,0.7278,0.6672,0.6356,0.623,0.7001,0.7673,0.8374,0.899,0.9784,1.0624,1.0624,1.0624,1.0624,1.0624,1.1108,1.171,1.0926,1.1108,1.1677,3.0918,3.0898,3.0898,3.0898,3.0898,3.0898,3.0898,3.0898,3.0774,3.0449,3.041,3.041,3.041,3.1429,3.2551,3.3686,3.3256,3.3049,3.3393,3.2892,3.2963,3.3752,3.3807,3.3807,3.3807,3.3807,3.3807,3.3807,3.2934,3.2484,3.2484,3.16,3.119,3.1157,3.0429,2.9685,2.896,2.8163,2.7088,2.6049,2.6521,2.6453,2.6049,2.6505,2.6691,2.6691,2.6708,2.6401,2.6085,2.6556,2.6016,2.5297,2.5799,2.5259,2.4266,2.3767,2.3595,2.3595,2.3595,2.3143,2.2694,2.2694,2.2193,2.152,2.0944,2.0308,1.9579,1.8821,1.8112,1.7578,1.7578,1.68,1.6739,1.8736,1.8144,1.75,1.7812,1.6314,1.4807,1.3818,1.2879,1.2305,1.2305,1.3171,1.3673,1.3673,1.4593,1.4501,1.2946,1.1682,1.0862,1.0638,1.1122,1.1149,1.0575,0.8871,0.8078,0.8228,0.8228,0.7794,0.707,0.6952,0.7414,0.8218,0.8063,0.9,1.0624,1.0624,1.0624,1.0624,1.0624,1.1108,1.171,1.0863,1.1108,1.1655,3.1367,3.0898,3.0898,3.0898,3.0898,3.0898,3.0898,3.0898,3.0857,3.0765,3.0626,3.0762,3.1313,3.1642,3.2179,3.3083,3.3006,3.3034,3.3374,3.3071,3.3148,3.3752,3.3807,3.3807,3.3807,3.3807,3.3807,3.3807,3.2934,3.2484,3.2484,3.16,3.119,3.1157,3.0429,2.9685,2.8958,2.8738,2.7805,2.6555,2.7197,2.7096,2.6505,2.6657,2.6691,2.6759,2.73,2.6853,2.6151,2.7126,2.6208,2.4576,2.4389,2.4116,2.3794,2.3638,2.3595,2.3595,2.3595,2.3143,2.2694,2.2694,2.1894,2.1028,2.0845,1.9863,1.8821,1.8058,1.7357,1.6641,1.613,1.6317,1.6697,1.7306,1.765,1.7426,1.6175,1.557,1.4593,1.2952,1.2445,1.2305,1.2305,1.2519,1.2732,1.2732,1.282,1.2685,1.2235,1.1594,1.1256,1.1169,1.1136,1.0862,1.0282,0.9554,0.9085,0.8989,0.8325,0.7979,0.7848,0.785,0.829,0.9097,0.9086,0.9622,1.0624,1.0624,1.0624,1.0624,1.0624,1.0744,1.0926,1.0688,1.0873,1.121,3.1369,3.0804,3.0898,3.0898,3.0898,3.0898,3.0898,3.0898,3.0877,3.0794,3.0681,3.0762,3.1187,3.1218,3.1525,3.2352,3.2253,3.2283,3.254,3.2144,3.2366,3.3444,3.339,3.3476,3.3788,3.3807,3.3807,3.3807,3.2934,3.2484,3.2484,3.16,3.119,3.1173,3.0734,3.0125,2.9431,2.9431,2.8595,2.7324,2.767,2.7432,2.6855,2.6742,2.6877,2.7165,2.7317,2.6828,2.622,2.6878,2.5881,2.4307,2.3752,2.3595,2.3595,2.3595,2.3595,2.3551,2.3334,2.277,2.2253,2.1988,2.1369,2.0795,2.0795,1.9709,1.8501,1.7743,1.7034,1.6316,1.5812,1.625,1.6787,1.6963,1.7568,1.7364,1.5446,1.5234,1.445,1.2519,1.2305,1.2305,1.2305,1.2666,1.3025,1.3448,1.2806,1.2424,1.2424,1.1907,1.155,1.143,1.1369,1.1038,1.043,1.0269,0.9976,0.9486,0.918,0.8885,0.8639,0.8639,0.8898,0.9425,0.9425,0.9863,1.0624,1.0624,1.0624,1.0624,1.0624,1.0624,1.0624,1.0624,1.0742,1.0969,3.1056,3.0697,3.0898,3.0898,3.0898,3.0898,3.0898,3.0898,3.0829,3.062,3.0594,3.0533,3.0394,3.0367,3.0681,3.1437,3.1137,3.0989,3.121,3.0609,3.1057,3.2887,3.273,3.2981,3.377,3.3807,3.3762,3.3734,3.2903,3.2484,3.2417,3.16,3.119,3.119,3.119,3.0784,3.0108,3.0176,2.9458,2.8279,2.8084,2.7727,2.7247,2.694,2.7282,2.7806,2.7095,2.6656,2.6358,2.5994,2.523,2.4307,2.3752,2.3595,2.361,2.367,2.3641,2.3466,2.2989,2.2273,2.1554,2.101,2.0785,2.0696,2.0696,1.9606,1.8394,1.7743,1.6978,1.6331,1.6108,1.6406,1.6865,1.7256,1.7715,1.7364,1.5446,1.5234,1.445,1.2519,1.2305,1.2305,1.2305,1.3098,1.3954,1.4879,1.3885,1.3234,1.3234,1.2395,1.1784,1.151,1.1717,1.1583,1.1076,1.1022,1.058,0.982,1.0361,1.0174,0.9402,0.9402,0.9402,0.9402,0.9402,0.9856,1.0624,1.0624,1.0624,1.0624,1.0624,1.0624,1.0624,1.0624,1.0755,1.1042,3.0888,3.0855,3.0898,3.0898,3.0898,3.0898,3.0898,3.0898,3.0855,3.0696,3.0623,3.0521,3.0271,3.0151,3.0109,3.013,3.003,3.0189,3.0732,3.0605,3.1172,3.2606,3.2621,3.2981,3.377,3.3807,3.3652,3.3332,3.2777,3.2334,3.202,3.1466,3.119,3.119,3.119,3.0784,3.0142,3.0717,3.0154,2.8881,2.9394,2.9171,2.8505,2.8023,2.8185,2.8662,2.8134,2.7573,2.6876,2.54,2.4687,2.4307,2.3752,2.3595,2.3699,2.4253,2.3966,2.3638,2.3985,2.2915,2.1608,2.1482,2.0733,2.0003,2.0003,1.8874,1.7797,1.7633,1.6528,1.5614,1.5537,1.6201,1.6758,1.6855,1.751,1.7364,1.5446,1.5234,1.445,1.2519,1.2305,1.2305,1.2305,1.2445,1.2659,1.2879,1.267,1.2497,1.2497,1.2351,1.2178,1.2118,1.173,1.1577,1.1677,1.1223,1.081,1.0392,1.0524,1.0498,1.0301,1.0301,1.0301,1.0301,1.0301,1.0428,1.0624,1.0624,1.0624,1.0624,1.0624,1.0624,1.0624,1.0624,1.0889,1.1396,3.1143,3.0898,3.0898,3.0898,3.0898,3.0898,3.0898,3.0898,3.0835,3.0676,3.0623,3.0479,3.0145,3.0051,2.9924,2.9731,2.9626,2.97,3.0008,2.9919,3.0319,3.1403,3.1458,3.2008,3.3201,3.3058,3.3027,3.3214,3.2517,3.2039,3.1823,3.1389,3.119,3.119,3.119,3.0853,3.0206,3.059,3.0306,2.9605,2.9638,2.9609,2.9445,2.8779,2.8955,2.9404,2.8518,2.7614,2.6647,2.5092,2.455,2.4389,2.3786,2.3595,2.3642,2.3981,2.3786,2.3473,2.3483,2.276,2.1852,2.1288,2.0401,1.9703,1.9809,1.8661,1.7578,1.7578,1.6415,1.5537,1.5967,1.6364,1.6865,1.7275,1.7715,1.7364,1.5446,1.5234,1.445,1.2519,1.2305,1.2305,1.2305,1.2305,1.2305,1.2305,1.2305,1.2305,1.2305,1.2305,1.2305,1.2305,1.187,1.171,1.187,1.1423,1.1122,1.0969,1.0835,1.0835,1.0962,1.0752,1.0882,1.1312,1.0805,1.0807,1.1178,1.09,1.0768,1.0768,1.0768,1.0855,1.0955,1.0815,1.1136,1.1703,3.1663,3.1015,3.0898,3.0898,3.0898,3.0898,3.0898,3.0898,3.0832,3.0623,3.0606,3.0427,3.0009,2.9874,2.9761,2.9588,2.9415,2.933,2.933,2.9134,2.9365,3.0173,3.021,3.0889,3.2375,3.2053,3.2272,3.3075,3.223,3.1752,3.1696,3.1351,3.119,3.119,3.119,3.0878,3.0293,3.0293,3.0251,3.0117,2.9593,2.9703,3.0056,2.9341,2.9492,2.9962,2.851,2.7327,2.629,2.5273,2.4896,2.4642,2.4118,2.3939,2.3926,2.3869,2.3755,2.354,2.2871,2.2544,2.2143,2.1029,2.0238,1.9701,1.9633,1.8526,1.7556,1.7645,1.6403,1.567,1.6539,1.666,1.6867,1.7783,1.7823,1.7148,1.5446,1.5021,1.4307,1.2519,1.2305,1.2305,1.2305,1.2305,1.2305,1.2305,1.2305,1.2305,1.2305,1.2305,1.2305,1.2305,1.2024,1.187,1.187,1.1623,1.1503,1.1496,1.1256,1.1243,1.141,1.0875,1.1162,1.1992,1.1015,1.1017,1.1633,1.1207,1.0995,1.0995,1.1049,1.1209,1.1403,1.1216,1.145,1.1911,3.2288,3.1493,3.0898,3.0898,3.0898,3.0898,3.0898,3.0898,3.0832,3.0623,3.0606,3.0382,2.981,2.9377,2.9119,2.9093,2.9067,2.9044,2.9044,2.9017,2.9365,3.0173,3.021,3.0632,3.1531,3.1469,3.1803,3.2583,3.2057,3.164,3.1291,3.123,3.119,3.119,3.119,3.0878,3.0293,3.0293,2.9995,2.9569,2.9966,3.0203,3.0203,2.9605,2.9707,3.0044,2.8279,2.721,2.6534,2.6396,2.5944,2.5465,2.5375,2.533,2.531,2.5235,2.4784,2.4242,2.411,2.3186,2.2113,2.1174,2.0522,1.9935,1.9204,1.8108,1.737,1.7701,1.6475,1.5597,1.651,1.6346,1.6344,1.7309,1.706,1.6428,1.5376,1.445,1.3528,1.2445,1.2305,1.2305,1.2305,1.2305,1.2305,1.2305,1.2305,1.2305,1.2305,1.2305,1.2305,1.2305,1.2024,1.187,1.187,1.183,1.181,1.181,1.177,1.1637,1.1416,1.1082,1.1155,1.1465,1.086,1.0766,1.1125,1.1041,1.0995,1.1015,1.1269,1.139,1.145,1.167,1.1797,1.1911,3.1655,3.1208,3.0898,3.0898,3.0898,3.0898,3.0898,3.0837,3.0738,3.0617,3.0561,3.0366,2.992,2.9494,2.9178,2.9017,2.8994,2.8994,2.8994,2.8773,2.8919,2.9489,2.9152,2.9375,3.0355,2.9923,3.0274,3.1479,3.1453,3.1372,3.119,3.119,3.119,3.119,3.0838,3.0335,2.9761,2.9451,2.9134,2.8919,2.918,2.9496,2.9761,2.9496,2.9585,2.9629,2.8496,2.7713,2.7081,2.6722,2.6393,2.6093,2.5719,2.5301,2.4956,2.4906,2.4352,2.3681,2.3103,2.2504,2.1765,2.0584,1.9794,1.921,1.879,1.7968,1.7262,1.7036,1.6071,1.5328,1.542,1.5721,1.5977,1.6151,1.639,1.607,1.4593,1.3954,1.3382,1.2445,1.2305,1.2305,1.2305,1.2305,1.2305,1.2305,1.2305,1.2305,1.2305,1.2305,1.2305,1.2305,1.2178,1.2111,1.2111,1.2111,1.2111,1.2111,1.2111,1.2044,1.1897,1.1443,1.1573,1.2091,1.1356,1.1279,1.1652,1.1546,1.1483,1.1496,1.1623,1.167,1.171,1.2004,1.2111,1.2131]}]]